<?xml version="1.0" encoding="UTF-8" standalone="no" ?>
<gpx xmlns="http://www.topografix.com/GPX/1/1" xmlns:xsi="http://www.w3.org/2001/XMLSchema-instance" xsi:schemaLocation="http://www.topografix.com/GPX/1/1 http://www.topografix.com/GPX/1/1/gpx.xsd" version="1.1" creator="VisuGPX - https://www.visugpx.com">
  <metadata>
    <name>Boucle du Puy en Velay, chemin de St Régis</name>
    <desc><![CDATA[comment ...]]></desc>
  </metadata>
  <trk>
    <name><![CDATA[Chemin de St Regis]]></name>
    <desc><![CDATA[comment ...]]></desc>
    <extensions>
      <line xmlns="http://www.topografix.com/GPX/gpx_style/0/2">
        <color>0000FF</color>
        <width>4</width>
      </line>
    </extensions>
    <trkseg>
      <trkpt lat="44.93929" lon="3.99628">
        <ele>948.8</ele>
        <time>2023-02-07T16:08:16Z</time>
      </trkpt>
      <trkpt lat="44.93929" lon="3.99628">
        <ele>948.8</ele>
        <time>2023-02-07T16:08:16Z</time>
      </trkpt>
      <trkpt lat="44.93917" lon="3.99626">
        <ele>948.2</ele>
        <time>2023-02-07T16:08:16Z</time>
      </trkpt>
      <trkpt lat="44.93917" lon="3.99611">
        <ele>946</ele>
        <time>2023-02-07T16:08:16Z</time>
      </trkpt>
      <trkpt lat="44.93964" lon="3.99597">
        <ele>947</ele>
        <time>2023-02-07T16:08:16Z</time>
      </trkpt>
      <trkpt lat="44.93985" lon="3.99596">
        <ele>948</ele>
        <time>2023-02-07T16:08:16Z</time>
      </trkpt>
      <trkpt lat="44.94161" lon="3.99649">
        <ele>965.5</ele>
        <time>2023-02-07T16:08:16Z</time>
      </trkpt>
      <trkpt lat="44.9422" lon="3.99565">
        <ele>962.5</ele>
        <time>2023-02-07T16:08:16Z</time>
      </trkpt>
      <trkpt lat="44.94255" lon="3.99557">
        <ele>964.2</ele>
        <time>2023-02-07T16:08:16Z</time>
      </trkpt>
      <trkpt lat="44.94324" lon="3.99572">
        <ele>968.3</ele>
        <time>2023-02-07T16:08:16Z</time>
      </trkpt>
      <trkpt lat="44.94394" lon="3.99516">
        <ele>969.1</ele>
        <time>2023-02-07T16:08:16Z</time>
      </trkpt>
      <trkpt lat="44.94433" lon="3.99505">
        <ele>973</ele>
        <time>2023-02-07T16:08:16Z</time>
      </trkpt>
      <trkpt lat="44.9448" lon="3.99473">
        <ele>973.2</ele>
        <time>2023-02-07T16:08:16Z</time>
      </trkpt>
      <trkpt lat="44.94556" lon="3.99473">
        <ele>983.1</ele>
        <time>2023-02-07T16:08:16Z</time>
      </trkpt>
      <trkpt lat="44.946" lon="3.99492">
        <ele>992</ele>
        <time>2023-02-07T16:08:16Z</time>
      </trkpt>
      <trkpt lat="44.9467" lon="3.99501">
        <ele>1008.9</ele>
        <time>2023-02-07T16:08:16Z</time>
      </trkpt>
      <trkpt lat="44.94656" lon="3.99544">
        <ele>1015.5</ele>
        <time>2023-02-07T16:08:16Z</time>
      </trkpt>
      <trkpt lat="44.94577" lon="3.9964">
        <ele>1024.1</ele>
        <time>2023-02-07T16:08:16Z</time>
      </trkpt>
      <trkpt lat="44.94542" lon="3.99735">
        <ele>1026.5</ele>
        <time>2023-02-07T16:08:16Z</time>
      </trkpt>
      <trkpt lat="44.94553" lon="3.99842">
        <ele>1026.1</ele>
        <time>2023-02-07T16:08:16Z</time>
      </trkpt>
      <trkpt lat="44.94567" lon="3.99939">
        <ele>1025.3</ele>
        <time>2023-02-07T16:08:16Z</time>
      </trkpt>
      <trkpt lat="44.94568" lon="3.99996">
        <ele>1025.1</ele>
        <time>2023-02-07T16:08:16Z</time>
      </trkpt>
      <trkpt lat="44.94588" lon="4.00183">
        <ele>1026.4</ele>
        <time>2023-02-07T16:08:16Z</time>
      </trkpt>
      <trkpt lat="44.94618" lon="4.00209">
        <ele>1026.8</ele>
        <time>2023-02-07T16:08:16Z</time>
      </trkpt>
      <trkpt lat="44.94635" lon="4.00348">
        <ele>1031.8</ele>
        <time>2023-02-07T16:08:16Z</time>
      </trkpt>
      <trkpt lat="44.94647" lon="4.00473">
        <ele>1035.4</ele>
        <time>2023-02-07T16:08:16Z</time>
      </trkpt>
      <trkpt lat="44.94612" lon="4.00567">
        <ele>1036.5</ele>
        <time>2023-02-07T16:08:16Z</time>
      </trkpt>
      <trkpt lat="44.94594" lon="4.00649">
        <ele>1037.6</ele>
        <time>2023-02-07T16:08:16Z</time>
      </trkpt>
      <trkpt lat="44.94588" lon="4.00765">
        <ele>1037.1</ele>
        <time>2023-02-07T16:08:16Z</time>
      </trkpt>
      <trkpt lat="44.94588" lon="4.00902">
        <ele>1038.7</ele>
        <time>2023-02-07T16:08:16Z</time>
      </trkpt>
      <trkpt lat="44.94596" lon="4.01039">
        <ele>1040</ele>
        <time>2023-02-07T16:08:16Z</time>
      </trkpt>
      <trkpt lat="44.94561" lon="4.01102">
        <ele>1039.3</ele>
        <time>2023-02-07T16:08:16Z</time>
      </trkpt>
      <trkpt lat="44.94554" lon="4.01126">
        <ele>1039.1</ele>
        <time>2023-02-07T16:08:16Z</time>
      </trkpt>
      <trkpt lat="44.94584" lon="4.01276">
        <ele>1047</ele>
        <time>2023-02-07T16:08:16Z</time>
      </trkpt>
      <trkpt lat="44.94593" lon="4.01302">
        <ele>1047.6</ele>
        <time>2023-02-07T16:08:16Z</time>
      </trkpt>
      <trkpt lat="44.94606" lon="4.01419">
        <ele>1050.8</ele>
        <time>2023-02-07T16:08:16Z</time>
      </trkpt>
      <trkpt lat="44.946" lon="4.01477">
        <ele>1054.7</ele>
        <time>2023-02-07T16:08:16Z</time>
      </trkpt>
      <trkpt lat="44.94557" lon="4.01624">
        <ele>1061.5</ele>
        <time>2023-02-07T16:08:16Z</time>
      </trkpt>
      <trkpt lat="44.94557" lon="4.01637">
        <ele>1061.9</ele>
        <time>2023-02-07T16:08:16Z</time>
      </trkpt>
      <trkpt lat="44.94518" lon="4.01767">
        <ele>1065.5</ele>
        <time>2023-02-07T16:08:16Z</time>
      </trkpt>
      <trkpt lat="44.94453" lon="4.02364">
        <ele>1084.5</ele>
        <time>2023-02-07T16:08:16Z</time>
      </trkpt>
      <trkpt lat="44.94455" lon="4.0242">
        <ele>1084.6</ele>
        <time>2023-02-07T16:08:16Z</time>
      </trkpt>
      <trkpt lat="44.94448" lon="4.02457">
        <ele>1086.2</ele>
        <time>2023-02-07T16:08:16Z</time>
      </trkpt>
      <trkpt lat="44.94368" lon="4.02693">
        <ele>1087.3</ele>
        <time>2023-02-07T16:08:16Z</time>
      </trkpt>
      <trkpt lat="44.94336" lon="4.02829">
        <ele>1086.6</ele>
        <time>2023-02-07T16:08:16Z</time>
      </trkpt>
      <trkpt lat="44.9432" lon="4.02863">
        <ele>1087.9</ele>
        <time>2023-02-07T16:08:16Z</time>
      </trkpt>
      <trkpt lat="44.94289" lon="4.02909">
        <ele>1090</ele>
        <time>2023-02-07T16:08:16Z</time>
      </trkpt>
      <trkpt lat="44.94242" lon="4.0304">
        <ele>1091</ele>
        <time>2023-02-07T16:08:16Z</time>
      </trkpt>
      <trkpt lat="44.9419" lon="4.03122">
        <ele>1090.2</ele>
        <time>2023-02-07T16:08:16Z</time>
      </trkpt>
      <trkpt lat="44.94185" lon="4.03135">
        <ele>1090.4</ele>
        <time>2023-02-07T16:08:16Z</time>
      </trkpt>
      <trkpt lat="44.94133" lon="4.03349">
        <ele>1087.8</ele>
        <time>2023-02-07T16:08:16Z</time>
      </trkpt>
      <trkpt lat="44.94138" lon="4.03859">
        <ele>1087.1</ele>
        <time>2023-02-07T16:08:16Z</time>
      </trkpt>
      <trkpt lat="44.94147" lon="4.03885">
        <ele>1086.7</ele>
        <time>2023-02-07T16:08:16Z</time>
      </trkpt>
      <trkpt lat="44.94183" lon="4.03966">
        <ele>1087.8</ele>
        <time>2023-02-07T16:08:16Z</time>
      </trkpt>
      <trkpt lat="44.94187" lon="4.03984">
        <ele>1089.4</ele>
        <time>2023-02-07T16:08:16Z</time>
      </trkpt>
      <trkpt lat="44.94187" lon="4.04019">
        <ele>1092.1</ele>
        <time>2023-02-07T16:08:16Z</time>
      </trkpt>
      <trkpt lat="44.94191" lon="4.0403">
        <ele>1092.6</ele>
        <time>2023-02-07T16:08:16Z</time>
      </trkpt>
      <trkpt lat="44.94217" lon="4.04062">
        <ele>1095.2</ele>
        <time>2023-02-07T16:08:16Z</time>
      </trkpt>
      <trkpt lat="44.94231" lon="4.04071">
        <ele>1096.5</ele>
        <time>2023-02-07T16:08:16Z</time>
      </trkpt>
      <trkpt lat="44.9424" lon="4.0408">
        <ele>1097.2</ele>
        <time>2023-02-07T16:08:16Z</time>
      </trkpt>
      <trkpt lat="44.94244" lon="4.04089">
        <ele>1097.8</ele>
        <time>2023-02-07T16:08:16Z</time>
      </trkpt>
      <trkpt lat="44.94293" lon="4.04242">
        <ele>1104.4</ele>
        <time>2023-02-07T16:08:16Z</time>
      </trkpt>
      <trkpt lat="44.94312" lon="4.04286">
        <ele>1106.7</ele>
        <time>2023-02-07T16:08:16Z</time>
      </trkpt>
      <trkpt lat="44.94325" lon="4.04336">
        <ele>1106.6</ele>
        <time>2023-02-07T16:08:16Z</time>
      </trkpt>
      <trkpt lat="44.94346" lon="4.04364">
        <ele>1106</ele>
        <time>2023-02-07T16:08:16Z</time>
      </trkpt>
      <trkpt lat="44.94403" lon="4.04422">
        <ele>1104.5</ele>
        <time>2023-02-07T16:08:16Z</time>
      </trkpt>
      <trkpt lat="44.94427" lon="4.04453">
        <ele>1103.6</ele>
        <time>2023-02-07T16:08:16Z</time>
      </trkpt>
      <trkpt lat="44.94648" lon="4.04671">
        <ele>1097.2</ele>
        <time>2023-02-07T16:08:16Z</time>
      </trkpt>
      <trkpt lat="44.94658" lon="4.04686">
        <ele>1097.7</ele>
        <time>2023-02-07T16:08:16Z</time>
      </trkpt>
      <trkpt lat="44.94631" lon="4.04707">
        <ele>1097.6</ele>
        <time>2023-02-07T16:08:16Z</time>
      </trkpt>
      <trkpt lat="44.94621" lon="4.04726">
        <ele>1096.7</ele>
        <time>2023-02-07T16:08:16Z</time>
      </trkpt>
      <trkpt lat="44.94621" lon="4.04726">
        <ele>1096.7</ele>
        <time>2023-02-07T16:08:16Z</time>
      </trkpt>
      <trkpt lat="44.94628" lon="4.04712">
        <ele>1097.3</ele>
        <time>2023-02-07T16:08:16Z</time>
      </trkpt>
      <trkpt lat="44.94653" lon="4.0469">
        <ele>1097.9</ele>
        <time>2023-02-07T16:08:16Z</time>
      </trkpt>
      <trkpt lat="44.94663" lon="4.04696">
        <ele>1098.1</ele>
        <time>2023-02-07T16:08:16Z</time>
      </trkpt>
      <trkpt lat="44.94597" lon="4.04773">
        <ele>1093.6</ele>
        <time>2023-02-07T16:08:16Z</time>
      </trkpt>
      <trkpt lat="44.94545" lon="4.04992">
        <ele>1076.7</ele>
        <time>2023-02-07T16:08:16Z</time>
      </trkpt>
      <trkpt lat="44.94439" lon="4.05168">
        <ele>1070.5</ele>
        <time>2023-02-07T16:08:16Z</time>
      </trkpt>
      <trkpt lat="44.94366" lon="4.05247">
        <ele>1073.3</ele>
        <time>2023-02-07T16:08:16Z</time>
      </trkpt>
      <trkpt lat="44.9434" lon="4.05307">
        <ele>1073.7</ele>
        <time>2023-02-07T16:08:16Z</time>
      </trkpt>
      <trkpt lat="44.94216" lon="4.05361">
        <ele>1082.5</ele>
        <time>2023-02-07T16:08:16Z</time>
      </trkpt>
      <trkpt lat="44.94131" lon="4.05417">
        <ele>1085.7</ele>
        <time>2023-02-07T16:08:16Z</time>
      </trkpt>
      <trkpt lat="44.94108" lon="4.05445">
        <ele>1086.8</ele>
        <time>2023-02-07T16:08:16Z</time>
      </trkpt>
      <trkpt lat="44.94117" lon="4.05513">
        <ele>1090.5</ele>
        <time>2023-02-07T16:08:16Z</time>
      </trkpt>
      <trkpt lat="44.94049" lon="4.05636">
        <ele>1104.3</ele>
        <time>2023-02-07T16:08:16Z</time>
      </trkpt>
      <trkpt lat="44.9399" lon="4.05741">
        <ele>1110.6</ele>
        <time>2023-02-07T16:08:16Z</time>
      </trkpt>
      <trkpt lat="44.93955" lon="4.05897">
        <ele>1125.8</ele>
        <time>2023-02-07T16:08:16Z</time>
      </trkpt>
      <trkpt lat="44.93938" lon="4.05951">
        <ele>1125.4</ele>
        <time>2023-02-07T16:08:16Z</time>
      </trkpt>
      <trkpt lat="44.93873" lon="4.05979">
        <ele>1121.5</ele>
        <time>2023-02-07T16:08:16Z</time>
      </trkpt>
      <trkpt lat="44.93812" lon="4.06144">
        <ele>1133.3</ele>
        <time>2023-02-07T16:08:16Z</time>
      </trkpt>
      <trkpt lat="44.93778" lon="4.0626">
        <ele>1140.7</ele>
        <time>2023-02-07T16:08:16Z</time>
      </trkpt>
      <trkpt lat="44.93759" lon="4.06387">
        <ele>1145.5</ele>
        <time>2023-02-07T16:08:16Z</time>
      </trkpt>
      <trkpt lat="44.93778" lon="4.06505">
        <ele>1150</ele>
        <time>2023-02-07T16:08:16Z</time>
      </trkpt>
      <trkpt lat="44.93794" lon="4.06578">
        <ele>1151.5</ele>
        <time>2023-02-07T16:08:16Z</time>
      </trkpt>
      <trkpt lat="44.93848" lon="4.06747">
        <ele>1159.4</ele>
        <time>2023-02-07T16:08:16Z</time>
      </trkpt>
      <trkpt lat="44.93877" lon="4.06844">
        <ele>1164.5</ele>
        <time>2023-02-07T16:08:16Z</time>
      </trkpt>
      <trkpt lat="44.93929" lon="4.06846">
        <ele>1170.1</ele>
        <time>2023-02-07T16:08:16Z</time>
      </trkpt>
      <trkpt lat="44.93993" lon="4.06979">
        <ele>1180.2</ele>
        <time>2023-02-07T16:08:16Z</time>
      </trkpt>
      <trkpt lat="44.93936" lon="4.07125">
        <ele>1184.5</ele>
        <time>2023-02-07T16:08:16Z</time>
      </trkpt>
      <trkpt lat="44.93942" lon="4.07226">
        <ele>1186</ele>
        <time>2023-02-07T16:08:16Z</time>
      </trkpt>
      <trkpt lat="44.9398" lon="4.07462">
        <ele>1187</ele>
        <time>2023-02-07T16:08:16Z</time>
      </trkpt>
      <trkpt lat="44.94003" lon="4.07558">
        <ele>1187.9</ele>
        <time>2023-02-07T16:08:16Z</time>
      </trkpt>
      <trkpt lat="44.94002" lon="4.07642">
        <ele>1188</ele>
        <time>2023-02-07T16:08:16Z</time>
      </trkpt>
      <trkpt lat="44.9402" lon="4.0771">
        <ele>1188</ele>
        <time>2023-02-07T16:08:16Z</time>
      </trkpt>
      <trkpt lat="44.94011" lon="4.07709">
        <ele>1188</ele>
        <time>2023-02-07T16:08:16Z</time>
      </trkpt>
      <trkpt lat="44.94011" lon="4.07721">
        <ele>1188</ele>
        <time>2023-02-07T16:08:16Z</time>
      </trkpt>
      <trkpt lat="44.94015" lon="4.07775">
        <ele>1187.1</ele>
        <time>2023-02-07T16:08:16Z</time>
      </trkpt>
      <trkpt lat="44.94006" lon="4.07845">
        <ele>1187.1</ele>
        <time>2023-02-07T16:08:16Z</time>
      </trkpt>
      <trkpt lat="44.93989" lon="4.07902">
        <ele>1187.4</ele>
        <time>2023-02-07T16:08:16Z</time>
      </trkpt>
      <trkpt lat="44.94001" lon="4.07925">
        <ele>1187</ele>
        <time>2023-02-07T16:08:16Z</time>
      </trkpt>
      <trkpt lat="44.94029" lon="4.07963">
        <ele>1187.6</ele>
        <time>2023-02-07T16:08:16Z</time>
      </trkpt>
      <trkpt lat="44.94068" lon="4.08075">
        <ele>1188.9</ele>
        <time>2023-02-07T16:08:16Z</time>
      </trkpt>
      <trkpt lat="44.94135" lon="4.08179">
        <ele>1190.9</ele>
        <time>2023-02-07T16:08:16Z</time>
      </trkpt>
      <trkpt lat="44.94192" lon="4.08328">
        <ele>1193</ele>
        <time>2023-02-07T16:08:16Z</time>
      </trkpt>
      <trkpt lat="44.94178" lon="4.08533">
        <ele>1198</ele>
        <time>2023-02-07T16:08:16Z</time>
      </trkpt>
      <trkpt lat="44.94126" lon="4.08859">
        <ele>1206.9</ele>
        <time>2023-02-07T16:08:16Z</time>
      </trkpt>
      <trkpt lat="44.94093" lon="4.09058">
        <ele>1212</ele>
        <time>2023-02-07T16:08:16Z</time>
      </trkpt>
      <trkpt lat="44.94176" lon="4.0909">
        <ele>1212.7</ele>
        <time>2023-02-07T16:08:16Z</time>
      </trkpt>
      <trkpt lat="44.94254" lon="4.09073">
        <ele>1210.9</ele>
        <time>2023-02-07T16:08:16Z</time>
      </trkpt>
      <trkpt lat="44.94412" lon="4.08842">
        <ele>1191.1</ele>
        <time>2023-02-07T16:08:16Z</time>
      </trkpt>
      <trkpt lat="44.94484" lon="4.09026">
        <ele>1190.2</ele>
        <time>2023-02-07T16:08:16Z</time>
      </trkpt>
      <trkpt lat="44.94585" lon="4.0891">
        <ele>1169.4</ele>
        <time>2023-02-07T16:08:16Z</time>
      </trkpt>
      <trkpt lat="44.94715" lon="4.08872">
        <ele>1137.1</ele>
        <time>2023-02-07T16:08:16Z</time>
      </trkpt>
      <trkpt lat="44.94767" lon="4.09142">
        <ele>1122.2</ele>
        <time>2023-02-07T16:08:16Z</time>
      </trkpt>
      <trkpt lat="44.9487" lon="4.09091">
        <ele>1129.3</ele>
        <time>2023-02-07T16:08:16Z</time>
      </trkpt>
      <trkpt lat="44.94946" lon="4.08953">
        <ele>1137.2</ele>
        <time>2023-02-07T16:08:16Z</time>
      </trkpt>
      <trkpt lat="44.95016" lon="4.08812">
        <ele>1147.8</ele>
        <time>2023-02-07T16:08:16Z</time>
      </trkpt>
      <trkpt lat="44.95022" lon="4.09031">
        <ele>1170.6</ele>
        <time>2023-02-07T16:08:16Z</time>
      </trkpt>
      <trkpt lat="44.95116" lon="4.08945">
        <ele>1175.2</ele>
        <time>2023-02-07T16:08:16Z</time>
      </trkpt>
      <trkpt lat="44.95162" lon="4.08996">
        <ele>1177</ele>
        <time>2023-02-07T16:08:16Z</time>
      </trkpt>
      <trkpt lat="44.95268" lon="4.08897">
        <ele>1178.8</ele>
        <time>2023-02-07T16:08:16Z</time>
      </trkpt>
      <trkpt lat="44.95377" lon="4.08842">
        <ele>1179</ele>
        <time>2023-02-07T16:08:16Z</time>
      </trkpt>
      <trkpt lat="44.95481" lon="4.08979">
        <ele>1187.3</ele>
        <time>2023-02-07T16:08:16Z</time>
      </trkpt>
      <trkpt lat="44.95292" lon="4.09224">
        <ele>1178.4</ele>
        <time>2023-02-07T16:08:16Z</time>
      </trkpt>
      <trkpt lat="44.95487" lon="4.09219">
        <ele>1169.1</ele>
        <time>2023-02-07T16:08:16Z</time>
      </trkpt>
      <trkpt lat="44.95472" lon="4.09378">
        <ele>1160.4</ele>
        <time>2023-02-07T16:08:16Z</time>
      </trkpt>
      <trkpt lat="44.95481" lon="4.09511">
        <ele>1155.6</ele>
        <time>2023-02-07T16:08:16Z</time>
      </trkpt>
      <trkpt lat="44.95408" lon="4.09687">
        <ele>1161.3</ele>
        <time>2023-02-07T16:08:16Z</time>
      </trkpt>
      <trkpt lat="44.95447" lon="4.09794">
        <ele>1159.5</ele>
        <time>2023-02-07T16:08:16Z</time>
      </trkpt>
      <trkpt lat="44.95505" lon="4.09915">
        <ele>1162.8</ele>
        <time>2023-02-07T16:08:16Z</time>
      </trkpt>
      <trkpt lat="44.95495" lon="4.10018">
        <ele>1165.9</ele>
        <time>2023-02-07T16:08:16Z</time>
      </trkpt>
      <trkpt lat="44.95496" lon="4.09996">
        <ele>1165.2</ele>
        <time>2023-02-07T16:08:16Z</time>
      </trkpt>
      <trkpt lat="44.95496" lon="4.09996">
        <ele>1165.2</ele>
        <time>2023-02-07T16:08:16Z</time>
      </trkpt>
      <trkpt lat="44.95498" lon="4.10009">
        <ele>1165.5</ele>
        <time>2023-02-07T16:08:16Z</time>
      </trkpt>
      <trkpt lat="44.9549" lon="4.10021">
        <ele>1166.2</ele>
        <time>2023-02-07T16:08:16Z</time>
      </trkpt>
      <trkpt lat="44.95492" lon="4.10049">
        <ele>1166.3</ele>
        <time>2023-02-07T16:08:16Z</time>
      </trkpt>
      <trkpt lat="44.95476" lon="4.10104">
        <ele>1167.8</ele>
        <time>2023-02-07T16:08:16Z</time>
      </trkpt>
      <trkpt lat="44.95445" lon="4.10154">
        <ele>1169.5</ele>
        <time>2023-02-07T16:08:16Z</time>
      </trkpt>
      <trkpt lat="44.95429" lon="4.10194">
        <ele>1171.5</ele>
        <time>2023-02-07T16:08:16Z</time>
      </trkpt>
      <trkpt lat="44.95414" lon="4.10214">
        <ele>1172.9</ele>
        <time>2023-02-07T16:08:16Z</time>
      </trkpt>
      <trkpt lat="44.95285" lon="4.10345">
        <ele>1185.6</ele>
        <time>2023-02-07T16:08:16Z</time>
      </trkpt>
      <trkpt lat="44.95161" lon="4.10426">
        <ele>1198.9</ele>
        <time>2023-02-07T16:08:16Z</time>
      </trkpt>
      <trkpt lat="44.95149" lon="4.1044">
        <ele>1200.6</ele>
        <time>2023-02-07T16:08:16Z</time>
      </trkpt>
      <trkpt lat="44.95138" lon="4.10464">
        <ele>1201.4</ele>
        <time>2023-02-07T16:08:16Z</time>
      </trkpt>
      <trkpt lat="44.9508" lon="4.10728">
        <ele>1206.9</ele>
        <time>2023-02-07T16:08:16Z</time>
      </trkpt>
      <trkpt lat="44.95064" lon="4.10755">
        <ele>1205.6</ele>
        <time>2023-02-07T16:08:16Z</time>
      </trkpt>
      <trkpt lat="44.95021" lon="4.108">
        <ele>1202.4</ele>
        <time>2023-02-07T16:08:16Z</time>
      </trkpt>
      <trkpt lat="44.94983" lon="4.10821">
        <ele>1198.7</ele>
        <time>2023-02-07T16:08:16Z</time>
      </trkpt>
      <trkpt lat="44.94958" lon="4.10825">
        <ele>1196</ele>
        <time>2023-02-07T16:08:16Z</time>
      </trkpt>
      <trkpt lat="44.94932" lon="4.10819">
        <ele>1192.2</ele>
        <time>2023-02-07T16:08:16Z</time>
      </trkpt>
      <trkpt lat="44.9487" lon="4.10791">
        <ele>1183.6</ele>
        <time>2023-02-07T16:08:16Z</time>
      </trkpt>
      <trkpt lat="44.94818" lon="4.10788">
        <ele>1176.5</ele>
        <time>2023-02-07T16:08:16Z</time>
      </trkpt>
      <trkpt lat="44.94756" lon="4.10811">
        <ele>1171.2</ele>
        <time>2023-02-07T16:08:16Z</time>
      </trkpt>
      <trkpt lat="44.94728" lon="4.1083">
        <ele>1169.5</ele>
        <time>2023-02-07T16:08:16Z</time>
      </trkpt>
      <trkpt lat="44.9472" lon="4.10838">
        <ele>1168.9</ele>
        <time>2023-02-07T16:08:16Z</time>
      </trkpt>
      <trkpt lat="44.94655" lon="4.10964">
        <ele>1161.4</ele>
        <time>2023-02-07T16:08:16Z</time>
      </trkpt>
      <trkpt lat="44.94548" lon="4.11105">
        <ele>1154.7</ele>
        <time>2023-02-07T16:08:16Z</time>
      </trkpt>
      <trkpt lat="44.94488" lon="4.11212">
        <ele>1150.2</ele>
        <time>2023-02-07T16:08:16Z</time>
      </trkpt>
      <trkpt lat="44.9443" lon="4.11279">
        <ele>1145.4</ele>
        <time>2023-02-07T16:08:16Z</time>
      </trkpt>
      <trkpt lat="44.94425" lon="4.11291">
        <ele>1144.6</ele>
        <time>2023-02-07T16:08:16Z</time>
      </trkpt>
      <trkpt lat="44.94422" lon="4.11306">
        <ele>1143.6</ele>
        <time>2023-02-07T16:08:16Z</time>
      </trkpt>
      <trkpt lat="44.94426" lon="4.11344">
        <ele>1142.2</ele>
        <time>2023-02-07T16:08:16Z</time>
      </trkpt>
      <trkpt lat="44.94439" lon="4.11399">
        <ele>1140.7</ele>
        <time>2023-02-07T16:08:16Z</time>
      </trkpt>
      <trkpt lat="44.9446" lon="4.11581">
        <ele>1137</ele>
        <time>2023-02-07T16:08:16Z</time>
      </trkpt>
      <trkpt lat="44.94456" lon="4.11636">
        <ele>1142.5</ele>
        <time>2023-02-07T16:08:16Z</time>
      </trkpt>
      <trkpt lat="44.94465" lon="4.11637">
        <ele>1143.3</ele>
        <time>2023-02-07T16:08:16Z</time>
      </trkpt>
      <trkpt lat="44.94472" lon="4.11629">
        <ele>1143.6</ele>
        <time>2023-02-07T16:08:16Z</time>
      </trkpt>
      <trkpt lat="44.94412" lon="4.11816">
        <ele>1158.2</ele>
        <time>2023-02-07T16:08:16Z</time>
      </trkpt>
      <trkpt lat="44.94424" lon="4.12039">
        <ele>1174.8</ele>
        <time>2023-02-07T16:08:16Z</time>
      </trkpt>
      <trkpt lat="44.94582" lon="4.12026">
        <ele>1182.6</ele>
        <time>2023-02-07T16:08:16Z</time>
      </trkpt>
      <trkpt lat="44.94704" lon="4.11967">
        <ele>1180.2</ele>
        <time>2023-02-07T16:08:16Z</time>
      </trkpt>
      <trkpt lat="44.94895" lon="4.11865">
        <ele>1185.4</ele>
        <time>2023-02-07T16:08:16Z</time>
      </trkpt>
      <trkpt lat="44.94909" lon="4.11862">
        <ele>1186.3</ele>
        <time>2023-02-07T16:08:16Z</time>
      </trkpt>
      <trkpt lat="44.94949" lon="4.11873">
        <ele>1188.4</ele>
        <time>2023-02-07T16:08:16Z</time>
      </trkpt>
      <trkpt lat="44.9498" lon="4.119">
        <ele>1190.4</ele>
        <time>2023-02-07T16:08:16Z</time>
      </trkpt>
      <trkpt lat="44.95002" lon="4.1194">
        <ele>1190.6</ele>
        <time>2023-02-07T16:08:16Z</time>
      </trkpt>
      <trkpt lat="44.95103" lon="4.12337">
        <ele>1196.8</ele>
        <time>2023-02-07T16:08:16Z</time>
      </trkpt>
      <trkpt lat="44.95114" lon="4.12357">
        <ele>1196.4</ele>
        <time>2023-02-07T16:08:16Z</time>
      </trkpt>
      <trkpt lat="44.95132" lon="4.12373">
        <ele>1195.6</ele>
        <time>2023-02-07T16:08:16Z</time>
      </trkpt>
      <trkpt lat="44.95149" lon="4.1238">
        <ele>1194.7</ele>
        <time>2023-02-07T16:08:16Z</time>
      </trkpt>
      <trkpt lat="44.95302" lon="4.12377">
        <ele>1202.2</ele>
        <time>2023-02-07T16:08:16Z</time>
      </trkpt>
      <trkpt lat="44.95335" lon="4.1237">
        <ele>1204.1</ele>
        <time>2023-02-07T16:08:16Z</time>
      </trkpt>
      <trkpt lat="44.95345" lon="4.12375">
        <ele>1205.2</ele>
        <time>2023-02-07T16:08:16Z</time>
      </trkpt>
      <trkpt lat="44.95352" lon="4.12384">
        <ele>1206.3</ele>
        <time>2023-02-07T16:08:16Z</time>
      </trkpt>
      <trkpt lat="44.95351" lon="4.12425">
        <ele>1209.5</ele>
        <time>2023-02-07T16:08:16Z</time>
      </trkpt>
      <trkpt lat="44.95313" lon="4.12607">
        <ele>1215.7</ele>
        <time>2023-02-07T16:08:16Z</time>
      </trkpt>
      <trkpt lat="44.95246" lon="4.12757">
        <ele>1231.8</ele>
        <time>2023-02-07T16:08:16Z</time>
      </trkpt>
      <trkpt lat="44.95245" lon="4.12773">
        <ele>1233.4</ele>
        <time>2023-02-07T16:08:16Z</time>
      </trkpt>
      <trkpt lat="44.9526" lon="4.12864">
        <ele>1238.5</ele>
        <time>2023-02-07T16:08:16Z</time>
      </trkpt>
      <trkpt lat="44.95285" lon="4.12939">
        <ele>1240.3</ele>
        <time>2023-02-07T16:08:16Z</time>
      </trkpt>
      <trkpt lat="44.95377" lon="4.13179">
        <ele>1238.9</ele>
        <time>2023-02-07T16:08:16Z</time>
      </trkpt>
      <trkpt lat="44.95434" lon="4.13399">
        <ele>1238.3</ele>
        <time>2023-02-07T16:08:16Z</time>
      </trkpt>
      <trkpt lat="44.95514" lon="4.13521">
        <ele>1236.8</ele>
        <time>2023-02-07T16:08:16Z</time>
      </trkpt>
      <trkpt lat="44.95584" lon="4.13611">
        <ele>1233.9</ele>
        <time>2023-02-07T16:08:16Z</time>
      </trkpt>
      <trkpt lat="44.95617" lon="4.13627">
        <ele>1232.4</ele>
        <time>2023-02-07T16:08:16Z</time>
      </trkpt>
      <trkpt lat="44.9569" lon="4.13619">
        <ele>1238.7</ele>
        <time>2023-02-07T16:08:16Z</time>
      </trkpt>
      <trkpt lat="44.95733" lon="4.13634">
        <ele>1242.1</ele>
        <time>2023-02-07T16:08:16Z</time>
      </trkpt>
      <trkpt lat="44.958" lon="4.13699">
        <ele>1246.5</ele>
        <time>2023-02-07T16:08:16Z</time>
      </trkpt>
      <trkpt lat="44.95873" lon="4.13786">
        <ele>1247.1</ele>
        <time>2023-02-07T16:08:16Z</time>
      </trkpt>
      <trkpt lat="44.9599" lon="4.13833">
        <ele>1250.7</ele>
        <time>2023-02-07T16:08:16Z</time>
      </trkpt>
      <trkpt lat="44.9604" lon="4.13835">
        <ele>1251.4</ele>
        <time>2023-02-07T16:08:16Z</time>
      </trkpt>
      <trkpt lat="44.96049" lon="4.13832">
        <ele>1251.8</ele>
        <time>2023-02-07T16:08:16Z</time>
      </trkpt>
      <trkpt lat="44.96053" lon="4.13842">
        <ele>1251.6</ele>
        <time>2023-02-07T16:08:16Z</time>
      </trkpt>
      <trkpt lat="44.96084" lon="4.14018">
        <ele>1252.6</ele>
        <time>2023-02-07T16:08:16Z</time>
      </trkpt>
      <trkpt lat="44.96182" lon="4.1419">
        <ele>1253.8</ele>
        <time>2023-02-07T16:08:16Z</time>
      </trkpt>
      <trkpt lat="44.96208" lon="4.14222">
        <ele>1253</ele>
        <time>2023-02-07T16:08:16Z</time>
      </trkpt>
      <trkpt lat="44.96222" lon="4.14247">
        <ele>1252.9</ele>
        <time>2023-02-07T16:08:16Z</time>
      </trkpt>
      <trkpt lat="44.96233" lon="4.1426">
        <ele>1252.6</ele>
        <time>2023-02-07T16:08:16Z</time>
      </trkpt>
      <trkpt lat="44.96247" lon="4.14266">
        <ele>1251.8</ele>
        <time>2023-02-07T16:08:16Z</time>
      </trkpt>
      <trkpt lat="44.9626" lon="4.14268">
        <ele>1251.3</ele>
        <time>2023-02-07T16:08:16Z</time>
      </trkpt>
      <trkpt lat="44.9635" lon="4.14243">
        <ele>1248.2</ele>
        <time>2023-02-07T16:08:16Z</time>
      </trkpt>
      <trkpt lat="44.96386" lon="4.14254">
        <ele>1248.2</ele>
        <time>2023-02-07T16:08:16Z</time>
      </trkpt>
      <trkpt lat="44.96426" lon="4.14252">
        <ele>1249.4</ele>
        <time>2023-02-07T16:08:16Z</time>
      </trkpt>
      <trkpt lat="44.96479" lon="4.14231">
        <ele>1249.4</ele>
        <time>2023-02-07T16:08:16Z</time>
      </trkpt>
      <trkpt lat="44.97073" lon="4.14237">
        <ele>1240</ele>
        <time>2023-02-07T16:08:16Z</time>
      </trkpt>
      <trkpt lat="44.97118" lon="4.14247">
        <ele>1236.4</ele>
        <time>2023-02-07T16:08:16Z</time>
      </trkpt>
      <trkpt lat="44.97155" lon="4.14238">
        <ele>1232.1</ele>
        <time>2023-02-07T16:08:16Z</time>
      </trkpt>
      <trkpt lat="44.97276" lon="4.14182">
        <ele>1224</ele>
        <time>2023-02-07T16:08:16Z</time>
      </trkpt>
      <trkpt lat="44.97481" lon="4.14167">
        <ele>1219</ele>
        <time>2023-02-07T16:08:16Z</time>
      </trkpt>
      <trkpt lat="44.97517" lon="4.14146">
        <ele>1221.2</ele>
        <time>2023-02-07T16:08:16Z</time>
      </trkpt>
      <trkpt lat="44.97609" lon="4.14253">
        <ele>1212.2</ele>
        <time>2023-02-07T16:08:16Z</time>
      </trkpt>
      <trkpt lat="44.97625" lon="4.14289">
        <ele>1208.8</ele>
        <time>2023-02-07T16:08:16Z</time>
      </trkpt>
      <trkpt lat="44.97627" lon="4.14301">
        <ele>1207.7</ele>
        <time>2023-02-07T16:08:16Z</time>
      </trkpt>
      <trkpt lat="44.97624" lon="4.14315">
        <ele>1206.3</ele>
        <time>2023-02-07T16:08:16Z</time>
      </trkpt>
      <trkpt lat="44.97574" lon="4.14387">
        <ele>1200.2</ele>
        <time>2023-02-07T16:08:16Z</time>
      </trkpt>
      <trkpt lat="44.97524" lon="4.14339">
        <ele>1201.6</ele>
        <time>2023-02-07T16:08:16Z</time>
      </trkpt>
      <trkpt lat="44.97524" lon="4.14339">
        <ele>1201.6</ele>
        <time>2023-02-07T16:08:16Z</time>
      </trkpt>
      <trkpt lat="44.97561" lon="4.14371">
        <ele>1201.5</ele>
        <time>2023-02-07T16:08:16Z</time>
      </trkpt>
      <trkpt lat="44.97572" lon="4.14389">
        <ele>1199.8</ele>
        <time>2023-02-07T16:08:16Z</time>
      </trkpt>
      <trkpt lat="44.97543" lon="4.14428">
        <ele>1201.7</ele>
        <time>2023-02-07T16:08:16Z</time>
      </trkpt>
      <trkpt lat="44.9757" lon="4.14542">
        <ele>1207.2</ele>
        <time>2023-02-07T16:08:16Z</time>
      </trkpt>
      <trkpt lat="44.97556" lon="4.14607">
        <ele>1218.3</ele>
        <time>2023-02-07T16:08:16Z</time>
      </trkpt>
      <trkpt lat="44.97549" lon="4.14616">
        <ele>1220.2</ele>
        <time>2023-02-07T16:08:16Z</time>
      </trkpt>
      <trkpt lat="44.97547" lon="4.14635">
        <ele>1224.8</ele>
        <time>2023-02-07T16:08:16Z</time>
      </trkpt>
      <trkpt lat="44.97553" lon="4.14757">
        <ele>1236.4</ele>
        <time>2023-02-07T16:08:16Z</time>
      </trkpt>
      <trkpt lat="44.97491" lon="4.15099">
        <ele>1248.6</ele>
        <time>2023-02-07T16:08:16Z</time>
      </trkpt>
      <trkpt lat="44.97483" lon="4.15124">
        <ele>1249</ele>
        <time>2023-02-07T16:08:16Z</time>
      </trkpt>
      <trkpt lat="44.97477" lon="4.15136">
        <ele>1249</ele>
        <time>2023-02-07T16:08:16Z</time>
      </trkpt>
      <trkpt lat="44.97449" lon="4.15533">
        <ele>1248.3</ele>
        <time>2023-02-07T16:08:16Z</time>
      </trkpt>
      <trkpt lat="44.97457" lon="4.15556">
        <ele>1249</ele>
        <time>2023-02-07T16:08:16Z</time>
      </trkpt>
      <trkpt lat="44.97503" lon="4.15594">
        <ele>1250.4</ele>
        <time>2023-02-07T16:08:16Z</time>
      </trkpt>
      <trkpt lat="44.97508" lon="4.15604">
        <ele>1250.7</ele>
        <time>2023-02-07T16:08:16Z</time>
      </trkpt>
      <trkpt lat="44.97516" lon="4.15738">
        <ele>1255.9</ele>
        <time>2023-02-07T16:08:16Z</time>
      </trkpt>
      <trkpt lat="44.9753" lon="4.15758">
        <ele>1257.4</ele>
        <time>2023-02-07T16:08:16Z</time>
      </trkpt>
      <trkpt lat="44.97536" lon="4.15901">
        <ele>1265.1</ele>
        <time>2023-02-07T16:08:16Z</time>
      </trkpt>
      <trkpt lat="44.97536" lon="4.15901">
        <ele>1265</ele>
        <time>2023-02-07T16:08:16Z</time>
      </trkpt>
      <trkpt lat="44.97529" lon="4.15916">
        <ele>1265.9</ele>
        <time>2023-02-07T16:08:16Z</time>
      </trkpt>
      <trkpt lat="44.97525" lon="4.15936">
        <ele>1266.6</ele>
        <time>2023-02-07T16:08:16Z</time>
      </trkpt>
      <trkpt lat="44.97525" lon="4.15992">
        <ele>1271.1</ele>
        <time>2023-02-07T16:08:16Z</time>
      </trkpt>
      <trkpt lat="44.97537" lon="4.16139">
        <ele>1282.3</ele>
        <time>2023-02-07T16:08:16Z</time>
      </trkpt>
      <trkpt lat="44.97535" lon="4.16181">
        <ele>1284.5</ele>
        <time>2023-02-07T16:08:16Z</time>
      </trkpt>
      <trkpt lat="44.97536" lon="4.16194">
        <ele>1285</ele>
        <time>2023-02-07T16:08:16Z</time>
      </trkpt>
      <trkpt lat="44.97542" lon="4.16202">
        <ele>1285.3</ele>
        <time>2023-02-07T16:08:16Z</time>
      </trkpt>
      <trkpt lat="44.97657" lon="4.16125">
        <ele>1284.8</ele>
        <time>2023-02-07T16:08:16Z</time>
      </trkpt>
      <trkpt lat="44.97657" lon="4.16144">
        <ele>1285</ele>
        <time>2023-02-07T16:08:16Z</time>
      </trkpt>
      <trkpt lat="44.97593" lon="4.16598">
        <ele>1287.6</ele>
        <time>2023-02-07T16:08:16Z</time>
      </trkpt>
      <trkpt lat="44.97568" lon="4.1664">
        <ele>1288.1</ele>
        <time>2023-02-07T16:08:16Z</time>
      </trkpt>
      <trkpt lat="44.97559" lon="4.16647">
        <ele>1288.5</ele>
        <time>2023-02-07T16:08:16Z</time>
      </trkpt>
      <trkpt lat="44.97535" lon="4.16638">
        <ele>1289.8</ele>
        <time>2023-02-07T16:08:16Z</time>
      </trkpt>
      <trkpt lat="44.97442" lon="4.16682">
        <ele>1289.9</ele>
        <time>2023-02-07T16:08:16Z</time>
      </trkpt>
      <trkpt lat="44.97435" lon="4.16702">
        <ele>1289</ele>
        <time>2023-02-07T16:08:16Z</time>
      </trkpt>
      <trkpt lat="44.97468" lon="4.1688">
        <ele>1281.2</ele>
        <time>2023-02-07T16:08:16Z</time>
      </trkpt>
      <trkpt lat="44.97529" lon="4.16863">
        <ele>1275.8</ele>
        <time>2023-02-07T16:08:16Z</time>
      </trkpt>
      <trkpt lat="44.97576" lon="4.1687">
        <ele>1272</ele>
        <time>2023-02-07T16:08:16Z</time>
      </trkpt>
      <trkpt lat="44.97601" lon="4.1688">
        <ele>1268.5</ele>
        <time>2023-02-07T16:08:16Z</time>
      </trkpt>
      <trkpt lat="44.97617" lon="4.16892">
        <ele>1266.4</ele>
        <time>2023-02-07T16:08:16Z</time>
      </trkpt>
      <trkpt lat="44.97624" lon="4.16904">
        <ele>1265.4</ele>
        <time>2023-02-07T16:08:16Z</time>
      </trkpt>
      <trkpt lat="44.9763" lon="4.16922">
        <ele>1264.1</ele>
        <time>2023-02-07T16:08:16Z</time>
      </trkpt>
      <trkpt lat="44.97641" lon="4.16982">
        <ele>1261.7</ele>
        <time>2023-02-07T16:08:16Z</time>
      </trkpt>
      <trkpt lat="44.97668" lon="4.17034">
        <ele>1258.2</ele>
        <time>2023-02-07T16:08:16Z</time>
      </trkpt>
      <trkpt lat="44.97722" lon="4.17091">
        <ele>1253.4</ele>
        <time>2023-02-07T16:08:16Z</time>
      </trkpt>
      <trkpt lat="44.97827" lon="4.17183">
        <ele>1244.3</ele>
        <time>2023-02-07T16:08:16Z</time>
      </trkpt>
      <trkpt lat="44.97843" lon="4.1719">
        <ele>1242.7</ele>
        <time>2023-02-07T16:08:16Z</time>
      </trkpt>
      <trkpt lat="44.97864" lon="4.17193">
        <ele>1240.6</ele>
        <time>2023-02-07T16:08:16Z</time>
      </trkpt>
      <trkpt lat="44.97876" lon="4.17189">
        <ele>1239.3</ele>
        <time>2023-02-07T16:08:16Z</time>
      </trkpt>
      <trkpt lat="44.97893" lon="4.1719">
        <ele>1237.8</ele>
        <time>2023-02-07T16:08:16Z</time>
      </trkpt>
      <trkpt lat="44.97897" lon="4.172">
        <ele>1237.8</ele>
        <time>2023-02-07T16:08:16Z</time>
      </trkpt>
      <trkpt lat="44.97902" lon="4.17265">
        <ele>1238.5</ele>
        <time>2023-02-07T16:08:16Z</time>
      </trkpt>
      <trkpt lat="44.97953" lon="4.17362">
        <ele>1238.7</ele>
        <time>2023-02-07T16:08:16Z</time>
      </trkpt>
      <trkpt lat="44.97982" lon="4.17446">
        <ele>1241.4</ele>
        <time>2023-02-07T16:08:16Z</time>
      </trkpt>
      <trkpt lat="44.97982" lon="4.17456">
        <ele>1242.3</ele>
        <time>2023-02-07T16:08:16Z</time>
      </trkpt>
      <trkpt lat="44.97965" lon="4.17493">
        <ele>1245.8</ele>
        <time>2023-02-07T16:08:16Z</time>
      </trkpt>
      <trkpt lat="44.97943" lon="4.17539">
        <ele>1249.9</ele>
        <time>2023-02-07T16:08:16Z</time>
      </trkpt>
      <trkpt lat="44.97907" lon="4.17666">
        <ele>1260.9</ele>
        <time>2023-02-07T16:08:16Z</time>
      </trkpt>
      <trkpt lat="44.979" lon="4.17878">
        <ele>1278.6</ele>
        <time>2023-02-07T16:08:16Z</time>
      </trkpt>
      <trkpt lat="44.97901" lon="4.17892">
        <ele>1280.1</ele>
        <time>2023-02-07T16:08:16Z</time>
      </trkpt>
      <trkpt lat="44.97901" lon="4.17892">
        <ele>1280.1</ele>
        <time>2023-02-07T16:08:16Z</time>
      </trkpt>
      <trkpt lat="44.97908" lon="4.179">
        <ele>1281.2</ele>
        <time>2023-02-07T16:08:16Z</time>
      </trkpt>
      <trkpt lat="44.97922" lon="4.17922">
        <ele>1283.7</ele>
        <time>2023-02-07T16:08:16Z</time>
      </trkpt>
      <trkpt lat="44.97928" lon="4.17928">
        <ele>1284.6</ele>
        <time>2023-02-07T16:08:16Z</time>
      </trkpt>
      <trkpt lat="44.9797" lon="4.18005">
        <ele>1293.8</ele>
        <time>2023-02-07T16:08:16Z</time>
      </trkpt>
      <trkpt lat="44.97995" lon="4.18139">
        <ele>1301.3</ele>
        <time>2023-02-07T16:08:16Z</time>
      </trkpt>
      <trkpt lat="44.98075" lon="4.18244">
        <ele>1311.8</ele>
        <time>2023-02-07T16:08:16Z</time>
      </trkpt>
      <trkpt lat="44.98089" lon="4.18254">
        <ele>1314</ele>
        <time>2023-02-07T16:08:16Z</time>
      </trkpt>
      <trkpt lat="44.98102" lon="4.18272">
        <ele>1315.8</ele>
        <time>2023-02-07T16:08:16Z</time>
      </trkpt>
      <trkpt lat="44.98113" lon="4.18294">
        <ele>1316.6</ele>
        <time>2023-02-07T16:08:16Z</time>
      </trkpt>
      <trkpt lat="44.98119" lon="4.18301">
        <ele>1317.3</ele>
        <time>2023-02-07T16:08:16Z</time>
      </trkpt>
      <trkpt lat="44.98157" lon="4.18324">
        <ele>1321.9</ele>
        <time>2023-02-07T16:08:16Z</time>
      </trkpt>
      <trkpt lat="44.98184" lon="4.18351">
        <ele>1325.1</ele>
        <time>2023-02-07T16:08:16Z</time>
      </trkpt>
      <trkpt lat="44.98229" lon="4.18374">
        <ele>1330.2</ele>
        <time>2023-02-07T16:08:16Z</time>
      </trkpt>
      <trkpt lat="44.98545" lon="4.18425">
        <ele>1341</ele>
        <time>2023-02-07T16:08:16Z</time>
      </trkpt>
      <trkpt lat="44.98582" lon="4.18453">
        <ele>1341.1</ele>
        <time>2023-02-07T16:08:16Z</time>
      </trkpt>
      <trkpt lat="44.98774" lon="4.18629">
        <ele>1340.8</ele>
        <time>2023-02-07T16:08:16Z</time>
      </trkpt>
      <trkpt lat="44.98787" lon="4.18635">
        <ele>1340.9</ele>
        <time>2023-02-07T16:08:16Z</time>
      </trkpt>
      <trkpt lat="44.98812" lon="4.18635">
        <ele>1341</ele>
        <time>2023-02-07T16:08:16Z</time>
      </trkpt>
      <trkpt lat="44.98898" lon="4.18597">
        <ele>1341.6</ele>
        <time>2023-02-07T16:08:16Z</time>
      </trkpt>
      <trkpt lat="44.98987" lon="4.18534">
        <ele>1341.1</ele>
        <time>2023-02-07T16:08:16Z</time>
      </trkpt>
      <trkpt lat="44.99007" lon="4.18513">
        <ele>1339.6</ele>
        <time>2023-02-07T16:08:16Z</time>
      </trkpt>
      <trkpt lat="44.99032" lon="4.18503">
        <ele>1339.1</ele>
        <time>2023-02-07T16:08:16Z</time>
      </trkpt>
      <trkpt lat="44.99079" lon="4.18503">
        <ele>1338.3</ele>
        <time>2023-02-07T16:08:16Z</time>
      </trkpt>
      <trkpt lat="44.99076" lon="4.18494">
        <ele>1337.5</ele>
        <time>2023-02-07T16:08:16Z</time>
      </trkpt>
      <trkpt lat="44.99139" lon="4.1846">
        <ele>1334.7</ele>
        <time>2023-02-07T16:08:16Z</time>
      </trkpt>
      <trkpt lat="44.99156" lon="4.18446">
        <ele>1332</ele>
        <time>2023-02-07T16:08:16Z</time>
      </trkpt>
      <trkpt lat="44.99187" lon="4.18399">
        <ele>1327.3</ele>
        <time>2023-02-07T16:08:16Z</time>
      </trkpt>
      <trkpt lat="44.993" lon="4.18353">
        <ele>1318.6</ele>
        <time>2023-02-07T16:08:16Z</time>
      </trkpt>
      <trkpt lat="44.99305" lon="4.1834">
        <ele>1317.5</ele>
        <time>2023-02-07T16:08:16Z</time>
      </trkpt>
      <trkpt lat="44.99309" lon="4.18304">
        <ele>1314.8</ele>
        <time>2023-02-07T16:08:16Z</time>
      </trkpt>
      <trkpt lat="44.99309" lon="4.18304">
        <ele>1314.8</ele>
        <time>2023-02-07T16:08:16Z</time>
      </trkpt>
      <trkpt lat="44.99305" lon="4.1834">
        <ele>1317.5</ele>
        <time>2023-02-07T16:08:16Z</time>
      </trkpt>
      <trkpt lat="44.993" lon="4.18353">
        <ele>1318.6</ele>
        <time>2023-02-07T16:08:16Z</time>
      </trkpt>
      <trkpt lat="44.99345" lon="4.18107">
        <ele>1303.3</ele>
        <time>2023-02-07T16:08:16Z</time>
      </trkpt>
      <trkpt lat="44.99279" lon="4.17794">
        <ele>1295.1</ele>
        <time>2023-02-07T16:08:16Z</time>
      </trkpt>
      <trkpt lat="44.99309" lon="4.17605">
        <ele>1291.1</ele>
        <time>2023-02-07T16:08:16Z</time>
      </trkpt>
      <trkpt lat="44.99373" lon="4.17326">
        <ele>1287.7</ele>
        <time>2023-02-07T16:08:16Z</time>
      </trkpt>
      <trkpt lat="44.99521" lon="4.17227">
        <ele>1281.8</ele>
        <time>2023-02-07T16:08:16Z</time>
      </trkpt>
      <trkpt lat="44.99512" lon="4.17129">
        <ele>1274.8</ele>
        <time>2023-02-07T16:08:16Z</time>
      </trkpt>
      <trkpt lat="44.99552" lon="4.16944">
        <ele>1265</ele>
        <time>2023-02-07T16:08:16Z</time>
      </trkpt>
      <trkpt lat="44.99509" lon="4.16468">
        <ele>1267.5</ele>
        <time>2023-02-07T16:08:16Z</time>
      </trkpt>
      <trkpt lat="44.99567" lon="4.16408">
        <ele>1272.5</ele>
        <time>2023-02-07T16:08:16Z</time>
      </trkpt>
      <trkpt lat="44.99555" lon="4.16283">
        <ele>1275.8</ele>
        <time>2023-02-07T16:08:16Z</time>
      </trkpt>
      <trkpt lat="44.99713" lon="4.16214">
        <ele>1278.4</ele>
        <time>2023-02-07T16:08:16Z</time>
      </trkpt>
      <trkpt lat="44.99816" lon="4.1606">
        <ele>1281</ele>
        <time>2023-02-07T16:08:16Z</time>
      </trkpt>
      <trkpt lat="44.99922" lon="4.1606">
        <ele>1281.9</ele>
        <time>2023-02-07T16:08:16Z</time>
      </trkpt>
      <trkpt lat="45.00049" lon="4.16043">
        <ele>1285.8</ele>
        <time>2023-02-07T16:08:16Z</time>
      </trkpt>
      <trkpt lat="45.0015" lon="4.16099">
        <ele>1289.4</ele>
        <time>2023-02-07T16:08:16Z</time>
      </trkpt>
      <trkpt lat="45.00358" lon="4.16032">
        <ele>1291.9</ele>
        <time>2023-02-07T16:08:16Z</time>
      </trkpt>
      <trkpt lat="45.00364" lon="4.16021">
        <ele>1292.3</ele>
        <time>2023-02-07T16:08:16Z</time>
      </trkpt>
      <trkpt lat="45.00372" lon="4.15974">
        <ele>1292.6</ele>
        <time>2023-02-07T16:08:16Z</time>
      </trkpt>
      <trkpt lat="45.00377" lon="4.15936">
        <ele>1291.1</ele>
        <time>2023-02-07T16:08:16Z</time>
      </trkpt>
      <trkpt lat="45.004" lon="4.15809">
        <ele>1283.8</ele>
        <time>2023-02-07T16:08:16Z</time>
      </trkpt>
      <trkpt lat="45.00421" lon="4.15696">
        <ele>1275.5</ele>
        <time>2023-02-07T16:08:16Z</time>
      </trkpt>
      <trkpt lat="45.00433" lon="4.15657">
        <ele>1274.6</ele>
        <time>2023-02-07T16:08:16Z</time>
      </trkpt>
      <trkpt lat="45.00441" lon="4.15614">
        <ele>1272.9</ele>
        <time>2023-02-07T16:08:16Z</time>
      </trkpt>
      <trkpt lat="45.00447" lon="4.15604">
        <ele>1273</ele>
        <time>2023-02-07T16:08:16Z</time>
      </trkpt>
      <trkpt lat="45.00513" lon="4.15313">
        <ele>1265.6</ele>
        <time>2023-02-07T16:08:16Z</time>
      </trkpt>
      <trkpt lat="45.00632" lon="4.14923">
        <ele>1247</ele>
        <time>2023-02-07T16:08:16Z</time>
      </trkpt>
      <trkpt lat="45.00632" lon="4.14923">
        <ele>1247</ele>
        <time>2023-02-07T16:08:16Z</time>
      </trkpt>
      <trkpt lat="45.00628" lon="4.14935">
        <ele>1247.3</ele>
        <time>2023-02-07T16:08:16Z</time>
      </trkpt>
      <trkpt lat="45.00638" lon="4.14931">
        <ele>1247.5</ele>
        <time>2023-02-07T16:08:16Z</time>
      </trkpt>
      <trkpt lat="45.00666" lon="4.14907">
        <ele>1246.7</ele>
        <time>2023-02-07T16:08:16Z</time>
      </trkpt>
      <trkpt lat="45.00676" lon="4.14905">
        <ele>1246.3</ele>
        <time>2023-02-07T16:08:16Z</time>
      </trkpt>
      <trkpt lat="45.00756" lon="4.14931">
        <ele>1246</ele>
        <time>2023-02-07T16:08:16Z</time>
      </trkpt>
      <trkpt lat="45.00779" lon="4.1495">
        <ele>1247.2</ele>
        <time>2023-02-07T16:08:16Z</time>
      </trkpt>
      <trkpt lat="45.01114" lon="4.15086">
        <ele>1281</ele>
        <time>2023-02-07T16:08:16Z</time>
      </trkpt>
      <trkpt lat="45.01166" lon="4.15083">
        <ele>1282</ele>
        <time>2023-02-07T16:08:16Z</time>
      </trkpt>
      <trkpt lat="45.01189" lon="4.15076">
        <ele>1282.2</ele>
        <time>2023-02-07T16:08:16Z</time>
      </trkpt>
      <trkpt lat="45.01423" lon="4.15052">
        <ele>1282.3</ele>
        <time>2023-02-07T16:08:16Z</time>
      </trkpt>
      <trkpt lat="45.01442" lon="4.15047">
        <ele>1282.6</ele>
        <time>2023-02-07T16:08:16Z</time>
      </trkpt>
      <trkpt lat="45.01533" lon="4.15029">
        <ele>1282.8</ele>
        <time>2023-02-07T16:08:16Z</time>
      </trkpt>
      <trkpt lat="45.01612" lon="4.15005">
        <ele>1281.2</ele>
        <time>2023-02-07T16:08:16Z</time>
      </trkpt>
      <trkpt lat="45.01619" lon="4.15011">
        <ele>1281.6</ele>
        <time>2023-02-07T16:08:16Z</time>
      </trkpt>
      <trkpt lat="45.01638" lon="4.15037">
        <ele>1281.7</ele>
        <time>2023-02-07T16:08:16Z</time>
      </trkpt>
      <trkpt lat="45.0165" lon="4.15041">
        <ele>1281.7</ele>
        <time>2023-02-07T16:08:16Z</time>
      </trkpt>
      <trkpt lat="45.01979" lon="4.15592">
        <ele>1265.8</ele>
        <time>2023-02-07T16:08:16Z</time>
      </trkpt>
      <trkpt lat="45.01979" lon="4.15592">
        <ele>1265.8</ele>
        <time>2023-02-07T16:08:16Z</time>
      </trkpt>
      <trkpt lat="45.02002" lon="4.1564">
        <ele>1263.9</ele>
        <time>2023-02-07T16:08:16Z</time>
      </trkpt>
      <trkpt lat="45.02111" lon="4.15468">
        <ele>1265.2</ele>
        <time>2023-02-07T16:08:16Z</time>
      </trkpt>
      <trkpt lat="45.02258" lon="4.15131">
        <ele>1284.3</ele>
        <time>2023-02-07T16:08:16Z</time>
      </trkpt>
      <trkpt lat="45.02261" lon="4.15113">
        <ele>1286.2</ele>
        <time>2023-02-07T16:08:16Z</time>
      </trkpt>
      <trkpt lat="45.02269" lon="4.15088">
        <ele>1287.8</ele>
        <time>2023-02-07T16:08:16Z</time>
      </trkpt>
      <trkpt lat="45.02347" lon="4.14973">
        <ele>1291</ele>
        <time>2023-02-07T16:08:16Z</time>
      </trkpt>
      <trkpt lat="45.02429" lon="4.14871">
        <ele>1292.8</ele>
        <time>2023-02-07T16:08:16Z</time>
      </trkpt>
      <trkpt lat="45.02476" lon="4.14844">
        <ele>1291.9</ele>
        <time>2023-02-07T16:08:16Z</time>
      </trkpt>
      <trkpt lat="45.02487" lon="4.14829">
        <ele>1291.5</ele>
        <time>2023-02-07T16:08:16Z</time>
      </trkpt>
      <trkpt lat="45.02498" lon="4.1482">
        <ele>1291.1</ele>
        <time>2023-02-07T16:08:16Z</time>
      </trkpt>
      <trkpt lat="45.02495" lon="4.14764">
        <ele>1291.3</ele>
        <time>2023-02-07T16:08:16Z</time>
      </trkpt>
      <trkpt lat="45.02485" lon="4.14711">
        <ele>1289.9</ele>
        <time>2023-02-07T16:08:16Z</time>
      </trkpt>
      <trkpt lat="45.02492" lon="4.1467">
        <ele>1287.5</ele>
        <time>2023-02-07T16:08:16Z</time>
      </trkpt>
      <trkpt lat="45.02515" lon="4.14643">
        <ele>1285.7</ele>
        <time>2023-02-07T16:08:16Z</time>
      </trkpt>
      <trkpt lat="45.0251" lon="4.14598">
        <ele>1282.7</ele>
        <time>2023-02-07T16:08:16Z</time>
      </trkpt>
      <trkpt lat="45.02518" lon="4.14597">
        <ele>1282.4</ele>
        <time>2023-02-07T16:08:16Z</time>
      </trkpt>
      <trkpt lat="45.02533" lon="4.1455">
        <ele>1278.2</ele>
        <time>2023-02-07T16:08:16Z</time>
      </trkpt>
      <trkpt lat="45.02535" lon="4.14533">
        <ele>1277.1</ele>
        <time>2023-02-07T16:08:16Z</time>
      </trkpt>
      <trkpt lat="45.02532" lon="4.14521">
        <ele>1276.4</ele>
        <time>2023-02-07T16:08:16Z</time>
      </trkpt>
      <trkpt lat="45.02545" lon="4.14499">
        <ele>1274.3</ele>
        <time>2023-02-07T16:08:16Z</time>
      </trkpt>
      <trkpt lat="45.02546" lon="4.14471">
        <ele>1273.3</ele>
        <time>2023-02-07T16:08:16Z</time>
      </trkpt>
      <trkpt lat="45.02554" lon="4.14455">
        <ele>1271.9</ele>
        <time>2023-02-07T16:08:16Z</time>
      </trkpt>
      <trkpt lat="45.02597" lon="4.14393">
        <ele>1266.8</ele>
        <time>2023-02-07T16:08:16Z</time>
      </trkpt>
      <trkpt lat="45.02604" lon="4.14377">
        <ele>1265.5</ele>
        <time>2023-02-07T16:08:16Z</time>
      </trkpt>
      <trkpt lat="45.02614" lon="4.14363">
        <ele>1264</ele>
        <time>2023-02-07T16:08:16Z</time>
      </trkpt>
      <trkpt lat="45.02628" lon="4.14355">
        <ele>1263.2</ele>
        <time>2023-02-07T16:08:16Z</time>
      </trkpt>
      <trkpt lat="45.02643" lon="4.14352">
        <ele>1262.5</ele>
        <time>2023-02-07T16:08:16Z</time>
      </trkpt>
      <trkpt lat="45.02637" lon="4.14341">
        <ele>1262.4</ele>
        <time>2023-02-07T16:08:16Z</time>
      </trkpt>
      <trkpt lat="45.02577" lon="4.1415">
        <ele>1258.2</ele>
        <time>2023-02-07T16:08:16Z</time>
      </trkpt>
      <trkpt lat="45.02524" lon="4.13732">
        <ele>1252.1</ele>
        <time>2023-02-07T16:08:16Z</time>
      </trkpt>
      <trkpt lat="45.02525" lon="4.13716">
        <ele>1252.3</ele>
        <time>2023-02-07T16:08:16Z</time>
      </trkpt>
      <trkpt lat="45.02529" lon="4.13699">
        <ele>1252.7</ele>
        <time>2023-02-07T16:08:16Z</time>
      </trkpt>
      <trkpt lat="45.02534" lon="4.13689">
        <ele>1252.6</ele>
        <time>2023-02-07T16:08:16Z</time>
      </trkpt>
      <trkpt lat="45.02634" lon="4.13568">
        <ele>1248.5</ele>
        <time>2023-02-07T16:08:16Z</time>
      </trkpt>
      <trkpt lat="45.0272" lon="4.13374">
        <ele>1238.1</ele>
        <time>2023-02-07T16:08:16Z</time>
      </trkpt>
      <trkpt lat="45.02727" lon="4.1335">
        <ele>1235.5</ele>
        <time>2023-02-07T16:08:16Z</time>
      </trkpt>
      <trkpt lat="45.02727" lon="4.13319">
        <ele>1233.2</ele>
        <time>2023-02-07T16:08:16Z</time>
      </trkpt>
      <trkpt lat="45.02719" lon="4.13206">
        <ele>1223.1</ele>
        <time>2023-02-07T16:08:16Z</time>
      </trkpt>
      <trkpt lat="45.02719" lon="4.13206">
        <ele>1223.1</ele>
        <time>2023-02-07T16:08:16Z</time>
      </trkpt>
      <trkpt lat="45.0271" lon="4.13153">
        <ele>1216.9</ele>
        <time>2023-02-07T16:08:16Z</time>
      </trkpt>
      <trkpt lat="45.0271" lon="4.13136">
        <ele>1214.6</ele>
        <time>2023-02-07T16:08:16Z</time>
      </trkpt>
      <trkpt lat="45.0273" lon="4.13095">
        <ele>1210.4</ele>
        <time>2023-02-07T16:08:16Z</time>
      </trkpt>
      <trkpt lat="45.02744" lon="4.13073">
        <ele>1208.7</ele>
        <time>2023-02-07T16:08:16Z</time>
      </trkpt>
      <trkpt lat="45.02751" lon="4.13035">
        <ele>1205.6</ele>
        <time>2023-02-07T16:08:16Z</time>
      </trkpt>
      <trkpt lat="45.02754" lon="4.12998">
        <ele>1203.1</ele>
        <time>2023-02-07T16:08:16Z</time>
      </trkpt>
      <trkpt lat="45.02788" lon="4.12911">
        <ele>1196.4</ele>
        <time>2023-02-07T16:08:16Z</time>
      </trkpt>
      <trkpt lat="45.02813" lon="4.12881">
        <ele>1195.1</ele>
        <time>2023-02-07T16:08:16Z</time>
      </trkpt>
      <trkpt lat="45.02881" lon="4.12828">
        <ele>1190.2</ele>
        <time>2023-02-07T16:08:16Z</time>
      </trkpt>
      <trkpt lat="45.02897" lon="4.12798">
        <ele>1187.7</ele>
        <time>2023-02-07T16:08:16Z</time>
      </trkpt>
      <trkpt lat="45.02908" lon="4.12753">
        <ele>1184.3</ele>
        <time>2023-02-07T16:08:16Z</time>
      </trkpt>
      <trkpt lat="45.0291" lon="4.12713">
        <ele>1180.8</ele>
        <time>2023-02-07T16:08:16Z</time>
      </trkpt>
      <trkpt lat="45.02913" lon="4.127">
        <ele>1180.1</ele>
        <time>2023-02-07T16:08:16Z</time>
      </trkpt>
      <trkpt lat="45.02943" lon="4.12652">
        <ele>1178.4</ele>
        <time>2023-02-07T16:08:16Z</time>
      </trkpt>
      <trkpt lat="45.02939" lon="4.12636">
        <ele>1177.6</ele>
        <time>2023-02-07T16:08:16Z</time>
      </trkpt>
      <trkpt lat="45.02956" lon="4.12559">
        <ele>1179.7</ele>
        <time>2023-02-07T16:08:16Z</time>
      </trkpt>
      <trkpt lat="45.02955" lon="4.12543">
        <ele>1180.6</ele>
        <time>2023-02-07T16:08:16Z</time>
      </trkpt>
      <trkpt lat="45.0295" lon="4.12531">
        <ele>1181.2</ele>
        <time>2023-02-07T16:08:16Z</time>
      </trkpt>
      <trkpt lat="45.02911" lon="4.12493">
        <ele>1184</ele>
        <time>2023-02-07T16:08:16Z</time>
      </trkpt>
      <trkpt lat="45.02905" lon="4.1248">
        <ele>1185.4</ele>
        <time>2023-02-07T16:08:16Z</time>
      </trkpt>
      <trkpt lat="45.02893" lon="4.12401">
        <ele>1194.1</ele>
        <time>2023-02-07T16:08:16Z</time>
      </trkpt>
      <trkpt lat="45.02887" lon="4.12387">
        <ele>1194.3</ele>
        <time>2023-02-07T16:08:16Z</time>
      </trkpt>
      <trkpt lat="45.0286" lon="4.12367">
        <ele>1195.7</ele>
        <time>2023-02-07T16:08:16Z</time>
      </trkpt>
      <trkpt lat="45.02809" lon="4.1235">
        <ele>1192.5</ele>
        <time>2023-02-07T16:08:16Z</time>
      </trkpt>
      <trkpt lat="45.0278" lon="4.12242">
        <ele>1203.4</ele>
        <time>2023-02-07T16:08:16Z</time>
      </trkpt>
      <trkpt lat="45.02876" lon="4.12186">
        <ele>1207.8</ele>
        <time>2023-02-07T16:08:16Z</time>
      </trkpt>
      <trkpt lat="45.02948" lon="4.1215">
        <ele>1206.5</ele>
        <time>2023-02-07T16:08:16Z</time>
      </trkpt>
      <trkpt lat="45.03035" lon="4.12152">
        <ele>1208.9</ele>
        <time>2023-02-07T16:08:16Z</time>
      </trkpt>
      <trkpt lat="45.03094" lon="4.12189">
        <ele>1209.7</ele>
        <time>2023-02-07T16:08:16Z</time>
      </trkpt>
      <trkpt lat="45.03196" lon="4.12184">
        <ele>1213.8</ele>
        <time>2023-02-07T16:08:16Z</time>
      </trkpt>
      <trkpt lat="45.03278" lon="4.12279">
        <ele>1219.9</ele>
        <time>2023-02-07T16:08:16Z</time>
      </trkpt>
      <trkpt lat="45.03346" lon="4.12369">
        <ele>1223.8</ele>
        <time>2023-02-07T16:08:16Z</time>
      </trkpt>
      <trkpt lat="45.03346" lon="4.12369">
        <ele>1223.8</ele>
        <time>2023-02-07T16:08:16Z</time>
      </trkpt>
      <trkpt lat="45.03343" lon="4.12395">
        <ele>1223.2</ele>
        <time>2023-02-07T16:08:16Z</time>
      </trkpt>
      <trkpt lat="45.03344" lon="4.12414">
        <ele>1223.2</ele>
        <time>2023-02-07T16:08:16Z</time>
      </trkpt>
      <trkpt lat="45.03348" lon="4.12431">
        <ele>1223.4</ele>
        <time>2023-02-07T16:08:16Z</time>
      </trkpt>
      <trkpt lat="45.03368" lon="4.12468">
        <ele>1224.8</ele>
        <time>2023-02-07T16:08:16Z</time>
      </trkpt>
      <trkpt lat="45.03381" lon="4.12484">
        <ele>1226</ele>
        <time>2023-02-07T16:08:16Z</time>
      </trkpt>
      <trkpt lat="45.03414" lon="4.12489">
        <ele>1230.1</ele>
        <time>2023-02-07T16:08:16Z</time>
      </trkpt>
      <trkpt lat="45.03426" lon="4.12498">
        <ele>1231.1</ele>
        <time>2023-02-07T16:08:16Z</time>
      </trkpt>
      <trkpt lat="45.03454" lon="4.12544">
        <ele>1232.7</ele>
        <time>2023-02-07T16:08:16Z</time>
      </trkpt>
      <trkpt lat="45.03508" lon="4.126">
        <ele>1237.3</ele>
        <time>2023-02-07T16:08:16Z</time>
      </trkpt>
      <trkpt lat="45.03548" lon="4.1268">
        <ele>1239.3</ele>
        <time>2023-02-07T16:08:16Z</time>
      </trkpt>
      <trkpt lat="45.03591" lon="4.12716">
        <ele>1244</ele>
        <time>2023-02-07T16:08:16Z</time>
      </trkpt>
      <trkpt lat="45.03608" lon="4.12724">
        <ele>1245.6</ele>
        <time>2023-02-07T16:08:16Z</time>
      </trkpt>
      <trkpt lat="45.03662" lon="4.12785">
        <ele>1249.5</ele>
        <time>2023-02-07T16:08:16Z</time>
      </trkpt>
      <trkpt lat="45.03669" lon="4.12794">
        <ele>1250.1</ele>
        <time>2023-02-07T16:08:16Z</time>
      </trkpt>
      <trkpt lat="45.03669" lon="4.12794">
        <ele>1250.1</ele>
        <time>2023-02-07T16:08:16Z</time>
      </trkpt>
      <trkpt lat="45.03681" lon="4.12812">
        <ele>1250.6</ele>
        <time>2023-02-07T16:08:16Z</time>
      </trkpt>
      <trkpt lat="45.03691" lon="4.12815">
        <ele>1251.2</ele>
        <time>2023-02-07T16:08:16Z</time>
      </trkpt>
      <trkpt lat="45.03698" lon="4.12826">
        <ele>1252</ele>
        <time>2023-02-07T16:08:16Z</time>
      </trkpt>
      <trkpt lat="45.03707" lon="4.12847">
        <ele>1253.4</ele>
        <time>2023-02-07T16:08:16Z</time>
      </trkpt>
      <trkpt lat="45.03738" lon="4.12887">
        <ele>1257.7</ele>
        <time>2023-02-07T16:08:16Z</time>
      </trkpt>
      <trkpt lat="45.03747" lon="4.12893">
        <ele>1258.9</ele>
        <time>2023-02-07T16:08:16Z</time>
      </trkpt>
      <trkpt lat="45.03762" lon="4.12913">
        <ele>1261.7</ele>
        <time>2023-02-07T16:08:16Z</time>
      </trkpt>
      <trkpt lat="45.03857" lon="4.1299">
        <ele>1278.5</ele>
        <time>2023-02-07T16:08:16Z</time>
      </trkpt>
      <trkpt lat="45.03889" lon="4.12996">
        <ele>1284.3</ele>
        <time>2023-02-07T16:08:16Z</time>
      </trkpt>
      <trkpt lat="45.03889" lon="4.12996">
        <ele>1284.3</ele>
        <time>2023-02-07T16:08:16Z</time>
      </trkpt>
      <trkpt lat="45.03894" lon="4.12923">
        <ele>1290.1</ele>
        <time>2023-02-07T16:08:16Z</time>
      </trkpt>
      <trkpt lat="45.03879" lon="4.12892">
        <ele>1289.8</ele>
        <time>2023-02-07T16:08:16Z</time>
      </trkpt>
      <trkpt lat="45.03871" lon="4.12884">
        <ele>1289.4</ele>
        <time>2023-02-07T16:08:16Z</time>
      </trkpt>
      <trkpt lat="45.03865" lon="4.12873">
        <ele>1290</ele>
        <time>2023-02-07T16:08:16Z</time>
      </trkpt>
      <trkpt lat="45.03859" lon="4.12831">
        <ele>1290.9</ele>
        <time>2023-02-07T16:08:16Z</time>
      </trkpt>
      <trkpt lat="45.03847" lon="4.12778">
        <ele>1288</ele>
        <time>2023-02-07T16:08:16Z</time>
      </trkpt>
      <trkpt lat="45.03835" lon="4.12615">
        <ele>1278.4</ele>
        <time>2023-02-07T16:08:16Z</time>
      </trkpt>
      <trkpt lat="45.03814" lon="4.12575">
        <ele>1274.1</ele>
        <time>2023-02-07T16:08:16Z</time>
      </trkpt>
      <trkpt lat="45.03791" lon="4.12549">
        <ele>1270.9</ele>
        <time>2023-02-07T16:08:16Z</time>
      </trkpt>
      <trkpt lat="45.03785" lon="4.12537">
        <ele>1270.3</ele>
        <time>2023-02-07T16:08:16Z</time>
      </trkpt>
      <trkpt lat="45.03773" lon="4.12493">
        <ele>1269.9</ele>
        <time>2023-02-07T16:08:16Z</time>
      </trkpt>
      <trkpt lat="45.03773" lon="4.12493">
        <ele>1269.9</ele>
        <time>2023-02-07T16:08:16Z</time>
      </trkpt>
      <trkpt lat="45.0376" lon="4.12475">
        <ele>1269.1</ele>
        <time>2023-02-07T16:08:16Z</time>
      </trkpt>
      <trkpt lat="45.03744" lon="4.12462">
        <ele>1268.4</ele>
        <time>2023-02-07T16:08:16Z</time>
      </trkpt>
      <trkpt lat="45.03588" lon="4.12385">
        <ele>1257.5</ele>
        <time>2023-02-07T16:08:16Z</time>
      </trkpt>
      <trkpt lat="45.03552" lon="4.12346">
        <ele>1254.9</ele>
        <time>2023-02-07T16:08:16Z</time>
      </trkpt>
      <trkpt lat="45.03511" lon="4.12279">
        <ele>1253.4</ele>
        <time>2023-02-07T16:08:16Z</time>
      </trkpt>
      <trkpt lat="45.03492" lon="4.1226">
        <ele>1251.6</ele>
        <time>2023-02-07T16:08:16Z</time>
      </trkpt>
      <trkpt lat="45.03484" lon="4.12253">
        <ele>1250.3</ele>
        <time>2023-02-07T16:08:16Z</time>
      </trkpt>
      <trkpt lat="45.03484" lon="4.12253">
        <ele>1250.3</ele>
        <time>2023-02-07T16:08:16Z</time>
      </trkpt>
      <trkpt lat="45.0345" lon="4.12236">
        <ele>1244.6</ele>
        <time>2023-02-07T16:08:16Z</time>
      </trkpt>
      <trkpt lat="45.03398" lon="4.12231">
        <ele>1236.5</ele>
        <time>2023-02-07T16:08:16Z</time>
      </trkpt>
      <trkpt lat="45.03389" lon="4.12233">
        <ele>1235.3</ele>
        <time>2023-02-07T16:08:16Z</time>
      </trkpt>
      <trkpt lat="45.03377" lon="4.12216">
        <ele>1234.8</ele>
        <time>2023-02-07T16:08:16Z</time>
      </trkpt>
      <trkpt lat="45.0335" lon="4.12157">
        <ele>1234.1</ele>
        <time>2023-02-07T16:08:16Z</time>
      </trkpt>
      <trkpt lat="45.03314" lon="4.12106">
        <ele>1232.8</ele>
        <time>2023-02-07T16:08:16Z</time>
      </trkpt>
      <trkpt lat="45.03303" lon="4.12068">
        <ele>1233.5</ele>
        <time>2023-02-07T16:08:16Z</time>
      </trkpt>
      <trkpt lat="45.03285" lon="4.12051">
        <ele>1230.7</ele>
        <time>2023-02-07T16:08:16Z</time>
      </trkpt>
      <trkpt lat="45.03285" lon="4.12051">
        <ele>1230.7</ele>
        <time>2023-02-07T16:08:16Z</time>
      </trkpt>
      <trkpt lat="45.03268" lon="4.11989">
        <ele>1230.8</ele>
        <time>2023-02-07T16:08:16Z</time>
      </trkpt>
      <trkpt lat="45.03268" lon="4.11978">
        <ele>1231.1</ele>
        <time>2023-02-07T16:08:16Z</time>
      </trkpt>
      <trkpt lat="45.03282" lon="4.11931">
        <ele>1233.2</ele>
        <time>2023-02-07T16:08:16Z</time>
      </trkpt>
      <trkpt lat="45.03282" lon="4.11931">
        <ele>1233.2</ele>
        <time>2023-02-07T16:08:16Z</time>
      </trkpt>
      <trkpt lat="45.03271" lon="4.11915">
        <ele>1232</ele>
        <time>2023-02-07T16:08:16Z</time>
      </trkpt>
      <trkpt lat="45.03235" lon="4.1189">
        <ele>1227.3</ele>
        <time>2023-02-07T16:08:16Z</time>
      </trkpt>
      <trkpt lat="45.03221" lon="4.11855">
        <ele>1225.7</ele>
        <time>2023-02-07T16:08:16Z</time>
      </trkpt>
      <trkpt lat="45.03218" lon="4.11843">
        <ele>1225.1</ele>
        <time>2023-02-07T16:08:16Z</time>
      </trkpt>
      <trkpt lat="45.03199" lon="4.11818">
        <ele>1220.8</ele>
        <time>2023-02-07T16:08:16Z</time>
      </trkpt>
      <trkpt lat="45.03196" lon="4.11756">
        <ele>1219.4</ele>
        <time>2023-02-07T16:08:16Z</time>
      </trkpt>
      <trkpt lat="45.03199" lon="4.11706">
        <ele>1218.8</ele>
        <time>2023-02-07T16:08:16Z</time>
      </trkpt>
      <trkpt lat="45.03195" lon="4.1169">
        <ele>1218.3</ele>
        <time>2023-02-07T16:08:16Z</time>
      </trkpt>
      <trkpt lat="45.0318" lon="4.11681">
        <ele>1215.6</ele>
        <time>2023-02-07T16:08:16Z</time>
      </trkpt>
      <trkpt lat="45.03177" lon="4.11672">
        <ele>1214.9</ele>
        <time>2023-02-07T16:08:16Z</time>
      </trkpt>
      <trkpt lat="45.03177" lon="4.11672">
        <ele>1214.9</ele>
        <time>2023-02-07T16:08:16Z</time>
      </trkpt>
      <trkpt lat="45.0318" lon="4.11651">
        <ele>1215.3</ele>
        <time>2023-02-07T16:08:16Z</time>
      </trkpt>
      <trkpt lat="45.032" lon="4.11615">
        <ele>1217.4</ele>
        <time>2023-02-07T16:08:16Z</time>
      </trkpt>
      <trkpt lat="45.03204" lon="4.1159">
        <ele>1217.9</ele>
        <time>2023-02-07T16:08:16Z</time>
      </trkpt>
      <trkpt lat="45.03206" lon="4.11562">
        <ele>1218.1</ele>
        <time>2023-02-07T16:08:16Z</time>
      </trkpt>
      <trkpt lat="45.03229" lon="4.1148">
        <ele>1219.5</ele>
        <time>2023-02-07T16:08:16Z</time>
      </trkpt>
      <trkpt lat="45.03238" lon="4.11456">
        <ele>1219.7</ele>
        <time>2023-02-07T16:08:16Z</time>
      </trkpt>
      <trkpt lat="45.0324" lon="4.11443">
        <ele>1219.5</ele>
        <time>2023-02-07T16:08:16Z</time>
      </trkpt>
      <trkpt lat="45.03242" lon="4.11417">
        <ele>1217.8</ele>
        <time>2023-02-07T16:08:16Z</time>
      </trkpt>
      <trkpt lat="45.03244" lon="4.11404">
        <ele>1217.2</ele>
        <time>2023-02-07T16:08:16Z</time>
      </trkpt>
      <trkpt lat="45.03257" lon="4.11367">
        <ele>1216.4</ele>
        <time>2023-02-07T16:08:16Z</time>
      </trkpt>
      <trkpt lat="45.0326" lon="4.11341">
        <ele>1214.7</ele>
        <time>2023-02-07T16:08:16Z</time>
      </trkpt>
      <trkpt lat="45.0331" lon="4.11282">
        <ele>1216.3</ele>
        <time>2023-02-07T16:08:16Z</time>
      </trkpt>
      <trkpt lat="45.0332" lon="4.11259">
        <ele>1216</ele>
        <time>2023-02-07T16:08:16Z</time>
      </trkpt>
      <trkpt lat="45.03326" lon="4.11251">
        <ele>1216.5</ele>
        <time>2023-02-07T16:08:16Z</time>
      </trkpt>
      <trkpt lat="45.03344" lon="4.1124">
        <ele>1217</ele>
        <time>2023-02-07T16:08:16Z</time>
      </trkpt>
      <trkpt lat="45.03348" lon="4.1123">
        <ele>1215.9</ele>
        <time>2023-02-07T16:08:16Z</time>
      </trkpt>
      <trkpt lat="45.03352" lon="4.11217">
        <ele>1214.4</ele>
        <time>2023-02-07T16:08:16Z</time>
      </trkpt>
      <trkpt lat="45.03357" lon="4.11206">
        <ele>1213.7</ele>
        <time>2023-02-07T16:08:16Z</time>
      </trkpt>
      <trkpt lat="45.03404" lon="4.11159">
        <ele>1212</ele>
        <time>2023-02-07T16:08:16Z</time>
      </trkpt>
      <trkpt lat="45.0341" lon="4.1115">
        <ele>1211.1</ele>
        <time>2023-02-07T16:08:16Z</time>
      </trkpt>
      <trkpt lat="45.03439" lon="4.11132">
        <ele>1210.8</ele>
        <time>2023-02-07T16:08:16Z</time>
      </trkpt>
      <trkpt lat="45.03483" lon="4.11086">
        <ele>1208.1</ele>
        <time>2023-02-07T16:08:16Z</time>
      </trkpt>
      <trkpt lat="45.03501" lon="4.11081">
        <ele>1208.6</ele>
        <time>2023-02-07T16:08:16Z</time>
      </trkpt>
      <trkpt lat="45.0351" lon="4.11075">
        <ele>1208.3</ele>
        <time>2023-02-07T16:08:16Z</time>
      </trkpt>
      <trkpt lat="45.03537" lon="4.11072">
        <ele>1210.7</ele>
        <time>2023-02-07T16:08:16Z</time>
      </trkpt>
      <trkpt lat="45.03557" lon="4.11041">
        <ele>1208.2</ele>
        <time>2023-02-07T16:08:16Z</time>
      </trkpt>
      <trkpt lat="45.0358" lon="4.1102">
        <ele>1208.1</ele>
        <time>2023-02-07T16:08:16Z</time>
      </trkpt>
      <trkpt lat="45.03651" lon="4.10997">
        <ele>1208.9</ele>
        <time>2023-02-07T16:08:16Z</time>
      </trkpt>
      <trkpt lat="45.03659" lon="4.10996">
        <ele>1209.1</ele>
        <time>2023-02-07T16:08:16Z</time>
      </trkpt>
      <trkpt lat="45.03659" lon="4.10996">
        <ele>1209.1</ele>
        <time>2023-02-07T16:08:16Z</time>
      </trkpt>
      <trkpt lat="45.03667" lon="4.10999">
        <ele>1209.9</ele>
        <time>2023-02-07T16:08:16Z</time>
      </trkpt>
      <trkpt lat="45.03677" lon="4.10999">
        <ele>1210.5</ele>
        <time>2023-02-07T16:08:16Z</time>
      </trkpt>
      <trkpt lat="45.03779" lon="4.10931">
        <ele>1202.4</ele>
        <time>2023-02-07T16:08:16Z</time>
      </trkpt>
      <trkpt lat="45.03823" lon="4.10923">
        <ele>1198.4</ele>
        <time>2023-02-07T16:08:16Z</time>
      </trkpt>
      <trkpt lat="45.03915" lon="4.10881">
        <ele>1188.2</ele>
        <time>2023-02-07T16:08:16Z</time>
      </trkpt>
      <trkpt lat="45.03994" lon="4.10861">
        <ele>1183.3</ele>
        <time>2023-02-07T16:08:16Z</time>
      </trkpt>
      <trkpt lat="45.04012" lon="4.10864">
        <ele>1182.1</ele>
        <time>2023-02-07T16:08:16Z</time>
      </trkpt>
      <trkpt lat="45.04029" lon="4.10857">
        <ele>1179.6</ele>
        <time>2023-02-07T16:08:16Z</time>
      </trkpt>
      <trkpt lat="45.04037" lon="4.1085">
        <ele>1178.9</ele>
        <time>2023-02-07T16:08:16Z</time>
      </trkpt>
      <trkpt lat="45.0406" lon="4.10865">
        <ele>1179.3</ele>
        <time>2023-02-07T16:08:16Z</time>
      </trkpt>
      <trkpt lat="45.0408" lon="4.10862">
        <ele>1178.2</ele>
        <time>2023-02-07T16:08:16Z</time>
      </trkpt>
      <trkpt lat="45.04115" lon="4.10874">
        <ele>1177</ele>
        <time>2023-02-07T16:08:16Z</time>
      </trkpt>
      <trkpt lat="45.04166" lon="4.10911">
        <ele>1174.5</ele>
        <time>2023-02-07T16:08:16Z</time>
      </trkpt>
      <trkpt lat="45.04177" lon="4.1091">
        <ele>1173.5</ele>
        <time>2023-02-07T16:08:16Z</time>
      </trkpt>
      <trkpt lat="45.04195" lon="4.10903">
        <ele>1171.5</ele>
        <time>2023-02-07T16:08:16Z</time>
      </trkpt>
      <trkpt lat="45.04208" lon="4.10889">
        <ele>1169</ele>
        <time>2023-02-07T16:08:16Z</time>
      </trkpt>
      <trkpt lat="45.04208" lon="4.10889">
        <ele>1169</ele>
        <time>2023-02-07T16:08:16Z</time>
      </trkpt>
      <trkpt lat="45.04215" lon="4.10883">
        <ele>1168.1</ele>
        <time>2023-02-07T16:08:16Z</time>
      </trkpt>
      <trkpt lat="45.04229" lon="4.10866">
        <ele>1165.9</ele>
        <time>2023-02-07T16:08:16Z</time>
      </trkpt>
      <trkpt lat="45.04259" lon="4.10834">
        <ele>1160.7</ele>
        <time>2023-02-07T16:08:16Z</time>
      </trkpt>
      <trkpt lat="45.04275" lon="4.10807">
        <ele>1158.3</ele>
        <time>2023-02-07T16:08:16Z</time>
      </trkpt>
      <trkpt lat="45.04301" lon="4.10788">
        <ele>1155.1</ele>
        <time>2023-02-07T16:08:16Z</time>
      </trkpt>
      <trkpt lat="45.04337" lon="4.10773">
        <ele>1149.8</ele>
        <time>2023-02-07T16:08:16Z</time>
      </trkpt>
      <trkpt lat="45.04346" lon="4.10772">
        <ele>1148.5</ele>
        <time>2023-02-07T16:08:16Z</time>
      </trkpt>
      <trkpt lat="45.04361" lon="4.10762">
        <ele>1145.3</ele>
        <time>2023-02-07T16:08:16Z</time>
      </trkpt>
      <trkpt lat="45.04367" lon="4.10755">
        <ele>1144.1</ele>
        <time>2023-02-07T16:08:16Z</time>
      </trkpt>
      <trkpt lat="45.04377" lon="4.10752">
        <ele>1143.1</ele>
        <time>2023-02-07T16:08:16Z</time>
      </trkpt>
      <trkpt lat="45.04449" lon="4.10701">
        <ele>1126.6</ele>
        <time>2023-02-07T16:08:16Z</time>
      </trkpt>
      <trkpt lat="45.04455" lon="4.10694">
        <ele>1125.2</ele>
        <time>2023-02-07T16:08:16Z</time>
      </trkpt>
      <trkpt lat="45.0446" lon="4.10685">
        <ele>1124.3</ele>
        <time>2023-02-07T16:08:16Z</time>
      </trkpt>
      <trkpt lat="45.04491" lon="4.10662">
        <ele>1120.4</ele>
        <time>2023-02-07T16:08:16Z</time>
      </trkpt>
      <trkpt lat="45.04502" lon="4.10643">
        <ele>1118.1</ele>
        <time>2023-02-07T16:08:16Z</time>
      </trkpt>
      <trkpt lat="45.04514" lon="4.10631">
        <ele>1116.2</ele>
        <time>2023-02-07T16:08:16Z</time>
      </trkpt>
      <trkpt lat="45.04519" lon="4.10621">
        <ele>1115.3</ele>
        <time>2023-02-07T16:08:16Z</time>
      </trkpt>
      <trkpt lat="45.04552" lon="4.10602">
        <ele>1110.4</ele>
        <time>2023-02-07T16:08:16Z</time>
      </trkpt>
      <trkpt lat="45.04593" lon="4.10594">
        <ele>1104.9</ele>
        <time>2023-02-07T16:08:16Z</time>
      </trkpt>
      <trkpt lat="45.04614" lon="4.10599">
        <ele>1102.7</ele>
        <time>2023-02-07T16:08:16Z</time>
      </trkpt>
      <trkpt lat="45.04735" lon="4.10584">
        <ele>1088.7</ele>
        <time>2023-02-07T16:08:16Z</time>
      </trkpt>
      <trkpt lat="45.04742" lon="4.10584">
        <ele>1087.9</ele>
        <time>2023-02-07T16:08:16Z</time>
      </trkpt>
      <trkpt lat="45.04742" lon="4.10584">
        <ele>1087.9</ele>
        <time>2023-02-07T16:08:16Z</time>
      </trkpt>
      <trkpt lat="45.04769" lon="4.1061">
        <ele>1084.6</ele>
        <time>2023-02-07T16:08:16Z</time>
      </trkpt>
      <trkpt lat="45.04781" lon="4.10631">
        <ele>1082.4</ele>
        <time>2023-02-07T16:08:16Z</time>
      </trkpt>
      <trkpt lat="45.04823" lon="4.10709">
        <ele>1078.4</ele>
        <time>2023-02-07T16:08:16Z</time>
      </trkpt>
      <trkpt lat="45.04834" lon="4.10723">
        <ele>1078</ele>
        <time>2023-02-07T16:08:16Z</time>
      </trkpt>
      <trkpt lat="45.04846" lon="4.10729">
        <ele>1077.1</ele>
        <time>2023-02-07T16:08:16Z</time>
      </trkpt>
      <trkpt lat="45.04913" lon="4.10798">
        <ele>1077.3</ele>
        <time>2023-02-07T16:08:16Z</time>
      </trkpt>
      <trkpt lat="45.04972" lon="4.10839">
        <ele>1081.8</ele>
        <time>2023-02-07T16:08:16Z</time>
      </trkpt>
      <trkpt lat="45.04992" lon="4.10843">
        <ele>1081.1</ele>
        <time>2023-02-07T16:08:16Z</time>
      </trkpt>
      <trkpt lat="45.05007" lon="4.10868">
        <ele>1085.3</ele>
        <time>2023-02-07T16:08:16Z</time>
      </trkpt>
      <trkpt lat="45.05023" lon="4.10885">
        <ele>1087.8</ele>
        <time>2023-02-07T16:08:16Z</time>
      </trkpt>
      <trkpt lat="45.05032" lon="4.10899">
        <ele>1089.9</ele>
        <time>2023-02-07T16:08:16Z</time>
      </trkpt>
      <trkpt lat="45.0506" lon="4.10911">
        <ele>1088.3</ele>
        <time>2023-02-07T16:08:16Z</time>
      </trkpt>
      <trkpt lat="45.05068" lon="4.10912">
        <ele>1087</ele>
        <time>2023-02-07T16:08:16Z</time>
      </trkpt>
      <trkpt lat="45.05075" lon="4.10918">
        <ele>1086.6</ele>
        <time>2023-02-07T16:08:16Z</time>
      </trkpt>
      <trkpt lat="45.0508" lon="4.10926">
        <ele>1086.6</ele>
        <time>2023-02-07T16:08:16Z</time>
      </trkpt>
      <trkpt lat="45.0509" lon="4.10951">
        <ele>1087.7</ele>
        <time>2023-02-07T16:08:16Z</time>
      </trkpt>
      <trkpt lat="45.05101" lon="4.10969">
        <ele>1088.4</ele>
        <time>2023-02-07T16:08:16Z</time>
      </trkpt>
      <trkpt lat="45.05119" lon="4.10993">
        <ele>1087.3</ele>
        <time>2023-02-07T16:08:16Z</time>
      </trkpt>
      <trkpt lat="45.05133" lon="4.11027">
        <ele>1087.3</ele>
        <time>2023-02-07T16:08:16Z</time>
      </trkpt>
      <trkpt lat="45.05142" lon="4.11045">
        <ele>1086.3</ele>
        <time>2023-02-07T16:08:16Z</time>
      </trkpt>
      <trkpt lat="45.05151" lon="4.1109">
        <ele>1087.8</ele>
        <time>2023-02-07T16:08:16Z</time>
      </trkpt>
      <trkpt lat="45.0518" lon="4.11156">
        <ele>1085.9</ele>
        <time>2023-02-07T16:08:16Z</time>
      </trkpt>
      <trkpt lat="45.05186" lon="4.1119">
        <ele>1086</ele>
        <time>2023-02-07T16:08:16Z</time>
      </trkpt>
      <trkpt lat="45.05193" lon="4.11327">
        <ele>1089</ele>
        <time>2023-02-07T16:08:16Z</time>
      </trkpt>
      <trkpt lat="45.05195" lon="4.11337">
        <ele>1089</ele>
        <time>2023-02-07T16:08:16Z</time>
      </trkpt>
      <trkpt lat="45.05201" lon="4.11344">
        <ele>1088.8</ele>
        <time>2023-02-07T16:08:16Z</time>
      </trkpt>
      <trkpt lat="45.05204" lon="4.11355">
        <ele>1089.2</ele>
        <time>2023-02-07T16:08:16Z</time>
      </trkpt>
      <trkpt lat="45.05203" lon="4.1138">
        <ele>1091.4</ele>
        <time>2023-02-07T16:08:16Z</time>
      </trkpt>
      <trkpt lat="45.05205" lon="4.11392">
        <ele>1092.6</ele>
        <time>2023-02-07T16:08:16Z</time>
      </trkpt>
      <trkpt lat="45.05211" lon="4.11401">
        <ele>1093.7</ele>
        <time>2023-02-07T16:08:16Z</time>
      </trkpt>
      <trkpt lat="45.05219" lon="4.11395">
        <ele>1093.5</ele>
        <time>2023-02-07T16:08:16Z</time>
      </trkpt>
      <trkpt lat="45.05224" lon="4.11387">
        <ele>1092.9</ele>
        <time>2023-02-07T16:08:16Z</time>
      </trkpt>
      <trkpt lat="45.05224" lon="4.11387">
        <ele>1092.9</ele>
        <time>2023-02-07T16:08:16Z</time>
      </trkpt>
      <trkpt lat="45.05232" lon="4.11377">
        <ele>1092.2</ele>
        <time>2023-02-07T16:08:16Z</time>
      </trkpt>
      <trkpt lat="45.05398" lon="4.11251">
        <ele>1082.5</ele>
        <time>2023-02-07T16:08:16Z</time>
      </trkpt>
      <trkpt lat="45.05439" lon="4.11238">
        <ele>1078.9</ele>
        <time>2023-02-07T16:08:16Z</time>
      </trkpt>
      <trkpt lat="45.05454" lon="4.11221">
        <ele>1077.2</ele>
        <time>2023-02-07T16:08:16Z</time>
      </trkpt>
      <trkpt lat="45.05459" lon="4.11209">
        <ele>1077.1</ele>
        <time>2023-02-07T16:08:16Z</time>
      </trkpt>
      <trkpt lat="45.05474" lon="4.11161">
        <ele>1074.5</ele>
        <time>2023-02-07T16:08:16Z</time>
      </trkpt>
      <trkpt lat="45.05486" lon="4.11138">
        <ele>1074</ele>
        <time>2023-02-07T16:08:16Z</time>
      </trkpt>
      <trkpt lat="45.05509" lon="4.11107">
        <ele>1072.3</ele>
        <time>2023-02-07T16:08:16Z</time>
      </trkpt>
      <trkpt lat="45.05545" lon="4.11031">
        <ele>1067.7</ele>
        <time>2023-02-07T16:08:16Z</time>
      </trkpt>
      <trkpt lat="45.05556" lon="4.1102">
        <ele>1066.5</ele>
        <time>2023-02-07T16:08:16Z</time>
      </trkpt>
      <trkpt lat="45.05578" lon="4.11001">
        <ele>1064.9</ele>
        <time>2023-02-07T16:08:16Z</time>
      </trkpt>
      <trkpt lat="45.05592" lon="4.10975">
        <ele>1063.6</ele>
        <time>2023-02-07T16:08:16Z</time>
      </trkpt>
      <trkpt lat="45.056" lon="4.10934">
        <ele>1061.7</ele>
        <time>2023-02-07T16:08:16Z</time>
      </trkpt>
      <trkpt lat="45.05612" lon="4.10833">
        <ele>1055</ele>
        <time>2023-02-07T16:08:16Z</time>
      </trkpt>
      <trkpt lat="45.05612" lon="4.10833">
        <ele>1055</ele>
        <time>2023-02-07T16:08:16Z</time>
      </trkpt>
      <trkpt lat="45.05616" lon="4.10781">
        <ele>1052.3</ele>
        <time>2023-02-07T16:08:16Z</time>
      </trkpt>
      <trkpt lat="45.05622" lon="4.1077">
        <ele>1051.2</ele>
        <time>2023-02-07T16:08:16Z</time>
      </trkpt>
      <trkpt lat="45.05669" lon="4.10736">
        <ele>1050.6</ele>
        <time>2023-02-07T16:08:16Z</time>
      </trkpt>
      <trkpt lat="45.05693" lon="4.10722">
        <ele>1049.8</ele>
        <time>2023-02-07T16:08:16Z</time>
      </trkpt>
      <trkpt lat="45.05715" lon="4.10695">
        <ele>1048.3</ele>
        <time>2023-02-07T16:08:16Z</time>
      </trkpt>
      <trkpt lat="45.05722" lon="4.10681">
        <ele>1047</ele>
        <time>2023-02-07T16:08:16Z</time>
      </trkpt>
      <trkpt lat="45.05717" lon="4.10664">
        <ele>1043.9</ele>
        <time>2023-02-07T16:08:16Z</time>
      </trkpt>
      <trkpt lat="45.05716" lon="4.10653">
        <ele>1042.3</ele>
        <time>2023-02-07T16:08:16Z</time>
      </trkpt>
      <trkpt lat="45.0572" lon="4.10633">
        <ele>1040.1</ele>
        <time>2023-02-07T16:08:16Z</time>
      </trkpt>
      <trkpt lat="45.05729" lon="4.10615">
        <ele>1038.7</ele>
        <time>2023-02-07T16:08:16Z</time>
      </trkpt>
      <trkpt lat="45.05736" lon="4.10605">
        <ele>1037.8</ele>
        <time>2023-02-07T16:08:16Z</time>
      </trkpt>
      <trkpt lat="45.05736" lon="4.10605">
        <ele>1037.8</ele>
        <time>2023-02-07T16:08:16Z</time>
      </trkpt>
      <trkpt lat="45.05744" lon="4.10598">
        <ele>1037.3</ele>
        <time>2023-02-07T16:08:16Z</time>
      </trkpt>
      <trkpt lat="45.05744" lon="4.10588">
        <ele>1036.1</ele>
        <time>2023-02-07T16:08:16Z</time>
      </trkpt>
      <trkpt lat="45.05726" lon="4.1057">
        <ele>1033.2</ele>
        <time>2023-02-07T16:08:16Z</time>
      </trkpt>
      <trkpt lat="45.05686" lon="4.10557">
        <ele>1029.5</ele>
        <time>2023-02-07T16:08:16Z</time>
      </trkpt>
      <trkpt lat="45.05673" lon="4.10554">
        <ele>1028.3</ele>
        <time>2023-02-07T16:08:16Z</time>
      </trkpt>
      <trkpt lat="45.0561" lon="4.10371">
        <ele>1007.1</ele>
        <time>2023-02-07T16:08:16Z</time>
      </trkpt>
      <trkpt lat="45.05566" lon="4.10304">
        <ele>995.8</ele>
        <time>2023-02-07T16:08:16Z</time>
      </trkpt>
      <trkpt lat="45.0551" lon="4.10245">
        <ele>989.2</ele>
        <time>2023-02-07T16:08:16Z</time>
      </trkpt>
      <trkpt lat="45.055" lon="4.10239">
        <ele>988.2</ele>
        <time>2023-02-07T16:08:16Z</time>
      </trkpt>
      <trkpt lat="45.05492" lon="4.10229">
        <ele>987.1</ele>
        <time>2023-02-07T16:08:16Z</time>
      </trkpt>
      <trkpt lat="45.05492" lon="4.10217">
        <ele>986.3</ele>
        <time>2023-02-07T16:08:16Z</time>
      </trkpt>
      <trkpt lat="45.05487" lon="4.10199">
        <ele>984.8</ele>
        <time>2023-02-07T16:08:16Z</time>
      </trkpt>
      <trkpt lat="45.05454" lon="4.10153">
        <ele>980.9</ele>
        <time>2023-02-07T16:08:16Z</time>
      </trkpt>
      <trkpt lat="45.05415" lon="4.10132">
        <ele>977.7</ele>
        <time>2023-02-07T16:08:16Z</time>
      </trkpt>
      <trkpt lat="45.05404" lon="4.1012">
        <ele>978.2</ele>
        <time>2023-02-07T16:08:16Z</time>
      </trkpt>
      <trkpt lat="45.05379" lon="4.10062">
        <ele>978.3</ele>
        <time>2023-02-07T16:08:16Z</time>
      </trkpt>
      <trkpt lat="45.05373" lon="4.10018">
        <ele>976.8</ele>
        <time>2023-02-07T16:08:16Z</time>
      </trkpt>
      <trkpt lat="45.05373" lon="4.10018">
        <ele>976.8</ele>
        <time>2023-02-07T16:08:16Z</time>
      </trkpt>
      <trkpt lat="45.05351" lon="4.09898">
        <ele>972.4</ele>
        <time>2023-02-07T16:08:16Z</time>
      </trkpt>
      <trkpt lat="45.05279" lon="4.09697">
        <ele>981.5</ele>
        <time>2023-02-07T16:08:16Z</time>
      </trkpt>
      <trkpt lat="45.05244" lon="4.09647">
        <ele>988.4</ele>
        <time>2023-02-07T16:08:16Z</time>
      </trkpt>
      <trkpt lat="45.05066" lon="4.09457">
        <ele>1010</ele>
        <time>2023-02-07T16:08:16Z</time>
      </trkpt>
      <trkpt lat="45.0497" lon="4.09419">
        <ele>1015.7</ele>
        <time>2023-02-07T16:08:16Z</time>
      </trkpt>
      <trkpt lat="45.04935" lon="4.09417">
        <ele>1019.5</ele>
        <time>2023-02-07T16:08:16Z</time>
      </trkpt>
      <trkpt lat="45.04923" lon="4.0941">
        <ele>1019.3</ele>
        <time>2023-02-07T16:08:16Z</time>
      </trkpt>
      <trkpt lat="45.04827" lon="4.09305">
        <ele>1016.8</ele>
        <time>2023-02-07T16:08:16Z</time>
      </trkpt>
      <trkpt lat="45.04827" lon="4.09305">
        <ele>1016.8</ele>
        <time>2023-02-07T16:08:16Z</time>
      </trkpt>
      <trkpt lat="45.04766" lon="4.09257">
        <ele>1011</ele>
        <time>2023-02-07T16:08:16Z</time>
      </trkpt>
      <trkpt lat="45.0471" lon="4.09242">
        <ele>1008.9</ele>
        <time>2023-02-07T16:08:16Z</time>
      </trkpt>
      <trkpt lat="45.04572" lon="4.09163">
        <ele>1009.4</ele>
        <time>2023-02-07T16:08:16Z</time>
      </trkpt>
      <trkpt lat="45.04526" lon="4.0915">
        <ele>1009.8</ele>
        <time>2023-02-07T16:08:16Z</time>
      </trkpt>
      <trkpt lat="45.04514" lon="4.0914">
        <ele>1009.1</ele>
        <time>2023-02-07T16:08:16Z</time>
      </trkpt>
      <trkpt lat="45.04498" lon="4.09109">
        <ele>1005.7</ele>
        <time>2023-02-07T16:08:16Z</time>
      </trkpt>
      <trkpt lat="45.04447" lon="4.09061">
        <ele>1000.5</ele>
        <time>2023-02-07T16:08:16Z</time>
      </trkpt>
      <trkpt lat="45.04446" lon="4.0905">
        <ele>999.4</ele>
        <time>2023-02-07T16:08:16Z</time>
      </trkpt>
      <trkpt lat="45.04437" lon="4.09031">
        <ele>997</ele>
        <time>2023-02-07T16:08:16Z</time>
      </trkpt>
      <trkpt lat="45.04422" lon="4.09014">
        <ele>994.3</ele>
        <time>2023-02-07T16:08:16Z</time>
      </trkpt>
      <trkpt lat="45.04403" lon="4.09005">
        <ele>991.6</ele>
        <time>2023-02-07T16:08:16Z</time>
      </trkpt>
      <trkpt lat="45.04386" lon="4.08986">
        <ele>987.4</ele>
        <time>2023-02-07T16:08:16Z</time>
      </trkpt>
      <trkpt lat="45.04333" lon="4.08957">
        <ele>980.3</ele>
        <time>2023-02-07T16:08:16Z</time>
      </trkpt>
      <trkpt lat="45.04267" lon="4.08882">
        <ele>966.1</ele>
        <time>2023-02-07T16:08:16Z</time>
      </trkpt>
      <trkpt lat="45.04257" lon="4.08876">
        <ele>964.5</ele>
        <time>2023-02-07T16:08:16Z</time>
      </trkpt>
      <trkpt lat="45.04191" lon="4.08882">
        <ele>962.3</ele>
        <time>2023-02-07T16:08:16Z</time>
      </trkpt>
      <trkpt lat="45.04186" lon="4.08875">
        <ele>960.6</ele>
        <time>2023-02-07T16:08:16Z</time>
      </trkpt>
      <trkpt lat="45.04085" lon="4.08866">
        <ele>949.8</ele>
        <time>2023-02-07T16:08:16Z</time>
      </trkpt>
      <trkpt lat="45.04074" lon="4.08863">
        <ele>948.9</ele>
        <time>2023-02-07T16:08:16Z</time>
      </trkpt>
      <trkpt lat="45.04065" lon="4.08854">
        <ele>947.7</ele>
        <time>2023-02-07T16:08:16Z</time>
      </trkpt>
      <trkpt lat="45.04059" lon="4.08843">
        <ele>946.2</ele>
        <time>2023-02-07T16:08:16Z</time>
      </trkpt>
      <trkpt lat="45.04053" lon="4.08805">
        <ele>941.8</ele>
        <time>2023-02-07T16:08:16Z</time>
      </trkpt>
      <trkpt lat="45.04044" lon="4.08804">
        <ele>941.1</ele>
        <time>2023-02-07T16:08:16Z</time>
      </trkpt>
      <trkpt lat="45.04028" lon="4.08797">
        <ele>939.4</ele>
        <time>2023-02-07T16:08:16Z</time>
      </trkpt>
      <trkpt lat="45.04016" lon="4.08798">
        <ele>939.1</ele>
        <time>2023-02-07T16:08:16Z</time>
      </trkpt>
      <trkpt lat="45.04007" lon="4.08804">
        <ele>939.1</ele>
        <time>2023-02-07T16:08:16Z</time>
      </trkpt>
      <trkpt lat="45.03991" lon="4.08807">
        <ele>939.4</ele>
        <time>2023-02-07T16:08:16Z</time>
      </trkpt>
      <trkpt lat="45.03983" lon="4.08805">
        <ele>939.5</ele>
        <time>2023-02-07T16:08:16Z</time>
      </trkpt>
      <trkpt lat="45.03936" lon="4.08778">
        <ele>941.5</ele>
        <time>2023-02-07T16:08:16Z</time>
      </trkpt>
      <trkpt lat="45.0392" lon="4.08751">
        <ele>942.7</ele>
        <time>2023-02-07T16:08:16Z</time>
      </trkpt>
      <trkpt lat="45.03895" lon="4.08737">
        <ele>944.8</ele>
        <time>2023-02-07T16:08:16Z</time>
      </trkpt>
      <trkpt lat="45.03884" lon="4.08734">
        <ele>945.8</ele>
        <time>2023-02-07T16:08:16Z</time>
      </trkpt>
      <trkpt lat="45.03884" lon="4.08734">
        <ele>945.8</ele>
        <time>2023-02-07T16:08:16Z</time>
      </trkpt>
      <trkpt lat="45.03867" lon="4.08726">
        <ele>946.7</ele>
        <time>2023-02-07T16:08:16Z</time>
      </trkpt>
      <trkpt lat="45.03846" lon="4.08805">
        <ele>953</ele>
        <time>2023-02-07T16:08:16Z</time>
      </trkpt>
      <trkpt lat="45.03839" lon="4.08817">
        <ele>954.4</ele>
        <time>2023-02-07T16:08:16Z</time>
      </trkpt>
      <trkpt lat="45.03832" lon="4.08821">
        <ele>955.2</ele>
        <time>2023-02-07T16:08:16Z</time>
      </trkpt>
      <trkpt lat="45.03819" lon="4.08841">
        <ele>958.1</ele>
        <time>2023-02-07T16:08:16Z</time>
      </trkpt>
      <trkpt lat="45.03806" lon="4.08863">
        <ele>960.2</ele>
        <time>2023-02-07T16:08:16Z</time>
      </trkpt>
      <trkpt lat="45.03778" lon="4.08898">
        <ele>967.3</ele>
        <time>2023-02-07T16:08:16Z</time>
      </trkpt>
      <trkpt lat="45.03769" lon="4.08928">
        <ele>970.8</ele>
        <time>2023-02-07T16:08:16Z</time>
      </trkpt>
      <trkpt lat="45.03753" lon="4.09078">
        <ele>985.7</ele>
        <time>2023-02-07T16:08:16Z</time>
      </trkpt>
      <trkpt lat="45.03735" lon="4.09124">
        <ele>987.1</ele>
        <time>2023-02-07T16:08:16Z</time>
      </trkpt>
      <trkpt lat="45.03732" lon="4.09137">
        <ele>987.9</ele>
        <time>2023-02-07T16:08:16Z</time>
      </trkpt>
      <trkpt lat="45.03733" lon="4.09152">
        <ele>989</ele>
        <time>2023-02-07T16:08:16Z</time>
      </trkpt>
      <trkpt lat="45.03718" lon="4.09148">
        <ele>989</ele>
        <time>2023-02-07T16:08:16Z</time>
      </trkpt>
      <trkpt lat="45.03708" lon="4.09149">
        <ele>989</ele>
        <time>2023-02-07T16:08:16Z</time>
      </trkpt>
      <trkpt lat="45.03699" lon="4.09148">
        <ele>988.6</ele>
        <time>2023-02-07T16:08:16Z</time>
      </trkpt>
      <trkpt lat="45.03683" lon="4.09135">
        <ele>987.8</ele>
        <time>2023-02-07T16:08:16Z</time>
      </trkpt>
      <trkpt lat="45.0366" lon="4.09106">
        <ele>984.5</ele>
        <time>2023-02-07T16:08:16Z</time>
      </trkpt>
      <trkpt lat="45.03646" lon="4.09096">
        <ele>983.4</ele>
        <time>2023-02-07T16:08:16Z</time>
      </trkpt>
      <trkpt lat="45.03633" lon="4.09095">
        <ele>983.2</ele>
        <time>2023-02-07T16:08:16Z</time>
      </trkpt>
      <trkpt lat="45.03571" lon="4.09103">
        <ele>983.3</ele>
        <time>2023-02-07T16:08:16Z</time>
      </trkpt>
      <trkpt lat="45.03504" lon="4.09082">
        <ele>980.8</ele>
        <time>2023-02-07T16:08:16Z</time>
      </trkpt>
      <trkpt lat="45.03511" lon="4.09048">
        <ele>978.7</ele>
        <time>2023-02-07T16:08:16Z</time>
      </trkpt>
      <trkpt lat="45.03512" lon="4.09038">
        <ele>978.5</ele>
        <time>2023-02-07T16:08:16Z</time>
      </trkpt>
      <trkpt lat="45.0351" lon="4.08997">
        <ele>975.5</ele>
        <time>2023-02-07T16:08:16Z</time>
      </trkpt>
      <trkpt lat="45.03512" lon="4.08987">
        <ele>975.1</ele>
        <time>2023-02-07T16:08:16Z</time>
      </trkpt>
      <trkpt lat="45.03506" lon="4.08955">
        <ele>972.2</ele>
        <time>2023-02-07T16:08:16Z</time>
      </trkpt>
      <trkpt lat="45.03505" lon="4.08939">
        <ele>970.8</ele>
        <time>2023-02-07T16:08:16Z</time>
      </trkpt>
      <trkpt lat="45.03496" lon="4.08913">
        <ele>967.1</ele>
        <time>2023-02-07T16:08:16Z</time>
      </trkpt>
      <trkpt lat="45.03493" lon="4.08895">
        <ele>965.1</ele>
        <time>2023-02-07T16:08:16Z</time>
      </trkpt>
      <trkpt lat="45.03492" lon="4.08864">
        <ele>961.8</ele>
        <time>2023-02-07T16:08:16Z</time>
      </trkpt>
      <trkpt lat="45.03484" lon="4.0885">
        <ele>959.9</ele>
        <time>2023-02-07T16:08:16Z</time>
      </trkpt>
      <trkpt lat="45.03484" lon="4.0885">
        <ele>959.9</ele>
        <time>2023-02-07T16:08:16Z</time>
      </trkpt>
      <trkpt lat="45.03446" lon="4.08824">
        <ele>956</ele>
        <time>2023-02-07T16:08:16Z</time>
      </trkpt>
      <trkpt lat="45.03436" lon="4.08822">
        <ele>955.6</ele>
        <time>2023-02-07T16:08:16Z</time>
      </trkpt>
      <trkpt lat="45.03425" lon="4.08824">
        <ele>955.6</ele>
        <time>2023-02-07T16:08:16Z</time>
      </trkpt>
      <trkpt lat="45.03404" lon="4.08834">
        <ele>956</ele>
        <time>2023-02-07T16:08:16Z</time>
      </trkpt>
      <trkpt lat="45.03375" lon="4.08834">
        <ele>955</ele>
        <time>2023-02-07T16:08:16Z</time>
      </trkpt>
      <trkpt lat="45.03259" lon="4.08865">
        <ele>943.5</ele>
        <time>2023-02-07T16:08:16Z</time>
      </trkpt>
      <trkpt lat="45.03231" lon="4.08843">
        <ele>939.9</ele>
        <time>2023-02-07T16:08:16Z</time>
      </trkpt>
      <trkpt lat="45.0318" lon="4.08777">
        <ele>932.4</ele>
        <time>2023-02-07T16:08:16Z</time>
      </trkpt>
      <trkpt lat="45.03143" lon="4.08763">
        <ele>926.9</ele>
        <time>2023-02-07T16:08:16Z</time>
      </trkpt>
      <trkpt lat="45.03093" lon="4.08756">
        <ele>921.9</ele>
        <time>2023-02-07T16:08:16Z</time>
      </trkpt>
      <trkpt lat="45.03081" lon="4.08747">
        <ele>920.6</ele>
        <time>2023-02-07T16:08:16Z</time>
      </trkpt>
      <trkpt lat="45.03058" lon="4.08711">
        <ele>915.6</ele>
        <time>2023-02-07T16:08:16Z</time>
      </trkpt>
      <trkpt lat="45.03021" lon="4.08621">
        <ele>906.7</ele>
        <time>2023-02-07T16:08:16Z</time>
      </trkpt>
      <trkpt lat="45.03022" lon="4.0858">
        <ele>905.8</ele>
        <time>2023-02-07T16:08:16Z</time>
      </trkpt>
      <trkpt lat="45.03018" lon="4.08572">
        <ele>906.3</ele>
        <time>2023-02-07T16:08:16Z</time>
      </trkpt>
      <trkpt lat="45.0301" lon="4.08565">
        <ele>907.2</ele>
        <time>2023-02-07T16:08:16Z</time>
      </trkpt>
      <trkpt lat="45.03003" lon="4.08552">
        <ele>907.8</ele>
        <time>2023-02-07T16:08:16Z</time>
      </trkpt>
      <trkpt lat="45.02995" lon="4.08516">
        <ele>909.5</ele>
        <time>2023-02-07T16:08:16Z</time>
      </trkpt>
      <trkpt lat="45.02995" lon="4.08516">
        <ele>909.5</ele>
        <time>2023-02-07T16:08:16Z</time>
      </trkpt>
      <trkpt lat="45.02981" lon="4.08464">
        <ele>910.1</ele>
        <time>2023-02-07T16:08:16Z</time>
      </trkpt>
      <trkpt lat="45.02983" lon="4.08346">
        <ele>917</ele>
        <time>2023-02-07T16:08:16Z</time>
      </trkpt>
      <trkpt lat="45.02914" lon="4.08283">
        <ele>921</ele>
        <time>2023-02-07T16:08:16Z</time>
      </trkpt>
      <trkpt lat="45.0283" lon="4.0823">
        <ele>928.9</ele>
        <time>2023-02-07T16:08:16Z</time>
      </trkpt>
      <trkpt lat="45.02838" lon="4.08213">
        <ele>930.2</ele>
        <time>2023-02-07T16:08:16Z</time>
      </trkpt>
      <trkpt lat="45.02838" lon="4.08212">
        <ele>930.2</ele>
        <time>2023-02-07T16:08:16Z</time>
      </trkpt>
      <trkpt lat="45.02844" lon="4.08199">
        <ele>931.7</ele>
        <time>2023-02-07T16:08:16Z</time>
      </trkpt>
      <trkpt lat="45.02841" lon="4.08174">
        <ele>934.1</ele>
        <time>2023-02-07T16:08:16Z</time>
      </trkpt>
      <trkpt lat="45.02854" lon="4.08073">
        <ele>944.8</ele>
        <time>2023-02-07T16:08:16Z</time>
      </trkpt>
      <trkpt lat="45.02851" lon="4.08059">
        <ele>946.2</ele>
        <time>2023-02-07T16:08:16Z</time>
      </trkpt>
      <trkpt lat="45.02861" lon="4.07996">
        <ele>953.5</ele>
        <time>2023-02-07T16:08:16Z</time>
      </trkpt>
      <trkpt lat="45.02861" lon="4.07889">
        <ele>965</ele>
        <time>2023-02-07T16:08:16Z</time>
      </trkpt>
      <trkpt lat="45.02863" lon="4.07876">
        <ele>966.7</ele>
        <time>2023-02-07T16:08:16Z</time>
      </trkpt>
      <trkpt lat="45.02868" lon="4.07863">
        <ele>968.5</ele>
        <time>2023-02-07T16:08:16Z</time>
      </trkpt>
      <trkpt lat="45.02862" lon="4.07853">
        <ele>970.1</ele>
        <time>2023-02-07T16:08:16Z</time>
      </trkpt>
      <trkpt lat="45.02845" lon="4.07838">
        <ele>971.3</ele>
        <time>2023-02-07T16:08:16Z</time>
      </trkpt>
      <trkpt lat="45.0285" lon="4.07828">
        <ele>973.5</ele>
        <time>2023-02-07T16:08:16Z</time>
      </trkpt>
      <trkpt lat="45.0286" lon="4.07823">
        <ele>975.7</ele>
        <time>2023-02-07T16:08:16Z</time>
      </trkpt>
      <trkpt lat="45.02856" lon="4.07813">
        <ele>977.9</ele>
        <time>2023-02-07T16:08:16Z</time>
      </trkpt>
      <trkpt lat="45.02858" lon="4.07803">
        <ele>981</ele>
        <time>2023-02-07T16:08:16Z</time>
      </trkpt>
      <trkpt lat="45.02868" lon="4.07805">
        <ele>981.9</ele>
        <time>2023-02-07T16:08:16Z</time>
      </trkpt>
      <trkpt lat="45.02865" lon="4.07794">
        <ele>985</ele>
        <time>2023-02-07T16:08:16Z</time>
      </trkpt>
      <trkpt lat="45.02856" lon="4.07787">
        <ele>985.7</ele>
        <time>2023-02-07T16:08:16Z</time>
      </trkpt>
      <trkpt lat="45.02849" lon="4.07777">
        <ele>986.5</ele>
        <time>2023-02-07T16:08:16Z</time>
      </trkpt>
      <trkpt lat="45.02842" lon="4.07739">
        <ele>990.2</ele>
        <time>2023-02-07T16:08:16Z</time>
      </trkpt>
      <trkpt lat="45.02842" lon="4.07729">
        <ele>990.7</ele>
        <time>2023-02-07T16:08:16Z</time>
      </trkpt>
      <trkpt lat="45.02845" lon="4.07693">
        <ele>987.6</ele>
        <time>2023-02-07T16:08:16Z</time>
      </trkpt>
      <trkpt lat="45.02845" lon="4.07693">
        <ele>987.6</ele>
        <time>2023-02-07T16:08:16Z</time>
      </trkpt>
      <trkpt lat="45.02851" lon="4.07682">
        <ele>987.7</ele>
        <time>2023-02-07T16:08:16Z</time>
      </trkpt>
      <trkpt lat="45.02898" lon="4.0763">
        <ele>987.9</ele>
        <time>2023-02-07T16:08:16Z</time>
      </trkpt>
      <trkpt lat="45.02917" lon="4.07618">
        <ele>987.3</ele>
        <time>2023-02-07T16:08:16Z</time>
      </trkpt>
      <trkpt lat="45.02942" lon="4.07612">
        <ele>986.2</ele>
        <time>2023-02-07T16:08:16Z</time>
      </trkpt>
      <trkpt lat="45.02957" lon="4.07602">
        <ele>982.1</ele>
        <time>2023-02-07T16:08:16Z</time>
      </trkpt>
      <trkpt lat="45.02965" lon="4.07594">
        <ele>978.9</ele>
        <time>2023-02-07T16:08:16Z</time>
      </trkpt>
      <trkpt lat="45.02974" lon="4.07592">
        <ele>977.4</ele>
        <time>2023-02-07T16:08:16Z</time>
      </trkpt>
      <trkpt lat="45.02989" lon="4.07578">
        <ele>968.8</ele>
        <time>2023-02-07T16:08:16Z</time>
      </trkpt>
      <trkpt lat="45.03016" lon="4.07579">
        <ele>960.6</ele>
        <time>2023-02-07T16:08:16Z</time>
      </trkpt>
      <trkpt lat="45.03041" lon="4.07567">
        <ele>950.8</ele>
        <time>2023-02-07T16:08:16Z</time>
      </trkpt>
      <trkpt lat="45.03068" lon="4.07579">
        <ele>947</ele>
        <time>2023-02-07T16:08:16Z</time>
      </trkpt>
      <trkpt lat="45.03083" lon="4.07578">
        <ele>943.1</ele>
        <time>2023-02-07T16:08:16Z</time>
      </trkpt>
      <trkpt lat="45.03099" lon="4.07582">
        <ele>939.8</ele>
        <time>2023-02-07T16:08:16Z</time>
      </trkpt>
      <trkpt lat="45.03106" lon="4.07571">
        <ele>936.8</ele>
        <time>2023-02-07T16:08:16Z</time>
      </trkpt>
      <trkpt lat="45.03104" lon="4.07561">
        <ele>935.9</ele>
        <time>2023-02-07T16:08:16Z</time>
      </trkpt>
      <trkpt lat="45.03108" lon="4.0755">
        <ele>934</ele>
        <time>2023-02-07T16:08:16Z</time>
      </trkpt>
      <trkpt lat="45.03112" lon="4.07539">
        <ele>932</ele>
        <time>2023-02-07T16:08:16Z</time>
      </trkpt>
      <trkpt lat="45.03115" lon="4.0753">
        <ele>930.4</ele>
        <time>2023-02-07T16:08:16Z</time>
      </trkpt>
      <trkpt lat="45.03115" lon="4.07518">
        <ele>928.9</ele>
        <time>2023-02-07T16:08:16Z</time>
      </trkpt>
      <trkpt lat="45.03118" lon="4.07514">
        <ele>927.8</ele>
        <time>2023-02-07T16:08:16Z</time>
      </trkpt>
      <trkpt lat="45.03126" lon="4.07517">
        <ele>926.9</ele>
        <time>2023-02-07T16:08:16Z</time>
      </trkpt>
      <trkpt lat="45.03126" lon="4.07517">
        <ele>926.9</ele>
        <time>2023-02-07T16:08:16Z</time>
      </trkpt>
      <trkpt lat="45.0314" lon="4.07522">
        <ele>924.7</ele>
        <time>2023-02-07T16:08:16Z</time>
      </trkpt>
      <trkpt lat="45.03139" lon="4.07509">
        <ele>924.3</ele>
        <time>2023-02-07T16:08:16Z</time>
      </trkpt>
      <trkpt lat="45.03145" lon="4.07487">
        <ele>923.4</ele>
        <time>2023-02-07T16:08:16Z</time>
      </trkpt>
      <trkpt lat="45.03151" lon="4.07477">
        <ele>922.8</ele>
        <time>2023-02-07T16:08:16Z</time>
      </trkpt>
      <trkpt lat="45.03157" lon="4.07473">
        <ele>922</ele>
        <time>2023-02-07T16:08:16Z</time>
      </trkpt>
      <trkpt lat="45.03189" lon="4.07475">
        <ele>920.2</ele>
        <time>2023-02-07T16:08:16Z</time>
      </trkpt>
      <trkpt lat="45.03208" lon="4.07458">
        <ele>918.5</ele>
        <time>2023-02-07T16:08:16Z</time>
      </trkpt>
      <trkpt lat="45.03235" lon="4.07422">
        <ele>915.4</ele>
        <time>2023-02-07T16:08:16Z</time>
      </trkpt>
      <trkpt lat="45.03238" lon="4.07412">
        <ele>914.7</ele>
        <time>2023-02-07T16:08:16Z</time>
      </trkpt>
      <trkpt lat="45.03237" lon="4.07388">
        <ele>913.9</ele>
        <time>2023-02-07T16:08:16Z</time>
      </trkpt>
      <trkpt lat="45.03247" lon="4.07354">
        <ele>911.6</ele>
        <time>2023-02-07T16:08:16Z</time>
      </trkpt>
      <trkpt lat="45.03254" lon="4.0735">
        <ele>910.9</ele>
        <time>2023-02-07T16:08:16Z</time>
      </trkpt>
      <trkpt lat="45.03261" lon="4.07354">
        <ele>910.7</ele>
        <time>2023-02-07T16:08:16Z</time>
      </trkpt>
      <trkpt lat="45.0328" lon="4.07353">
        <ele>909.3</ele>
        <time>2023-02-07T16:08:16Z</time>
      </trkpt>
      <trkpt lat="45.03287" lon="4.0735">
        <ele>908.7</ele>
        <time>2023-02-07T16:08:16Z</time>
      </trkpt>
      <trkpt lat="45.03287" lon="4.0735">
        <ele>908.7</ele>
        <time>2023-02-07T16:08:16Z</time>
      </trkpt>
      <trkpt lat="45.03323" lon="4.07302">
        <ele>905.3</ele>
        <time>2023-02-07T16:08:16Z</time>
      </trkpt>
      <trkpt lat="45.03375" lon="4.07269">
        <ele>901.8</ele>
        <time>2023-02-07T16:08:16Z</time>
      </trkpt>
      <trkpt lat="45.03405" lon="4.07262">
        <ele>900.1</ele>
        <time>2023-02-07T16:08:16Z</time>
      </trkpt>
      <trkpt lat="45.03447" lon="4.07259">
        <ele>896.1</ele>
        <time>2023-02-07T16:08:16Z</time>
      </trkpt>
      <trkpt lat="45.03444" lon="4.07247">
        <ele>896</ele>
        <time>2023-02-07T16:08:16Z</time>
      </trkpt>
      <trkpt lat="45.03438" lon="4.07238">
        <ele>896.2</ele>
        <time>2023-02-07T16:08:16Z</time>
      </trkpt>
      <trkpt lat="45.034" lon="4.07187">
        <ele>898.1</ele>
        <time>2023-02-07T16:08:16Z</time>
      </trkpt>
      <trkpt lat="45.03396" lon="4.07177">
        <ele>898.4</ele>
        <time>2023-02-07T16:08:16Z</time>
      </trkpt>
      <trkpt lat="45.03393" lon="4.07164">
        <ele>898.4</ele>
        <time>2023-02-07T16:08:16Z</time>
      </trkpt>
      <trkpt lat="45.03395" lon="4.07152">
        <ele>897.8</ele>
        <time>2023-02-07T16:08:16Z</time>
      </trkpt>
      <trkpt lat="45.03394" lon="4.07142">
        <ele>897.5</ele>
        <time>2023-02-07T16:08:16Z</time>
      </trkpt>
      <trkpt lat="45.03399" lon="4.071">
        <ele>895.9</ele>
        <time>2023-02-07T16:08:16Z</time>
      </trkpt>
      <trkpt lat="45.03396" lon="4.07063">
        <ele>895.6</ele>
        <time>2023-02-07T16:08:16Z</time>
      </trkpt>
      <trkpt lat="45.03398" lon="4.07027">
        <ele>894.2</ele>
        <time>2023-02-07T16:08:16Z</time>
      </trkpt>
      <trkpt lat="45.03411" lon="4.06994">
        <ele>889</ele>
        <time>2023-02-07T16:08:16Z</time>
      </trkpt>
      <trkpt lat="45.03418" lon="4.06986">
        <ele>887.3</ele>
        <time>2023-02-07T16:08:16Z</time>
      </trkpt>
      <trkpt lat="45.03432" lon="4.06966">
        <ele>883.6</ele>
        <time>2023-02-07T16:08:16Z</time>
      </trkpt>
      <trkpt lat="45.03468" lon="4.06935">
        <ele>877.5</ele>
        <time>2023-02-07T16:08:16Z</time>
      </trkpt>
      <trkpt lat="45.03474" lon="4.06926">
        <ele>876.6</ele>
        <time>2023-02-07T16:08:16Z</time>
      </trkpt>
      <trkpt lat="45.03487" lon="4.06912">
        <ele>875.2</ele>
        <time>2023-02-07T16:08:16Z</time>
      </trkpt>
      <trkpt lat="45.03487" lon="4.06912">
        <ele>875.2</ele>
        <time>2023-02-07T16:08:16Z</time>
      </trkpt>
      <trkpt lat="45.03513" lon="4.06886">
        <ele>872.3</ele>
        <time>2023-02-07T16:08:16Z</time>
      </trkpt>
      <trkpt lat="45.03527" lon="4.06879">
        <ele>871.6</ele>
        <time>2023-02-07T16:08:16Z</time>
      </trkpt>
      <trkpt lat="45.03533" lon="4.06873">
        <ele>871</ele>
        <time>2023-02-07T16:08:16Z</time>
      </trkpt>
      <trkpt lat="45.03544" lon="4.06849">
        <ele>868.9</ele>
        <time>2023-02-07T16:08:16Z</time>
      </trkpt>
      <trkpt lat="45.03563" lon="4.06842">
        <ele>866.8</ele>
        <time>2023-02-07T16:08:16Z</time>
      </trkpt>
      <trkpt lat="45.03633" lon="4.06836">
        <ele>858</ele>
        <time>2023-02-07T16:08:16Z</time>
      </trkpt>
      <trkpt lat="45.03645" lon="4.06838">
        <ele>856.7</ele>
        <time>2023-02-07T16:08:16Z</time>
      </trkpt>
      <trkpt lat="45.03646" lon="4.06609">
        <ele>839.1</ele>
        <time>2023-02-07T16:08:16Z</time>
      </trkpt>
      <trkpt lat="45.0361" lon="4.06361">
        <ele>828.9</ele>
        <time>2023-02-07T16:08:16Z</time>
      </trkpt>
      <trkpt lat="45.0359" lon="4.06293">
        <ele>822.5</ele>
        <time>2023-02-07T16:08:16Z</time>
      </trkpt>
      <trkpt lat="45.03579" lon="4.06299">
        <ele>822.6</ele>
        <time>2023-02-07T16:08:16Z</time>
      </trkpt>
      <trkpt lat="45.03579" lon="4.06299">
        <ele>822.6</ele>
        <time>2023-02-07T16:08:16Z</time>
      </trkpt>
      <trkpt lat="45.03522" lon="4.06302">
        <ele>824.1</ele>
        <time>2023-02-07T16:08:16Z</time>
      </trkpt>
      <trkpt lat="45.03502" lon="4.06297">
        <ele>824.9</ele>
        <time>2023-02-07T16:08:16Z</time>
      </trkpt>
      <trkpt lat="45.03494" lon="4.06301">
        <ele>826.3</ele>
        <time>2023-02-07T16:08:16Z</time>
      </trkpt>
      <trkpt lat="45.03485" lon="4.063">
        <ele>829.3</ele>
        <time>2023-02-07T16:08:16Z</time>
      </trkpt>
      <trkpt lat="45.0348" lon="4.06291">
        <ele>831.6</ele>
        <time>2023-02-07T16:08:16Z</time>
      </trkpt>
      <trkpt lat="45.03468" lon="4.06238">
        <ele>838.7</ele>
        <time>2023-02-07T16:08:16Z</time>
      </trkpt>
      <trkpt lat="45.03457" lon="4.0622">
        <ele>840.2</ele>
        <time>2023-02-07T16:08:16Z</time>
      </trkpt>
      <trkpt lat="45.03429" lon="4.06232">
        <ele>846.5</ele>
        <time>2023-02-07T16:08:16Z</time>
      </trkpt>
      <trkpt lat="45.03429" lon="4.06232">
        <ele>846.5</ele>
        <time>2023-02-07T16:08:16Z</time>
      </trkpt>
      <trkpt lat="45.03457" lon="4.0622">
        <ele>840.2</ele>
        <time>2023-02-07T16:08:16Z</time>
      </trkpt>
      <trkpt lat="45.03465" lon="4.06198">
        <ele>837.2</ele>
        <time>2023-02-07T16:08:16Z</time>
      </trkpt>
      <trkpt lat="45.03484" lon="4.06169">
        <ele>832</ele>
        <time>2023-02-07T16:08:16Z</time>
      </trkpt>
      <trkpt lat="45.03487" lon="4.06158">
        <ele>831.1</ele>
        <time>2023-02-07T16:08:16Z</time>
      </trkpt>
      <trkpt lat="45.03507" lon="4.0615">
        <ele>828.9</ele>
        <time>2023-02-07T16:08:16Z</time>
      </trkpt>
      <trkpt lat="45.03556" lon="4.06103">
        <ele>825</ele>
        <time>2023-02-07T16:08:16Z</time>
      </trkpt>
      <trkpt lat="45.03642" lon="4.06069">
        <ele>819.9</ele>
        <time>2023-02-07T16:08:16Z</time>
      </trkpt>
      <trkpt lat="45.03643" lon="4.06015">
        <ele>819.9</ele>
        <time>2023-02-07T16:08:16Z</time>
      </trkpt>
      <trkpt lat="45.03643" lon="4.06015">
        <ele>819.9</ele>
        <time>2023-02-07T16:08:16Z</time>
      </trkpt>
      <trkpt lat="45.0367" lon="4.05301">
        <ele>815.9</ele>
        <time>2023-02-07T16:08:16Z</time>
      </trkpt>
      <trkpt lat="45.0367" lon="4.05301">
        <ele>815.9</ele>
        <time>2023-02-07T16:08:16Z</time>
      </trkpt>
      <trkpt lat="45.03669" lon="4.05079">
        <ele>822.2</ele>
        <time>2023-02-07T16:08:16Z</time>
      </trkpt>
      <trkpt lat="45.03693" lon="4.04843">
        <ele>816.4</ele>
        <time>2023-02-07T16:08:16Z</time>
      </trkpt>
      <trkpt lat="45.0369" lon="4.04603">
        <ele>812.6</ele>
        <time>2023-02-07T16:08:16Z</time>
      </trkpt>
      <trkpt lat="45.03698" lon="4.04587">
        <ele>812.3</ele>
        <time>2023-02-07T16:08:16Z</time>
      </trkpt>
      <trkpt lat="45.03702" lon="4.04558">
        <ele>812.2</ele>
        <time>2023-02-07T16:08:16Z</time>
      </trkpt>
      <trkpt lat="45.03702" lon="4.04558">
        <ele>812.2</ele>
        <time>2023-02-07T16:08:16Z</time>
      </trkpt>
      <trkpt lat="45.03705" lon="4.04525">
        <ele>811.9</ele>
        <time>2023-02-07T16:08:16Z</time>
      </trkpt>
      <trkpt lat="45.03718" lon="4.04421">
        <ele>805.1</ele>
        <time>2023-02-07T16:08:16Z</time>
      </trkpt>
      <trkpt lat="45.03717" lon="4.04374">
        <ele>802.9</ele>
        <time>2023-02-07T16:08:16Z</time>
      </trkpt>
      <trkpt lat="45.0371" lon="4.0431">
        <ele>799.9</ele>
        <time>2023-02-07T16:08:16Z</time>
      </trkpt>
      <trkpt lat="45.0372" lon="4.03975">
        <ele>789.4</ele>
        <time>2023-02-07T16:08:16Z</time>
      </trkpt>
      <trkpt lat="45.03761" lon="4.03871">
        <ele>779.6</ele>
        <time>2023-02-07T16:08:16Z</time>
      </trkpt>
      <trkpt lat="45.03774" lon="4.03811">
        <ele>774.8</ele>
        <time>2023-02-07T16:08:16Z</time>
      </trkpt>
      <trkpt lat="45.0377" lon="4.03779">
        <ele>772.7</ele>
        <time>2023-02-07T16:08:16Z</time>
      </trkpt>
      <trkpt lat="45.03773" lon="4.03768">
        <ele>771.9</ele>
        <time>2023-02-07T16:08:16Z</time>
      </trkpt>
      <trkpt lat="45.03793" lon="4.03752">
        <ele>769.9</ele>
        <time>2023-02-07T16:08:16Z</time>
      </trkpt>
      <trkpt lat="45.03797" lon="4.03742">
        <ele>769.8</ele>
        <time>2023-02-07T16:08:16Z</time>
      </trkpt>
      <trkpt lat="45.03793" lon="4.03715">
        <ele>770.2</ele>
        <time>2023-02-07T16:08:16Z</time>
      </trkpt>
      <trkpt lat="45.03802" lon="4.03689">
        <ele>770</ele>
        <time>2023-02-07T16:08:16Z</time>
      </trkpt>
      <trkpt lat="45.03775" lon="4.03589">
        <ele>769.6</ele>
        <time>2023-02-07T16:08:16Z</time>
      </trkpt>
      <trkpt lat="45.03775" lon="4.03589">
        <ele>769.6</ele>
        <time>2023-02-07T16:08:16Z</time>
      </trkpt>
      <trkpt lat="45.03767" lon="4.03552">
        <ele>768.8</ele>
        <time>2023-02-07T16:08:16Z</time>
      </trkpt>
      <trkpt lat="45.0377" lon="4.03244">
        <ele>770.2</ele>
        <time>2023-02-07T16:08:16Z</time>
      </trkpt>
      <trkpt lat="45.03785" lon="4.03168">
        <ele>772.8</ele>
        <time>2023-02-07T16:08:16Z</time>
      </trkpt>
      <trkpt lat="45.03802" lon="4.02866">
        <ele>788.2</ele>
        <time>2023-02-07T16:08:16Z</time>
      </trkpt>
      <trkpt lat="45.03798" lon="4.02848">
        <ele>790</ele>
        <time>2023-02-07T16:08:16Z</time>
      </trkpt>
      <trkpt lat="45.03777" lon="4.0282">
        <ele>787.6</ele>
        <time>2023-02-07T16:08:16Z</time>
      </trkpt>
      <trkpt lat="45.03776" lon="4.02808">
        <ele>787.8</ele>
        <time>2023-02-07T16:08:16Z</time>
      </trkpt>
      <trkpt lat="45.03782" lon="4.02784">
        <ele>787.4</ele>
        <time>2023-02-07T16:08:16Z</time>
      </trkpt>
      <trkpt lat="45.03797" lon="4.02758">
        <ele>786.3</ele>
        <time>2023-02-07T16:08:16Z</time>
      </trkpt>
      <trkpt lat="45.03807" lon="4.02752">
        <ele>787.4</ele>
        <time>2023-02-07T16:08:16Z</time>
      </trkpt>
      <trkpt lat="45.03807" lon="4.02752">
        <ele>787.4</ele>
        <time>2023-02-07T16:08:16Z</time>
      </trkpt>
      <trkpt lat="45.03812" lon="4.0272">
        <ele>785.8</ele>
        <time>2023-02-07T16:08:16Z</time>
      </trkpt>
      <trkpt lat="45.03825" lon="4.02715">
        <ele>786.8</ele>
        <time>2023-02-07T16:08:16Z</time>
      </trkpt>
      <trkpt lat="45.03833" lon="4.02706">
        <ele>786.2</ele>
        <time>2023-02-07T16:08:16Z</time>
      </trkpt>
      <trkpt lat="45.03839" lon="4.02691">
        <ele>784.6</ele>
        <time>2023-02-07T16:08:16Z</time>
      </trkpt>
      <trkpt lat="45.03846" lon="4.02657">
        <ele>782.1</ele>
        <time>2023-02-07T16:08:16Z</time>
      </trkpt>
      <trkpt lat="45.0385" lon="4.02649">
        <ele>781.3</ele>
        <time>2023-02-07T16:08:16Z</time>
      </trkpt>
      <trkpt lat="45.03859" lon="4.02643">
        <ele>780.3</ele>
        <time>2023-02-07T16:08:16Z</time>
      </trkpt>
      <trkpt lat="45.03872" lon="4.02644">
        <ele>779.8</ele>
        <time>2023-02-07T16:08:16Z</time>
      </trkpt>
      <trkpt lat="45.03883" lon="4.02649">
        <ele>779.6</ele>
        <time>2023-02-07T16:08:16Z</time>
      </trkpt>
      <trkpt lat="45.03894" lon="4.02648">
        <ele>779.7</ele>
        <time>2023-02-07T16:08:16Z</time>
      </trkpt>
      <trkpt lat="45.0392" lon="4.02629">
        <ele>781.4</ele>
        <time>2023-02-07T16:08:16Z</time>
      </trkpt>
      <trkpt lat="45.03983" lon="4.02605">
        <ele>771.6</ele>
        <time>2023-02-07T16:08:16Z</time>
      </trkpt>
      <trkpt lat="45.03989" lon="4.02591">
        <ele>769.3</ele>
        <time>2023-02-07T16:08:16Z</time>
      </trkpt>
      <trkpt lat="45.03992" lon="4.02569">
        <ele>766.8</ele>
        <time>2023-02-07T16:08:16Z</time>
      </trkpt>
      <trkpt lat="45.03998" lon="4.02555">
        <ele>763.8</ele>
        <time>2023-02-07T16:08:16Z</time>
      </trkpt>
      <trkpt lat="45.04001" lon="4.02536">
        <ele>763.2</ele>
        <time>2023-02-07T16:08:16Z</time>
      </trkpt>
      <trkpt lat="45.03998" lon="4.025">
        <ele>760.4</ele>
        <time>2023-02-07T16:08:16Z</time>
      </trkpt>
      <trkpt lat="45.0399" lon="4.02479">
        <ele>759.1</ele>
        <time>2023-02-07T16:08:16Z</time>
      </trkpt>
      <trkpt lat="45.03979" lon="4.02467">
        <ele>758.3</ele>
        <time>2023-02-07T16:08:16Z</time>
      </trkpt>
      <trkpt lat="45.03971" lon="4.02468">
        <ele>758.7</ele>
        <time>2023-02-07T16:08:16Z</time>
      </trkpt>
      <trkpt lat="45.03934" lon="4.02484">
        <ele>758.4</ele>
        <time>2023-02-07T16:08:16Z</time>
      </trkpt>
      <trkpt lat="45.03889" lon="4.0248">
        <ele>755.6</ele>
        <time>2023-02-07T16:08:16Z</time>
      </trkpt>
      <trkpt lat="45.03881" lon="4.02477">
        <ele>755.2</ele>
        <time>2023-02-07T16:08:16Z</time>
      </trkpt>
      <trkpt lat="45.03872" lon="4.02467">
        <ele>753.9</ele>
        <time>2023-02-07T16:08:16Z</time>
      </trkpt>
      <trkpt lat="45.0386" lon="4.02423">
        <ele>752.8</ele>
        <time>2023-02-07T16:08:16Z</time>
      </trkpt>
      <trkpt lat="45.0386" lon="4.02423">
        <ele>752.8</ele>
        <time>2023-02-07T16:08:16Z</time>
      </trkpt>
      <trkpt lat="45.0386" lon="4.02408">
        <ele>754.6</ele>
        <time>2023-02-07T16:08:16Z</time>
      </trkpt>
      <trkpt lat="45.03878" lon="4.0238">
        <ele>756.6</ele>
        <time>2023-02-07T16:08:16Z</time>
      </trkpt>
      <trkpt lat="45.03883" lon="4.02367">
        <ele>757.3</ele>
        <time>2023-02-07T16:08:16Z</time>
      </trkpt>
      <trkpt lat="45.03951" lon="4.01907">
        <ele>788.1</ele>
        <time>2023-02-07T16:08:16Z</time>
      </trkpt>
      <trkpt lat="45.03964" lon="4.01867">
        <ele>793.1</ele>
        <time>2023-02-07T16:08:16Z</time>
      </trkpt>
      <trkpt lat="45.04" lon="4.0181">
        <ele>797.9</ele>
        <time>2023-02-07T16:08:16Z</time>
      </trkpt>
      <trkpt lat="45.04038" lon="4.01758">
        <ele>803.2</ele>
        <time>2023-02-07T16:08:16Z</time>
      </trkpt>
      <trkpt lat="45.04043" lon="4.01745">
        <ele>804.7</ele>
        <time>2023-02-07T16:08:16Z</time>
      </trkpt>
      <trkpt lat="45.04047" lon="4.01702">
        <ele>806</ele>
        <time>2023-02-07T16:08:16Z</time>
      </trkpt>
      <trkpt lat="45.04045" lon="4.0166">
        <ele>806.3</ele>
        <time>2023-02-07T16:08:16Z</time>
      </trkpt>
      <trkpt lat="45.04039" lon="4.01631">
        <ele>807.3</ele>
        <time>2023-02-07T16:08:16Z</time>
      </trkpt>
      <trkpt lat="45.04026" lon="4.016">
        <ele>807.2</ele>
        <time>2023-02-07T16:08:16Z</time>
      </trkpt>
      <trkpt lat="45.03997" lon="4.0155">
        <ele>808</ele>
        <time>2023-02-07T16:08:16Z</time>
      </trkpt>
      <trkpt lat="45.03985" lon="4.01515">
        <ele>808.4</ele>
        <time>2023-02-07T16:08:16Z</time>
      </trkpt>
      <trkpt lat="45.03962" lon="4.01395">
        <ele>812.6</ele>
        <time>2023-02-07T16:08:16Z</time>
      </trkpt>
      <trkpt lat="45.0396" lon="4.01179">
        <ele>804.2</ele>
        <time>2023-02-07T16:08:16Z</time>
      </trkpt>
      <trkpt lat="45.0396" lon="4.01179">
        <ele>804.2</ele>
        <time>2023-02-07T16:08:16Z</time>
      </trkpt>
      <trkpt lat="45.03925" lon="4.00891">
        <ele>785.6</ele>
        <time>2023-02-07T16:08:16Z</time>
      </trkpt>
      <trkpt lat="45.03956" lon="4.00769">
        <ele>781.7</ele>
        <time>2023-02-07T16:08:16Z</time>
      </trkpt>
      <trkpt lat="45.03957" lon="4.00758">
        <ele>781.6</ele>
        <time>2023-02-07T16:08:16Z</time>
      </trkpt>
      <trkpt lat="45.03888" lon="4.00524">
        <ele>784.6</ele>
        <time>2023-02-07T16:08:16Z</time>
      </trkpt>
      <trkpt lat="45.03883" lon="4.00487">
        <ele>782</ele>
        <time>2023-02-07T16:08:16Z</time>
      </trkpt>
      <trkpt lat="45.03819" lon="4.00263">
        <ele>764.7</ele>
        <time>2023-02-07T16:08:16Z</time>
      </trkpt>
      <trkpt lat="45.03816" lon="4.00227">
        <ele>764.8</ele>
        <time>2023-02-07T16:08:16Z</time>
      </trkpt>
      <trkpt lat="45.03818" lon="4.0021">
        <ele>764.9</ele>
        <time>2023-02-07T16:08:16Z</time>
      </trkpt>
      <trkpt lat="45.03824" lon="4.0019">
        <ele>764.7</ele>
        <time>2023-02-07T16:08:16Z</time>
      </trkpt>
      <trkpt lat="45.03871" lon="4.00092">
        <ele>765.7</ele>
        <time>2023-02-07T16:08:16Z</time>
      </trkpt>
      <trkpt lat="45.03914" lon="3.99895">
        <ele>763.6</ele>
        <time>2023-02-07T16:08:16Z</time>
      </trkpt>
      <trkpt lat="45.03916" lon="3.99866">
        <ele>762.3</ele>
        <time>2023-02-07T16:08:16Z</time>
      </trkpt>
      <trkpt lat="45.03944" lon="3.99792">
        <ele>760.5</ele>
        <time>2023-02-07T16:08:16Z</time>
      </trkpt>
      <trkpt lat="45.03966" lon="3.99739">
        <ele>758.7</ele>
        <time>2023-02-07T16:08:16Z</time>
      </trkpt>
      <trkpt lat="45.03966" lon="3.99739">
        <ele>758.7</ele>
        <time>2023-02-07T16:08:16Z</time>
      </trkpt>
      <trkpt lat="45.04046" lon="3.99506">
        <ele>745.9</ele>
        <time>2023-02-07T16:08:16Z</time>
      </trkpt>
      <trkpt lat="45.04072" lon="3.99392">
        <ele>739.5</ele>
        <time>2023-02-07T16:08:16Z</time>
      </trkpt>
      <trkpt lat="45.04069" lon="3.99373">
        <ele>737.8</ele>
        <time>2023-02-07T16:08:16Z</time>
      </trkpt>
      <trkpt lat="45.0408" lon="3.99351">
        <ele>736.2</ele>
        <time>2023-02-07T16:08:16Z</time>
      </trkpt>
      <trkpt lat="45.04102" lon="3.99328">
        <ele>734.8</ele>
        <time>2023-02-07T16:08:16Z</time>
      </trkpt>
      <trkpt lat="45.04132" lon="3.99295">
        <ele>732.9</ele>
        <time>2023-02-07T16:08:16Z</time>
      </trkpt>
      <trkpt lat="45.04124" lon="3.99288">
        <ele>731.9</ele>
        <time>2023-02-07T16:08:16Z</time>
      </trkpt>
      <trkpt lat="45.04124" lon="3.99288">
        <ele>731.9</ele>
        <time>2023-02-07T16:08:16Z</time>
      </trkpt>
      <trkpt lat="45.04115" lon="3.99291">
        <ele>731.7</ele>
        <time>2023-02-07T16:08:16Z</time>
      </trkpt>
      <trkpt lat="45.04106" lon="3.99288">
        <ele>730.9</ele>
        <time>2023-02-07T16:08:16Z</time>
      </trkpt>
      <trkpt lat="45.04099" lon="3.9928">
        <ele>729.8</ele>
        <time>2023-02-07T16:08:16Z</time>
      </trkpt>
      <trkpt lat="45.04089" lon="3.99275">
        <ele>729</ele>
        <time>2023-02-07T16:08:16Z</time>
      </trkpt>
      <trkpt lat="45.04009" lon="3.99283">
        <ele>725.1</ele>
        <time>2023-02-07T16:08:16Z</time>
      </trkpt>
      <trkpt lat="45.03948" lon="3.99293">
        <ele>721.4</ele>
        <time>2023-02-07T16:08:16Z</time>
      </trkpt>
      <trkpt lat="45.03928" lon="3.9929">
        <ele>720.2</ele>
        <time>2023-02-07T16:08:16Z</time>
      </trkpt>
      <trkpt lat="45.03919" lon="3.9928">
        <ele>718.4</ele>
        <time>2023-02-07T16:08:16Z</time>
      </trkpt>
      <trkpt lat="45.0392" lon="3.99267">
        <ele>717.4</ele>
        <time>2023-02-07T16:08:16Z</time>
      </trkpt>
      <trkpt lat="45.0392" lon="3.99267">
        <ele>717.4</ele>
        <time>2023-02-07T16:08:16Z</time>
      </trkpt>
      <trkpt lat="45.03922" lon="3.99256">
        <ele>716.7</ele>
        <time>2023-02-07T16:08:16Z</time>
      </trkpt>
      <trkpt lat="45.03918" lon="3.9924">
        <ele>715.7</ele>
        <time>2023-02-07T16:08:16Z</time>
      </trkpt>
      <trkpt lat="45.03894" lon="3.99223">
        <ele>715</ele>
        <time>2023-02-07T16:08:16Z</time>
      </trkpt>
      <trkpt lat="45.0382" lon="3.99068">
        <ele>699</ele>
        <time>2023-02-07T16:08:16Z</time>
      </trkpt>
      <trkpt lat="45.03806" lon="3.99054">
        <ele>698</ele>
        <time>2023-02-07T16:08:16Z</time>
      </trkpt>
      <trkpt lat="45.03796" lon="3.99047">
        <ele>697.8</ele>
        <time>2023-02-07T16:08:16Z</time>
      </trkpt>
      <trkpt lat="45.03787" lon="3.99036">
        <ele>697.8</ele>
        <time>2023-02-07T16:08:16Z</time>
      </trkpt>
      <trkpt lat="45.03773" lon="3.98933">
        <ele>693.2</ele>
        <time>2023-02-07T16:08:16Z</time>
      </trkpt>
      <trkpt lat="45.03747" lon="3.98872">
        <ele>689.4</ele>
        <time>2023-02-07T16:08:16Z</time>
      </trkpt>
      <trkpt lat="45.03737" lon="3.98784">
        <ele>695.9</ele>
        <time>2023-02-07T16:08:16Z</time>
      </trkpt>
      <trkpt lat="45.03729" lon="3.98762">
        <ele>696.8</ele>
        <time>2023-02-07T16:08:16Z</time>
      </trkpt>
      <trkpt lat="45.0372" lon="3.98752">
        <ele>697.2</ele>
        <time>2023-02-07T16:08:16Z</time>
      </trkpt>
      <trkpt lat="45.03712" lon="3.98747">
        <ele>698.9</ele>
        <time>2023-02-07T16:08:16Z</time>
      </trkpt>
      <trkpt lat="45.03674" lon="3.98747">
        <ele>703.3</ele>
        <time>2023-02-07T16:08:16Z</time>
      </trkpt>
      <trkpt lat="45.03663" lon="3.98741">
        <ele>704.2</ele>
        <time>2023-02-07T16:08:16Z</time>
      </trkpt>
      <trkpt lat="45.03651" lon="3.98725">
        <ele>704.3</ele>
        <time>2023-02-07T16:08:16Z</time>
      </trkpt>
      <trkpt lat="45.03664" lon="3.98724">
        <ele>704.8</ele>
        <time>2023-02-07T16:08:16Z</time>
      </trkpt>
      <trkpt lat="45.03664" lon="3.98724">
        <ele>704.8</ele>
        <time>2023-02-07T16:08:16Z</time>
      </trkpt>
      <trkpt lat="45.03683" lon="3.98716">
        <ele>706.2</ele>
        <time>2023-02-07T16:08:16Z</time>
      </trkpt>
      <trkpt lat="45.03745" lon="3.98636">
        <ele>707.6</ele>
        <time>2023-02-07T16:08:16Z</time>
      </trkpt>
      <trkpt lat="45.0385" lon="3.98563">
        <ele>705.2</ele>
        <time>2023-02-07T16:08:16Z</time>
      </trkpt>
      <trkpt lat="45.03926" lon="3.98525">
        <ele>696.5</ele>
        <time>2023-02-07T16:08:16Z</time>
      </trkpt>
      <trkpt lat="45.03952" lon="3.98497">
        <ele>692.9</ele>
        <time>2023-02-07T16:08:16Z</time>
      </trkpt>
      <trkpt lat="45.03987" lon="3.98421">
        <ele>689.5</ele>
        <time>2023-02-07T16:08:16Z</time>
      </trkpt>
      <trkpt lat="45.04009" lon="3.98404">
        <ele>687.3</ele>
        <time>2023-02-07T16:08:16Z</time>
      </trkpt>
      <trkpt lat="45.04101" lon="3.98376">
        <ele>680.3</ele>
        <time>2023-02-07T16:08:16Z</time>
      </trkpt>
      <trkpt lat="45.04101" lon="3.98376">
        <ele>680.3</ele>
        <time>2023-02-07T16:08:16Z</time>
      </trkpt>
      <trkpt lat="45.04128" lon="3.98367">
        <ele>678.5</ele>
        <time>2023-02-07T16:08:16Z</time>
      </trkpt>
      <trkpt lat="45.04141" lon="3.98351">
        <ele>677.5</ele>
        <time>2023-02-07T16:08:16Z</time>
      </trkpt>
      <trkpt lat="45.04238" lon="3.981">
        <ele>671.5</ele>
        <time>2023-02-07T16:08:16Z</time>
      </trkpt>
      <trkpt lat="45.04276" lon="3.97924">
        <ele>670.9</ele>
        <time>2023-02-07T16:08:16Z</time>
      </trkpt>
      <trkpt lat="45.0431" lon="3.97555">
        <ele>667.2</ele>
        <time>2023-02-07T16:08:16Z</time>
      </trkpt>
      <trkpt lat="45.04307" lon="3.97528">
        <ele>667</ele>
        <time>2023-02-07T16:08:16Z</time>
      </trkpt>
      <trkpt lat="45.04296" lon="3.97488">
        <ele>666.5</ele>
        <time>2023-02-07T16:08:16Z</time>
      </trkpt>
      <trkpt lat="45.04275" lon="3.97452">
        <ele>666.1</ele>
        <time>2023-02-07T16:08:16Z</time>
      </trkpt>
      <trkpt lat="45.04256" lon="3.97409">
        <ele>666</ele>
        <time>2023-02-07T16:08:16Z</time>
      </trkpt>
      <trkpt lat="45.04256" lon="3.97409">
        <ele>666</ele>
        <time>2023-02-07T16:08:16Z</time>
      </trkpt>
      <trkpt lat="45.04251" lon="3.97401">
        <ele>666</ele>
        <time>2023-02-07T16:08:16Z</time>
      </trkpt>
      <trkpt lat="45.04087" lon="3.97375">
        <ele>666</ele>
        <time>2023-02-07T16:08:16Z</time>
      </trkpt>
      <trkpt lat="45.03977" lon="3.97389">
        <ele>666</ele>
        <time>2023-02-07T16:08:16Z</time>
      </trkpt>
      <trkpt lat="45.03969" lon="3.97418">
        <ele>666</ele>
        <time>2023-02-07T16:08:16Z</time>
      </trkpt>
      <trkpt lat="45.03959" lon="3.97447">
        <ele>666</ele>
        <time>2023-02-07T16:08:16Z</time>
      </trkpt>
      <trkpt lat="45.03914" lon="3.97453">
        <ele>666</ele>
        <time>2023-02-07T16:08:16Z</time>
      </trkpt>
      <trkpt lat="45.03899" lon="3.97365">
        <ele>666</ele>
        <time>2023-02-07T16:08:16Z</time>
      </trkpt>
      <trkpt lat="45.03887" lon="3.97264">
        <ele>667</ele>
        <time>2023-02-07T16:08:16Z</time>
      </trkpt>
      <trkpt lat="45.03826" lon="3.97259">
        <ele>667.2</ele>
        <time>2023-02-07T16:08:16Z</time>
      </trkpt>
      <trkpt lat="45.03826" lon="3.97259">
        <ele>667.2</ele>
        <time>2023-02-07T16:08:16Z</time>
      </trkpt>
      <trkpt lat="45.03817" lon="3.97256">
        <ele>667.4</ele>
        <time>2023-02-07T16:08:16Z</time>
      </trkpt>
      <trkpt lat="45.03808" lon="3.97249">
        <ele>667.9</ele>
        <time>2023-02-07T16:08:16Z</time>
      </trkpt>
      <trkpt lat="45.0381" lon="3.97233">
        <ele>667.8</ele>
        <time>2023-02-07T16:08:16Z</time>
      </trkpt>
      <trkpt lat="45.0381" lon="3.97222">
        <ele>667.8</ele>
        <time>2023-02-07T16:08:16Z</time>
      </trkpt>
      <trkpt lat="45.03861" lon="3.96989">
        <ele>669.4</ele>
        <time>2023-02-07T16:08:16Z</time>
      </trkpt>
      <trkpt lat="45.03862" lon="3.96973">
        <ele>669.9</ele>
        <time>2023-02-07T16:08:16Z</time>
      </trkpt>
      <trkpt lat="45.03909" lon="3.96834">
        <ele>672.3</ele>
        <time>2023-02-07T16:08:16Z</time>
      </trkpt>
      <trkpt lat="45.04066" lon="3.96611">
        <ele>672</ele>
        <time>2023-02-07T16:08:16Z</time>
      </trkpt>
      <trkpt lat="45.04197" lon="3.96526">
        <ele>673.2</ele>
        <time>2023-02-07T16:08:16Z</time>
      </trkpt>
      <trkpt lat="45.04215" lon="3.96522">
        <ele>673.4</ele>
        <time>2023-02-07T16:08:16Z</time>
      </trkpt>
      <trkpt lat="45.0424" lon="3.96507">
        <ele>673.3</ele>
        <time>2023-02-07T16:08:16Z</time>
      </trkpt>
      <trkpt lat="45.04336" lon="3.96362">
        <ele>672.9</ele>
        <time>2023-02-07T16:08:16Z</time>
      </trkpt>
      <trkpt lat="45.04336" lon="3.96362">
        <ele>672.9</ele>
        <time>2023-02-07T16:08:16Z</time>
      </trkpt>
      <trkpt lat="45.04631" lon="3.95802">
        <ele>677.3</ele>
        <time>2023-02-07T16:08:16Z</time>
      </trkpt>
      <trkpt lat="45.0463" lon="3.95788">
        <ele>677.3</ele>
        <time>2023-02-07T16:08:16Z</time>
      </trkpt>
      <trkpt lat="45.04652" lon="3.95666">
        <ele>680.7</ele>
        <time>2023-02-07T16:08:16Z</time>
      </trkpt>
      <trkpt lat="45.04682" lon="3.95591">
        <ele>685.4</ele>
        <time>2023-02-07T16:08:16Z</time>
      </trkpt>
      <trkpt lat="45.04708" lon="3.9541">
        <ele>694.9</ele>
        <time>2023-02-07T16:08:16Z</time>
      </trkpt>
      <trkpt lat="45.04721" lon="3.95369">
        <ele>695.8</ele>
        <time>2023-02-07T16:08:16Z</time>
      </trkpt>
      <trkpt lat="45.0474" lon="3.95212">
        <ele>707.6</ele>
        <time>2023-02-07T16:08:16Z</time>
      </trkpt>
      <trkpt lat="45.04746" lon="3.95194">
        <ele>707.9</ele>
        <time>2023-02-07T16:08:16Z</time>
      </trkpt>
      <trkpt lat="45.04799" lon="3.95116">
        <ele>715</ele>
        <time>2023-02-07T16:08:16Z</time>
      </trkpt>
      <trkpt lat="45.04809" lon="3.95074">
        <ele>717.5</ele>
        <time>2023-02-07T16:08:16Z</time>
      </trkpt>
      <trkpt lat="45.04809" lon="3.95074">
        <ele>717.5</ele>
        <time>2023-02-07T16:08:16Z</time>
      </trkpt>
      <trkpt lat="45.04806" lon="3.95032">
        <ele>720.7</ele>
        <time>2023-02-07T16:08:16Z</time>
      </trkpt>
      <trkpt lat="45.04803" lon="3.95018">
        <ele>721.1</ele>
        <time>2023-02-07T16:08:16Z</time>
      </trkpt>
      <trkpt lat="45.04821" lon="3.95003">
        <ele>720.9</ele>
        <time>2023-02-07T16:08:16Z</time>
      </trkpt>
      <trkpt lat="45.04857" lon="3.9481">
        <ele>712.7</ele>
        <time>2023-02-07T16:08:16Z</time>
      </trkpt>
      <trkpt lat="45.04918" lon="3.94665">
        <ele>702.9</ele>
        <time>2023-02-07T16:08:16Z</time>
      </trkpt>
      <trkpt lat="45.04933" lon="3.94644">
        <ele>700.6</ele>
        <time>2023-02-07T16:08:16Z</time>
      </trkpt>
      <trkpt lat="45.04977" lon="3.9461">
        <ele>696.1</ele>
        <time>2023-02-07T16:08:16Z</time>
      </trkpt>
      <trkpt lat="45.05132" lon="3.94366">
        <ele>666.8</ele>
        <time>2023-02-07T16:08:16Z</time>
      </trkpt>
      <trkpt lat="45.05138" lon="3.94346">
        <ele>664.9</ele>
        <time>2023-02-07T16:08:16Z</time>
      </trkpt>
      <trkpt lat="45.05141" lon="3.94325">
        <ele>663.9</ele>
        <time>2023-02-07T16:08:16Z</time>
      </trkpt>
      <trkpt lat="45.05136" lon="3.94302">
        <ele>662.6</ele>
        <time>2023-02-07T16:08:16Z</time>
      </trkpt>
      <trkpt lat="45.05136" lon="3.94302">
        <ele>662.6</ele>
        <time>2023-02-07T16:08:16Z</time>
      </trkpt>
      <trkpt lat="45.05127" lon="3.94263">
        <ele>660.7</ele>
        <time>2023-02-07T16:08:16Z</time>
      </trkpt>
      <trkpt lat="45.05117" lon="3.94266">
        <ele>660</ele>
        <time>2023-02-07T16:08:16Z</time>
      </trkpt>
      <trkpt lat="45.05106" lon="3.94264">
        <ele>658.9</ele>
        <time>2023-02-07T16:08:16Z</time>
      </trkpt>
      <trkpt lat="45.05042" lon="3.94221">
        <ele>654.6</ele>
        <time>2023-02-07T16:08:16Z</time>
      </trkpt>
      <trkpt lat="45.05031" lon="3.94206">
        <ele>654.1</ele>
        <time>2023-02-07T16:08:16Z</time>
      </trkpt>
      <trkpt lat="45.05007" lon="3.94129">
        <ele>651</ele>
        <time>2023-02-07T16:08:16Z</time>
      </trkpt>
      <trkpt lat="45.05009" lon="3.94117">
        <ele>650.8</ele>
        <time>2023-02-07T16:08:16Z</time>
      </trkpt>
      <trkpt lat="45.05009" lon="3.941">
        <ele>650.6</ele>
        <time>2023-02-07T16:08:16Z</time>
      </trkpt>
      <trkpt lat="45.04977" lon="3.9399">
        <ele>646.1</ele>
        <time>2023-02-07T16:08:16Z</time>
      </trkpt>
      <trkpt lat="45.04862" lon="3.93726">
        <ele>634.4</ele>
        <time>2023-02-07T16:08:16Z</time>
      </trkpt>
      <trkpt lat="45.04839" lon="3.93695">
        <ele>632.2</ele>
        <time>2023-02-07T16:08:16Z</time>
      </trkpt>
      <trkpt lat="45.04812" lon="3.93628">
        <ele>628.5</ele>
        <time>2023-02-07T16:08:16Z</time>
      </trkpt>
      <trkpt lat="45.048" lon="3.93578">
        <ele>626.9</ele>
        <time>2023-02-07T16:08:16Z</time>
      </trkpt>
      <trkpt lat="45.04702" lon="3.93369">
        <ele>616.3</ele>
        <time>2023-02-07T16:08:16Z</time>
      </trkpt>
      <trkpt lat="45.04696" lon="3.93364">
        <ele>615.4</ele>
        <time>2023-02-07T16:08:16Z</time>
      </trkpt>
      <trkpt lat="45.04671" lon="3.93288">
        <ele>612.5</ele>
        <time>2023-02-07T16:08:16Z</time>
      </trkpt>
      <trkpt lat="45.04668" lon="3.93251">
        <ele>611.1</ele>
        <time>2023-02-07T16:08:16Z</time>
      </trkpt>
      <trkpt lat="45.04672" lon="3.93165">
        <ele>608.9</ele>
        <time>2023-02-07T16:08:16Z</time>
      </trkpt>
      <trkpt lat="45.04672" lon="3.93165">
        <ele>608.9</ele>
        <time>2023-02-07T16:08:16Z</time>
      </trkpt>
      <trkpt lat="45.04674" lon="3.93032">
        <ele>605.4</ele>
        <time>2023-02-07T16:08:16Z</time>
      </trkpt>
      <trkpt lat="45.04718" lon="3.92971">
        <ele>605.9</ele>
        <time>2023-02-07T16:08:16Z</time>
      </trkpt>
      <trkpt lat="45.04775" lon="3.92907">
        <ele>607.9</ele>
        <time>2023-02-07T16:08:16Z</time>
      </trkpt>
      <trkpt lat="45.04775" lon="3.92907">
        <ele>607.9</ele>
        <time>2023-02-07T16:08:16Z</time>
      </trkpt>
      <trkpt lat="45.0478" lon="3.92899">
        <ele>608.3</ele>
        <time>2023-02-07T16:08:16Z</time>
      </trkpt>
      <trkpt lat="45.04795" lon="3.92782">
        <ele>606.2</ele>
        <time>2023-02-07T16:08:16Z</time>
      </trkpt>
      <trkpt lat="45.04794" lon="3.9277">
        <ele>604.9</ele>
        <time>2023-02-07T16:08:16Z</time>
      </trkpt>
      <trkpt lat="45.04794" lon="3.9277">
        <ele>604.9</ele>
        <time>2023-02-07T16:08:16Z</time>
      </trkpt>
      <trkpt lat="45.04788" lon="3.92761">
        <ele>602.6</ele>
        <time>2023-02-07T16:08:16Z</time>
      </trkpt>
      <trkpt lat="45.04782" lon="3.92744">
        <ele>598.6</ele>
        <time>2023-02-07T16:08:16Z</time>
      </trkpt>
      <trkpt lat="45.04699" lon="3.92659">
        <ele>599.9</ele>
        <time>2023-02-07T16:08:16Z</time>
      </trkpt>
      <trkpt lat="45.047" lon="3.9265">
        <ele>600.4</ele>
        <time>2023-02-07T16:08:16Z</time>
      </trkpt>
      <trkpt lat="45.047" lon="3.9265">
        <ele>600.4</ele>
        <time>2023-02-07T16:08:16Z</time>
      </trkpt>
      <trkpt lat="45.04701" lon="3.92633">
        <ele>601.7</ele>
        <time>2023-02-07T16:08:16Z</time>
      </trkpt>
      <trkpt lat="45.04707" lon="3.92619">
        <ele>603.3</ele>
        <time>2023-02-07T16:08:16Z</time>
      </trkpt>
      <trkpt lat="45.04715" lon="3.92625">
        <ele>602.3</ele>
        <time>2023-02-07T16:08:16Z</time>
      </trkpt>
      <trkpt lat="45.0472" lon="3.92638">
        <ele>601.1</ele>
        <time>2023-02-07T16:08:16Z</time>
      </trkpt>
      <trkpt lat="45.0486" lon="3.92345">
        <ele>601.6</ele>
        <time>2023-02-07T16:08:16Z</time>
      </trkpt>
      <trkpt lat="45.0486" lon="3.92345">
        <ele>601.6</ele>
        <time>2023-02-07T16:08:16Z</time>
      </trkpt>
      <trkpt lat="45.04963" lon="3.92102">
        <ele>600.3</ele>
        <time>2023-02-07T16:08:16Z</time>
      </trkpt>
      <trkpt lat="45.05" lon="3.9204">
        <ele>600.6</ele>
        <time>2023-02-07T16:08:16Z</time>
      </trkpt>
      <trkpt lat="45.05" lon="3.9204">
        <ele>600.6</ele>
        <time>2023-02-07T16:08:16Z</time>
      </trkpt>
      <trkpt lat="45.05061" lon="3.91941">
        <ele>599.6</ele>
        <time>2023-02-07T16:08:16Z</time>
      </trkpt>
      <trkpt lat="45.05065" lon="3.91916">
        <ele>599.7</ele>
        <time>2023-02-07T16:08:16Z</time>
      </trkpt>
      <trkpt lat="45.05081" lon="3.91911">
        <ele>599.3</ele>
        <time>2023-02-07T16:08:16Z</time>
      </trkpt>
      <trkpt lat="45.05206" lon="3.91731">
        <ele>599.2</ele>
        <time>2023-02-07T16:08:16Z</time>
      </trkpt>
      <trkpt lat="45.05206" lon="3.91731">
        <ele>599.2</ele>
        <time>2023-02-07T16:08:16Z</time>
      </trkpt>
      <trkpt lat="45.05209" lon="3.91722">
        <ele>598.9</ele>
        <time>2023-02-07T16:08:16Z</time>
      </trkpt>
      <trkpt lat="45.05281" lon="3.9161">
        <ele>598.7</ele>
        <time>2023-02-07T16:08:16Z</time>
      </trkpt>
      <trkpt lat="45.05288" lon="3.91585">
        <ele>599.9</ele>
        <time>2023-02-07T16:08:16Z</time>
      </trkpt>
      <trkpt lat="45.05293" lon="3.91579">
        <ele>600.1</ele>
        <time>2023-02-07T16:08:16Z</time>
      </trkpt>
      <trkpt lat="45.05302" lon="3.91579">
        <ele>600</ele>
        <time>2023-02-07T16:08:16Z</time>
      </trkpt>
      <trkpt lat="45.05445" lon="3.9144">
        <ele>598.3</ele>
        <time>2023-02-07T16:08:16Z</time>
      </trkpt>
      <trkpt lat="45.05445" lon="3.9144">
        <ele>598.3</ele>
        <time>2023-02-07T16:08:16Z</time>
      </trkpt>
      <trkpt lat="45.05582" lon="3.91325">
        <ele>598.3</ele>
        <time>2023-02-07T16:08:16Z</time>
      </trkpt>
      <trkpt lat="45.05598" lon="3.91329">
        <ele>597.5</ele>
        <time>2023-02-07T16:08:16Z</time>
      </trkpt>
      <trkpt lat="45.05613" lon="3.91324">
        <ele>598.6</ele>
        <time>2023-02-07T16:08:16Z</time>
      </trkpt>
      <trkpt lat="45.0562" lon="3.91319">
        <ele>598.9</ele>
        <time>2023-02-07T16:08:16Z</time>
      </trkpt>
      <trkpt lat="45.05627" lon="3.91307">
        <ele>599.3</ele>
        <time>2023-02-07T16:08:16Z</time>
      </trkpt>
      <trkpt lat="45.05627" lon="3.91307">
        <ele>599.3</ele>
        <time>2023-02-07T16:08:16Z</time>
      </trkpt>
      <trkpt lat="45.05626" lon="3.91245">
        <ele>596.8</ele>
        <time>2023-02-07T16:08:16Z</time>
      </trkpt>
      <trkpt lat="45.05606" lon="3.91124">
        <ele>597.5</ele>
        <time>2023-02-07T16:08:16Z</time>
      </trkpt>
      <trkpt lat="45.05603" lon="3.91114">
        <ele>597.1</ele>
        <time>2023-02-07T16:08:16Z</time>
      </trkpt>
      <trkpt lat="45.05574" lon="3.91054">
        <ele>600.4</ele>
        <time>2023-02-07T16:08:16Z</time>
      </trkpt>
      <trkpt lat="45.05536" lon="3.90907">
        <ele>603.8</ele>
        <time>2023-02-07T16:08:16Z</time>
      </trkpt>
      <trkpt lat="45.05536" lon="3.90907">
        <ele>603.8</ele>
        <time>2023-02-07T16:08:16Z</time>
      </trkpt>
      <trkpt lat="45.05537" lon="3.90893">
        <ele>604.2</ele>
        <time>2023-02-07T16:08:16Z</time>
      </trkpt>
      <trkpt lat="45.05539" lon="3.90883">
        <ele>604.4</ele>
        <time>2023-02-07T16:08:16Z</time>
      </trkpt>
      <trkpt lat="45.0566" lon="3.90529">
        <ele>599.4</ele>
        <time>2023-02-07T16:08:16Z</time>
      </trkpt>
      <trkpt lat="45.05676" lon="3.90502">
        <ele>598.7</ele>
        <time>2023-02-07T16:08:16Z</time>
      </trkpt>
      <trkpt lat="45.05707" lon="3.90431">
        <ele>600.1</ele>
        <time>2023-02-07T16:08:16Z</time>
      </trkpt>
      <trkpt lat="45.05752" lon="3.90362">
        <ele>601</ele>
        <time>2023-02-07T16:08:16Z</time>
      </trkpt>
      <trkpt lat="45.05752" lon="3.90362">
        <ele>601</ele>
        <time>2023-02-07T16:08:16Z</time>
      </trkpt>
      <trkpt lat="45.05753" lon="3.90352">
        <ele>601.2</ele>
        <time>2023-02-07T16:08:16Z</time>
      </trkpt>
      <trkpt lat="45.05752" lon="3.90329">
        <ele>601.1</ele>
        <time>2023-02-07T16:08:16Z</time>
      </trkpt>
      <trkpt lat="45.05738" lon="3.90285">
        <ele>600.5</ele>
        <time>2023-02-07T16:08:16Z</time>
      </trkpt>
      <trkpt lat="45.05705" lon="3.90221">
        <ele>601.9</ele>
        <time>2023-02-07T16:08:16Z</time>
      </trkpt>
      <trkpt lat="45.05672" lon="3.90182">
        <ele>602.5</ele>
        <time>2023-02-07T16:08:16Z</time>
      </trkpt>
      <trkpt lat="45.05645" lon="3.90162">
        <ele>602.6</ele>
        <time>2023-02-07T16:08:16Z</time>
      </trkpt>
      <trkpt lat="45.05626" lon="3.90155">
        <ele>602.2</ele>
        <time>2023-02-07T16:08:16Z</time>
      </trkpt>
      <trkpt lat="45.05616" lon="3.90155">
        <ele>602.1</ele>
        <time>2023-02-07T16:08:16Z</time>
      </trkpt>
      <trkpt lat="45.05591" lon="3.90186">
        <ele>602.2</ele>
        <time>2023-02-07T16:08:16Z</time>
      </trkpt>
      <trkpt lat="45.05584" lon="3.90201">
        <ele>601</ele>
        <time>2023-02-07T16:08:16Z</time>
      </trkpt>
      <trkpt lat="45.05577" lon="3.90205">
        <ele>601.3</ele>
        <time>2023-02-07T16:08:16Z</time>
      </trkpt>
      <trkpt lat="45.05567" lon="3.90196">
        <ele>601.6</ele>
        <time>2023-02-07T16:08:16Z</time>
      </trkpt>
      <trkpt lat="45.05564" lon="3.90144">
        <ele>602.4</ele>
        <time>2023-02-07T16:08:16Z</time>
      </trkpt>
      <trkpt lat="45.05557" lon="3.90129">
        <ele>601.7</ele>
        <time>2023-02-07T16:08:16Z</time>
      </trkpt>
      <trkpt lat="45.05467" lon="3.90045">
        <ele>601.7</ele>
        <time>2023-02-07T16:08:16Z</time>
      </trkpt>
      <trkpt lat="45.05467" lon="3.90045">
        <ele>601.7</ele>
        <time>2023-02-07T16:08:16Z</time>
      </trkpt>
      <trkpt lat="45.05459" lon="3.90036">
        <ele>601.6</ele>
        <time>2023-02-07T16:08:16Z</time>
      </trkpt>
      <trkpt lat="45.05341" lon="3.90029">
        <ele>603</ele>
        <time>2023-02-07T16:08:16Z</time>
      </trkpt>
      <trkpt lat="45.05324" lon="3.90048">
        <ele>602.9</ele>
        <time>2023-02-07T16:08:16Z</time>
      </trkpt>
      <trkpt lat="45.05305" lon="3.90058">
        <ele>603.1</ele>
        <time>2023-02-07T16:08:16Z</time>
      </trkpt>
      <trkpt lat="45.05298" lon="3.90059">
        <ele>603.4</ele>
        <time>2023-02-07T16:08:16Z</time>
      </trkpt>
      <trkpt lat="45.05224" lon="3.90032">
        <ele>603.1</ele>
        <time>2023-02-07T16:08:16Z</time>
      </trkpt>
      <trkpt lat="45.05224" lon="3.90032">
        <ele>603.1</ele>
        <time>2023-02-07T16:08:16Z</time>
      </trkpt>
      <trkpt lat="45.05216" lon="3.90027">
        <ele>603</ele>
        <time>2023-02-07T16:08:16Z</time>
      </trkpt>
      <trkpt lat="45.05206" lon="3.90016">
        <ele>602.8</ele>
        <time>2023-02-07T16:08:16Z</time>
      </trkpt>
      <trkpt lat="45.052" lon="3.90003">
        <ele>602.8</ele>
        <time>2023-02-07T16:08:16Z</time>
      </trkpt>
      <trkpt lat="45.0521" lon="3.8997">
        <ele>603.9</ele>
        <time>2023-02-07T16:08:16Z</time>
      </trkpt>
      <trkpt lat="45.05131" lon="3.89886">
        <ele>604.1</ele>
        <time>2023-02-07T16:08:16Z</time>
      </trkpt>
      <trkpt lat="45.05098" lon="3.8983">
        <ele>604.2</ele>
        <time>2023-02-07T16:08:16Z</time>
      </trkpt>
      <trkpt lat="45.05079" lon="3.8977">
        <ele>605.1</ele>
        <time>2023-02-07T16:08:16Z</time>
      </trkpt>
      <trkpt lat="45.05079" lon="3.8977">
        <ele>605.1</ele>
        <time>2023-02-07T16:08:16Z</time>
      </trkpt>
      <trkpt lat="45.05059" lon="3.89726">
        <ele>605</ele>
        <time>2023-02-07T16:08:16Z</time>
      </trkpt>
      <trkpt lat="45.05055" lon="3.89706">
        <ele>605.6</ele>
        <time>2023-02-07T16:08:16Z</time>
      </trkpt>
      <trkpt lat="45.05056" lon="3.89692">
        <ele>606</ele>
        <time>2023-02-07T16:08:16Z</time>
      </trkpt>
      <trkpt lat="45.05055" lon="3.89642">
        <ele>606</ele>
        <time>2023-02-07T16:08:16Z</time>
      </trkpt>
      <trkpt lat="45.05077" lon="3.89519">
        <ele>607.4</ele>
        <time>2023-02-07T16:08:16Z</time>
      </trkpt>
      <trkpt lat="45.05076" lon="3.8947">
        <ele>607.2</ele>
        <time>2023-02-07T16:08:16Z</time>
      </trkpt>
      <trkpt lat="45.05076" lon="3.8947">
        <ele>607.2</ele>
        <time>2023-02-07T16:08:16Z</time>
      </trkpt>
      <trkpt lat="45.05069" lon="3.89405">
        <ele>606</ele>
        <time>2023-02-07T16:08:16Z</time>
      </trkpt>
      <trkpt lat="45.05069" lon="3.89405">
        <ele>606</ele>
        <time>2023-02-07T16:08:16Z</time>
      </trkpt>
      <trkpt lat="45.0506" lon="3.89401">
        <ele>605.3</ele>
        <time>2023-02-07T16:08:16Z</time>
      </trkpt>
      <trkpt lat="45.05048" lon="3.89401">
        <ele>605.5</ele>
        <time>2023-02-07T16:08:16Z</time>
      </trkpt>
      <trkpt lat="45.05045" lon="3.89374">
        <ele>605.8</ele>
        <time>2023-02-07T16:08:16Z</time>
      </trkpt>
      <trkpt lat="45.05045" lon="3.89301">
        <ele>606.6</ele>
        <time>2023-02-07T16:08:16Z</time>
      </trkpt>
      <trkpt lat="45.05039" lon="3.89285">
        <ele>606.9</ele>
        <time>2023-02-07T16:08:16Z</time>
      </trkpt>
      <trkpt lat="45.04995" lon="3.89235">
        <ele>607.6</ele>
        <time>2023-02-07T16:08:16Z</time>
      </trkpt>
      <trkpt lat="45.04986" lon="3.89217">
        <ele>607.5</ele>
        <time>2023-02-07T16:08:16Z</time>
      </trkpt>
      <trkpt lat="45.04981" lon="3.89196">
        <ele>608.1</ele>
        <time>2023-02-07T16:08:16Z</time>
      </trkpt>
      <trkpt lat="45.04979" lon="3.89182">
        <ele>608.1</ele>
        <time>2023-02-07T16:08:16Z</time>
      </trkpt>
      <trkpt lat="45.04982" lon="3.89161">
        <ele>607.9</ele>
        <time>2023-02-07T16:08:16Z</time>
      </trkpt>
      <trkpt lat="45.04982" lon="3.89161">
        <ele>607.9</ele>
        <time>2023-02-07T16:08:16Z</time>
      </trkpt>
      <trkpt lat="45.04989" lon="3.88986">
        <ele>607.5</ele>
        <time>2023-02-07T16:08:16Z</time>
      </trkpt>
      <trkpt lat="45.04981" lon="3.88886">
        <ele>608.9</ele>
        <time>2023-02-07T16:08:16Z</time>
      </trkpt>
      <trkpt lat="45.04988" lon="3.88813">
        <ele>608.9</ele>
        <time>2023-02-07T16:08:16Z</time>
      </trkpt>
      <trkpt lat="45.04988" lon="3.88813">
        <ele>608.9</ele>
        <time>2023-02-07T16:08:16Z</time>
      </trkpt>
      <trkpt lat="45.05002" lon="3.8874">
        <ele>609.3</ele>
        <time>2023-02-07T16:08:16Z</time>
      </trkpt>
      <trkpt lat="45.05047" lon="3.88578">
        <ele>610.1</ele>
        <time>2023-02-07T16:08:16Z</time>
      </trkpt>
      <trkpt lat="45.05042" lon="3.88564">
        <ele>611.2</ele>
        <time>2023-02-07T16:08:16Z</time>
      </trkpt>
      <trkpt lat="45.05042" lon="3.88564">
        <ele>611.2</ele>
        <time>2023-02-07T16:08:16Z</time>
      </trkpt>
      <trkpt lat="45.05043" lon="3.88549">
        <ele>611.7</ele>
        <time>2023-02-07T16:08:16Z</time>
      </trkpt>
      <trkpt lat="45.05041" lon="3.88533">
        <ele>612.4</ele>
        <time>2023-02-07T16:08:16Z</time>
      </trkpt>
      <trkpt lat="45.0507" lon="3.88458">
        <ele>612.3</ele>
        <time>2023-02-07T16:08:16Z</time>
      </trkpt>
      <trkpt lat="45.05085" lon="3.88396">
        <ele>613</ele>
        <time>2023-02-07T16:08:16Z</time>
      </trkpt>
      <trkpt lat="45.05088" lon="3.88366">
        <ele>613.5</ele>
        <time>2023-02-07T16:08:16Z</time>
      </trkpt>
      <trkpt lat="45.05092" lon="3.88357">
        <ele>613.4</ele>
        <time>2023-02-07T16:08:16Z</time>
      </trkpt>
      <trkpt lat="45.05089" lon="3.88298">
        <ele>613.6</ele>
        <time>2023-02-07T16:08:16Z</time>
      </trkpt>
      <trkpt lat="45.05083" lon="3.88268">
        <ele>614</ele>
        <time>2023-02-07T16:08:16Z</time>
      </trkpt>
      <trkpt lat="45.05083" lon="3.88268">
        <ele>614</ele>
        <time>2023-02-07T16:08:16Z</time>
      </trkpt>
      <trkpt lat="45.05084" lon="3.88251">
        <ele>614</ele>
        <time>2023-02-07T16:08:16Z</time>
      </trkpt>
      <trkpt lat="45.05075" lon="3.88249">
        <ele>614</ele>
        <time>2023-02-07T16:08:16Z</time>
      </trkpt>
      <trkpt lat="45.05067" lon="3.88279">
        <ele>614</ele>
        <time>2023-02-07T16:08:16Z</time>
      </trkpt>
      <trkpt lat="45.05066" lon="3.88297">
        <ele>613.6</ele>
        <time>2023-02-07T16:08:16Z</time>
      </trkpt>
      <trkpt lat="45.0504" lon="3.88356">
        <ele>614</ele>
        <time>2023-02-07T16:08:16Z</time>
      </trkpt>
      <trkpt lat="45.05033" lon="3.8835">
        <ele>615.2</ele>
        <time>2023-02-07T16:08:16Z</time>
      </trkpt>
      <trkpt lat="45.05012" lon="3.88357">
        <ele>616.7</ele>
        <time>2023-02-07T16:08:16Z</time>
      </trkpt>
      <trkpt lat="45.04984" lon="3.88346">
        <ele>622.5</ele>
        <time>2023-02-07T16:08:16Z</time>
      </trkpt>
      <trkpt lat="45.04975" lon="3.88328">
        <ele>626.8</ele>
        <time>2023-02-07T16:08:16Z</time>
      </trkpt>
      <trkpt lat="45.04966" lon="3.88331">
        <ele>627.4</ele>
        <time>2023-02-07T16:08:16Z</time>
      </trkpt>
      <trkpt lat="45.0496" lon="3.88303">
        <ele>631.9</ele>
        <time>2023-02-07T16:08:16Z</time>
      </trkpt>
      <trkpt lat="45.04977" lon="3.88287">
        <ele>640</ele>
        <time>2023-02-07T16:08:16Z</time>
      </trkpt>
      <trkpt lat="45.04982" lon="3.88296">
        <ele>637.6</ele>
        <time>2023-02-07T16:08:16Z</time>
      </trkpt>
      <trkpt lat="45.04982" lon="3.88296">
        <ele>637.6</ele>
        <time>2023-02-07T16:08:16Z</time>
      </trkpt>
      <trkpt lat="45.04977" lon="3.88287">
        <ele>640</ele>
        <time>2023-02-07T16:08:16Z</time>
      </trkpt>
      <trkpt lat="45.04948" lon="3.88297">
        <ele>631.1</ele>
        <time>2023-02-07T16:08:16Z</time>
      </trkpt>
      <trkpt lat="45.04903" lon="3.88292">
        <ele>632.8</ele>
        <time>2023-02-07T16:08:16Z</time>
      </trkpt>
      <trkpt lat="45.04891" lon="3.88295">
        <ele>634.1</ele>
        <time>2023-02-07T16:08:16Z</time>
      </trkpt>
      <trkpt lat="45.04892" lon="3.88328">
        <ele>635.5</ele>
        <time>2023-02-07T16:08:16Z</time>
      </trkpt>
      <trkpt lat="45.04888" lon="3.88344">
        <ele>636.8</ele>
        <time>2023-02-07T16:08:16Z</time>
      </trkpt>
      <trkpt lat="45.04888" lon="3.88391">
        <ele>640.3</ele>
        <time>2023-02-07T16:08:16Z</time>
      </trkpt>
      <trkpt lat="45.04881" lon="3.88391">
        <ele>642.4</ele>
        <time>2023-02-07T16:08:16Z</time>
      </trkpt>
      <trkpt lat="45.04821" lon="3.88349">
        <ele>652.4</ele>
        <time>2023-02-07T16:08:16Z</time>
      </trkpt>
      <trkpt lat="45.04813" lon="3.88349">
        <ele>653.7</ele>
        <time>2023-02-07T16:08:16Z</time>
      </trkpt>
      <trkpt lat="45.0481" lon="3.88358">
        <ele>656.5</ele>
        <time>2023-02-07T16:08:16Z</time>
      </trkpt>
      <trkpt lat="45.04771" lon="3.88339">
        <ele>657.2</ele>
        <time>2023-02-07T16:08:16Z</time>
      </trkpt>
      <trkpt lat="45.04771" lon="3.88339">
        <ele>657.2</ele>
        <time>2023-02-07T16:08:16Z</time>
      </trkpt>
      <trkpt lat="45.04727" lon="3.88329">
        <ele>658.6</ele>
        <time>2023-02-07T16:08:16Z</time>
      </trkpt>
      <trkpt lat="45.04623" lon="3.88356">
        <ele>662.7</ele>
        <time>2023-02-07T16:08:16Z</time>
      </trkpt>
      <trkpt lat="45.04627" lon="3.88339">
        <ele>661.8</ele>
        <time>2023-02-07T16:08:16Z</time>
      </trkpt>
      <trkpt lat="45.04627" lon="3.88339">
        <ele>661.8</ele>
        <time>2023-02-07T16:08:16Z</time>
      </trkpt>
      <trkpt lat="45.04614" lon="3.88394">
        <ele>665.4</ele>
        <time>2023-02-07T16:08:16Z</time>
      </trkpt>
      <trkpt lat="45.04571" lon="3.88392">
        <ele>663.1</ele>
        <time>2023-02-07T16:08:16Z</time>
      </trkpt>
      <trkpt lat="45.04571" lon="3.88392">
        <ele>663.1</ele>
        <time>2023-02-07T16:08:16Z</time>
      </trkpt>
      <trkpt lat="45.04556" lon="3.88389">
        <ele>662</ele>
        <time>2023-02-07T16:08:16Z</time>
      </trkpt>
      <trkpt lat="45.04474" lon="3.88409">
        <ele>661.3</ele>
        <time>2023-02-07T16:08:16Z</time>
      </trkpt>
      <trkpt lat="45.04474" lon="3.88394">
        <ele>659.7</ele>
        <time>2023-02-07T16:08:16Z</time>
      </trkpt>
      <trkpt lat="45.04466" lon="3.88388">
        <ele>657.8</ele>
        <time>2023-02-07T16:08:16Z</time>
      </trkpt>
      <trkpt lat="45.04431" lon="3.88377">
        <ele>650</ele>
        <time>2023-02-07T16:08:16Z</time>
      </trkpt>
      <trkpt lat="45.04428" lon="3.88422">
        <ele>652.1</ele>
        <time>2023-02-07T16:08:16Z</time>
      </trkpt>
      <trkpt lat="45.04411" lon="3.88422">
        <ele>646.8</ele>
        <time>2023-02-07T16:08:16Z</time>
      </trkpt>
      <trkpt lat="45.0441" lon="3.8844">
        <ele>647.5</ele>
        <time>2023-02-07T16:08:16Z</time>
      </trkpt>
      <trkpt lat="45.04398" lon="3.88437">
        <ele>645.1</ele>
        <time>2023-02-07T16:08:16Z</time>
      </trkpt>
      <trkpt lat="45.04403" lon="3.8849">
        <ele>646.9</ele>
        <time>2023-02-07T16:08:16Z</time>
      </trkpt>
      <trkpt lat="45.04297" lon="3.88545">
        <ele>625.7</ele>
        <time>2023-02-07T16:08:16Z</time>
      </trkpt>
      <trkpt lat="45.04257" lon="3.8855">
        <ele>624.1</ele>
        <time>2023-02-07T16:08:16Z</time>
      </trkpt>
      <trkpt lat="45.04258" lon="3.8866">
        <ele>622.5</ele>
        <time>2023-02-07T16:08:16Z</time>
      </trkpt>
      <trkpt lat="45.04261" lon="3.88674">
        <ele>622.3</ele>
        <time>2023-02-07T16:08:16Z</time>
      </trkpt>
      <trkpt lat="45.0422" lon="3.887">
        <ele>621.1</ele>
        <time>2023-02-07T16:08:16Z</time>
      </trkpt>
      <trkpt lat="45.04224" lon="3.88712">
        <ele>621</ele>
        <time>2023-02-07T16:08:16Z</time>
      </trkpt>
      <trkpt lat="45.04208" lon="3.88708">
        <ele>621.5</ele>
        <time>2023-02-07T16:08:16Z</time>
      </trkpt>
      <trkpt lat="45.04154" lon="3.88751">
        <ele>622.4</ele>
        <time>2023-02-07T16:08:16Z</time>
      </trkpt>
      <trkpt lat="45.04135" lon="3.88776">
        <ele>621.8</ele>
        <time>2023-02-07T16:08:16Z</time>
      </trkpt>
      <trkpt lat="45.04124" lon="3.88811">
        <ele>621.2</ele>
        <time>2023-02-07T16:08:16Z</time>
      </trkpt>
      <trkpt lat="45.04124" lon="3.88811">
        <ele>621.2</ele>
        <time>2023-02-07T16:08:16Z</time>
      </trkpt>
      <trkpt lat="45.04111" lon="3.88823">
        <ele>623.3</ele>
        <time>2023-02-07T16:08:16Z</time>
      </trkpt>
      <trkpt lat="45.04114" lon="3.88839">
        <ele>624.1</ele>
        <time>2023-02-07T16:08:16Z</time>
      </trkpt>
      <trkpt lat="45.04106" lon="3.88939">
        <ele>629.5</ele>
        <time>2023-02-07T16:08:16Z</time>
      </trkpt>
      <trkpt lat="45.04132" lon="3.89095">
        <ele>637</ele>
        <time>2023-02-07T16:08:16Z</time>
      </trkpt>
      <trkpt lat="45.04155" lon="3.89169">
        <ele>642.3</ele>
        <time>2023-02-07T16:08:16Z</time>
      </trkpt>
      <trkpt lat="45.04155" lon="3.89169">
        <ele>642.3</ele>
        <time>2023-02-07T16:08:16Z</time>
      </trkpt>
      <trkpt lat="45.04079" lon="3.89262">
        <ele>653.1</ele>
        <time>2023-02-07T16:08:16Z</time>
      </trkpt>
      <trkpt lat="45.04049" lon="3.89325">
        <ele>658.1</ele>
        <time>2023-02-07T16:08:16Z</time>
      </trkpt>
      <trkpt lat="45.04035" lon="3.89388">
        <ele>662.5</ele>
        <time>2023-02-07T16:08:16Z</time>
      </trkpt>
      <trkpt lat="45.04025" lon="3.89448">
        <ele>666.3</ele>
        <time>2023-02-07T16:08:16Z</time>
      </trkpt>
      <trkpt lat="45.04004" lon="3.89532">
        <ele>671.7</ele>
        <time>2023-02-07T16:08:16Z</time>
      </trkpt>
      <trkpt lat="45.04004" lon="3.89532">
        <ele>671.7</ele>
        <time>2023-02-07T16:08:16Z</time>
      </trkpt>
      <trkpt lat="45.04" lon="3.89548">
        <ele>672.7</ele>
        <time>2023-02-07T16:08:16Z</time>
      </trkpt>
      <trkpt lat="45.03994" lon="3.8956">
        <ele>674</ele>
        <time>2023-02-07T16:08:16Z</time>
      </trkpt>
      <trkpt lat="45.03962" lon="3.8959">
        <ele>678.5</ele>
        <time>2023-02-07T16:08:16Z</time>
      </trkpt>
      <trkpt lat="45.03937" lon="3.89603">
        <ele>681.5</ele>
        <time>2023-02-07T16:08:16Z</time>
      </trkpt>
      <trkpt lat="45.03879" lon="3.89678">
        <ele>691.9</ele>
        <time>2023-02-07T16:08:16Z</time>
      </trkpt>
      <trkpt lat="45.0387" lon="3.897">
        <ele>694.3</ele>
        <time>2023-02-07T16:08:16Z</time>
      </trkpt>
      <trkpt lat="45.0378" lon="3.89699">
        <ele>700.1</ele>
        <time>2023-02-07T16:08:16Z</time>
      </trkpt>
      <trkpt lat="45.03768" lon="3.8969">
        <ele>701.4</ele>
        <time>2023-02-07T16:08:16Z</time>
      </trkpt>
      <trkpt lat="45.03757" lon="3.89703">
        <ele>704</ele>
        <time>2023-02-07T16:08:16Z</time>
      </trkpt>
      <trkpt lat="45.03754" lon="3.89712">
        <ele>705</ele>
        <time>2023-02-07T16:08:16Z</time>
      </trkpt>
      <trkpt lat="45.03754" lon="3.89712">
        <ele>705</ele>
        <time>2023-02-07T16:08:16Z</time>
      </trkpt>
      <trkpt lat="45.03747" lon="3.89736">
        <ele>706.4</ele>
        <time>2023-02-07T16:08:16Z</time>
      </trkpt>
      <trkpt lat="45.03725" lon="3.89762">
        <ele>712.4</ele>
        <time>2023-02-07T16:08:16Z</time>
      </trkpt>
      <trkpt lat="45.03675" lon="3.89799">
        <ele>722</ele>
        <time>2023-02-07T16:08:16Z</time>
      </trkpt>
      <trkpt lat="45.03565" lon="3.8991">
        <ele>750.9</ele>
        <time>2023-02-07T16:08:16Z</time>
      </trkpt>
      <trkpt lat="45.03553" lon="3.89936">
        <ele>753.6</ele>
        <time>2023-02-07T16:08:16Z</time>
      </trkpt>
      <trkpt lat="45.03538" lon="3.9001">
        <ele>758.8</ele>
        <time>2023-02-07T16:08:16Z</time>
      </trkpt>
      <trkpt lat="45.03531" lon="3.90021">
        <ele>760.7</ele>
        <time>2023-02-07T16:08:16Z</time>
      </trkpt>
      <trkpt lat="45.0353" lon="3.90035">
        <ele>761.4</ele>
        <time>2023-02-07T16:08:16Z</time>
      </trkpt>
      <trkpt lat="45.03499" lon="3.9007">
        <ele>767.9</ele>
        <time>2023-02-07T16:08:16Z</time>
      </trkpt>
      <trkpt lat="45.03483" lon="3.90115">
        <ele>774.3</ele>
        <time>2023-02-07T16:08:16Z</time>
      </trkpt>
      <trkpt lat="45.03475" lon="3.9012">
        <ele>776.5</ele>
        <time>2023-02-07T16:08:16Z</time>
      </trkpt>
      <trkpt lat="45.03475" lon="3.9012">
        <ele>776.5</ele>
        <time>2023-02-07T16:08:16Z</time>
      </trkpt>
      <trkpt lat="45.03376" lon="3.90153">
        <ele>779.3</ele>
        <time>2023-02-07T16:08:16Z</time>
      </trkpt>
      <trkpt lat="45.03308" lon="3.90205">
        <ele>777.2</ele>
        <time>2023-02-07T16:08:16Z</time>
      </trkpt>
      <trkpt lat="45.03281" lon="3.9019">
        <ele>773.8</ele>
        <time>2023-02-07T16:08:16Z</time>
      </trkpt>
      <trkpt lat="45.03269" lon="3.90178">
        <ele>772.5</ele>
        <time>2023-02-07T16:08:16Z</time>
      </trkpt>
      <trkpt lat="45.03262" lon="3.90175">
        <ele>771.4</ele>
        <time>2023-02-07T16:08:16Z</time>
      </trkpt>
      <trkpt lat="45.03253" lon="3.90176">
        <ele>769.5</ele>
        <time>2023-02-07T16:08:16Z</time>
      </trkpt>
      <trkpt lat="45.03234" lon="3.90189">
        <ele>765</ele>
        <time>2023-02-07T16:08:16Z</time>
      </trkpt>
      <trkpt lat="45.0322" lon="3.90213">
        <ele>761.8</ele>
        <time>2023-02-07T16:08:16Z</time>
      </trkpt>
      <trkpt lat="45.03219" lon="3.90236">
        <ele>759.9</ele>
        <time>2023-02-07T16:08:16Z</time>
      </trkpt>
      <trkpt lat="45.03217" lon="3.90246">
        <ele>758.6</ele>
        <time>2023-02-07T16:08:16Z</time>
      </trkpt>
      <trkpt lat="45.03207" lon="3.90259">
        <ele>756</ele>
        <time>2023-02-07T16:08:16Z</time>
      </trkpt>
      <trkpt lat="45.0317" lon="3.90265">
        <ele>753</ele>
        <time>2023-02-07T16:08:16Z</time>
      </trkpt>
      <trkpt lat="45.0317" lon="3.90265">
        <ele>753</ele>
        <time>2023-02-07T16:08:16Z</time>
      </trkpt>
      <trkpt lat="45.03157" lon="3.90273">
        <ele>752.3</ele>
        <time>2023-02-07T16:08:16Z</time>
      </trkpt>
      <trkpt lat="45.03152" lon="3.90286">
        <ele>751.6</ele>
        <time>2023-02-07T16:08:16Z</time>
      </trkpt>
      <trkpt lat="45.03151" lon="3.90297">
        <ele>751</ele>
        <time>2023-02-07T16:08:16Z</time>
      </trkpt>
      <trkpt lat="45.03176" lon="3.90542">
        <ele>748</ele>
        <time>2023-02-07T16:08:16Z</time>
      </trkpt>
      <trkpt lat="45.03161" lon="3.9055">
        <ele>748.6</ele>
        <time>2023-02-07T16:08:16Z</time>
      </trkpt>
      <trkpt lat="45.03106" lon="3.9055">
        <ele>747.8</ele>
        <time>2023-02-07T16:08:16Z</time>
      </trkpt>
      <trkpt lat="45.03098" lon="3.90553">
        <ele>747.9</ele>
        <time>2023-02-07T16:08:16Z</time>
      </trkpt>
      <trkpt lat="45.03094" lon="3.90563">
        <ele>748.3</ele>
        <time>2023-02-07T16:08:16Z</time>
      </trkpt>
      <trkpt lat="45.03102" lon="3.90596">
        <ele>749.8</ele>
        <time>2023-02-07T16:08:16Z</time>
      </trkpt>
      <trkpt lat="45.03099" lon="3.90635">
        <ele>750.9</ele>
        <time>2023-02-07T16:08:16Z</time>
      </trkpt>
      <trkpt lat="45.03115" lon="3.90699">
        <ele>754.4</ele>
        <time>2023-02-07T16:08:16Z</time>
      </trkpt>
      <trkpt lat="45.03115" lon="3.90699">
        <ele>754.4</ele>
        <time>2023-02-07T16:08:16Z</time>
      </trkpt>
      <trkpt lat="45.0308" lon="3.90731">
        <ele>757.6</ele>
        <time>2023-02-07T16:08:16Z</time>
      </trkpt>
      <trkpt lat="45.03012" lon="3.90762">
        <ele>761.5</ele>
        <time>2023-02-07T16:08:16Z</time>
      </trkpt>
      <trkpt lat="45.03004" lon="3.90769">
        <ele>762.2</ele>
        <time>2023-02-07T16:08:16Z</time>
      </trkpt>
      <trkpt lat="45.02983" lon="3.90805">
        <ele>766.1</ele>
        <time>2023-02-07T16:08:16Z</time>
      </trkpt>
      <trkpt lat="45.02965" lon="3.90825">
        <ele>769.1</ele>
        <time>2023-02-07T16:08:16Z</time>
      </trkpt>
      <trkpt lat="45.02937" lon="3.90877">
        <ele>776.8</ele>
        <time>2023-02-07T16:08:16Z</time>
      </trkpt>
      <trkpt lat="45.02908" lon="3.90903">
        <ele>784.7</ele>
        <time>2023-02-07T16:08:16Z</time>
      </trkpt>
      <trkpt lat="45.02884" lon="3.90914">
        <ele>788.8</ele>
        <time>2023-02-07T16:08:16Z</time>
      </trkpt>
      <trkpt lat="45.0281" lon="3.90966">
        <ele>805</ele>
        <time>2023-02-07T16:08:16Z</time>
      </trkpt>
      <trkpt lat="45.02737" lon="3.90995">
        <ele>810.9</ele>
        <time>2023-02-07T16:08:16Z</time>
      </trkpt>
      <trkpt lat="45.02732" lon="3.91003">
        <ele>811.8</ele>
        <time>2023-02-07T16:08:16Z</time>
      </trkpt>
      <trkpt lat="45.02718" lon="3.91014">
        <ele>813.3</ele>
        <time>2023-02-07T16:08:16Z</time>
      </trkpt>
      <trkpt lat="45.02705" lon="3.91017">
        <ele>814.4</ele>
        <time>2023-02-07T16:08:16Z</time>
      </trkpt>
      <trkpt lat="45.02618" lon="3.91015">
        <ele>819.3</ele>
        <time>2023-02-07T16:08:16Z</time>
      </trkpt>
      <trkpt lat="45.02521" lon="3.91045">
        <ele>823.5</ele>
        <time>2023-02-07T16:08:16Z</time>
      </trkpt>
      <trkpt lat="45.02514" lon="3.91049">
        <ele>824</ele>
        <time>2023-02-07T16:08:16Z</time>
      </trkpt>
      <trkpt lat="45.02505" lon="3.91059">
        <ele>825</ele>
        <time>2023-02-07T16:08:16Z</time>
      </trkpt>
      <trkpt lat="45.02479" lon="3.91058">
        <ele>826.6</ele>
        <time>2023-02-07T16:08:16Z</time>
      </trkpt>
      <trkpt lat="45.02448" lon="3.91052">
        <ele>827.9</ele>
        <time>2023-02-07T16:08:16Z</time>
      </trkpt>
      <trkpt lat="45.02415" lon="3.91057">
        <ele>830.2</ele>
        <time>2023-02-07T16:08:16Z</time>
      </trkpt>
      <trkpt lat="45.02392" lon="3.91067">
        <ele>831.4</ele>
        <time>2023-02-07T16:08:16Z</time>
      </trkpt>
      <trkpt lat="45.02382" lon="3.91078">
        <ele>831.4</ele>
        <time>2023-02-07T16:08:16Z</time>
      </trkpt>
      <trkpt lat="45.02245" lon="3.91158">
        <ele>832</ele>
        <time>2023-02-07T16:08:16Z</time>
      </trkpt>
      <trkpt lat="45.02245" lon="3.91158">
        <ele>832</ele>
        <time>2023-02-07T16:08:16Z</time>
      </trkpt>
      <trkpt lat="45.02175" lon="3.91214">
        <ele>829.3</ele>
        <time>2023-02-07T16:08:16Z</time>
      </trkpt>
      <trkpt lat="45.02096" lon="3.91328">
        <ele>823.8</ele>
        <time>2023-02-07T16:08:16Z</time>
      </trkpt>
      <trkpt lat="45.02085" lon="3.91333">
        <ele>823.1</ele>
        <time>2023-02-07T16:08:16Z</time>
      </trkpt>
      <trkpt lat="45.02018" lon="3.91337">
        <ele>817.8</ele>
        <time>2023-02-07T16:08:16Z</time>
      </trkpt>
      <trkpt lat="45.01888" lon="3.91387">
        <ele>800</ele>
        <time>2023-02-07T16:08:16Z</time>
      </trkpt>
      <trkpt lat="45.01712" lon="3.91419">
        <ele>793.6</ele>
        <time>2023-02-07T16:08:16Z</time>
      </trkpt>
      <trkpt lat="45.01699" lon="3.91428">
        <ele>793.2</ele>
        <time>2023-02-07T16:08:16Z</time>
      </trkpt>
      <trkpt lat="45.01652" lon="3.9147">
        <ele>792</ele>
        <time>2023-02-07T16:08:16Z</time>
      </trkpt>
      <trkpt lat="45.01629" lon="3.91482">
        <ele>792</ele>
        <time>2023-02-07T16:08:16Z</time>
      </trkpt>
      <trkpt lat="45.01605" lon="3.91486">
        <ele>792</ele>
        <time>2023-02-07T16:08:16Z</time>
      </trkpt>
      <trkpt lat="45.01605" lon="3.91486">
        <ele>792</ele>
        <time>2023-02-07T16:08:16Z</time>
      </trkpt>
      <trkpt lat="45.01594" lon="3.91484">
        <ele>792</ele>
        <time>2023-02-07T16:08:16Z</time>
      </trkpt>
      <trkpt lat="45.01586" lon="3.91448">
        <ele>791.2</ele>
        <time>2023-02-07T16:08:16Z</time>
      </trkpt>
      <trkpt lat="45.01557" lon="3.9137">
        <ele>789</ele>
        <time>2023-02-07T16:08:16Z</time>
      </trkpt>
      <trkpt lat="45.01546" lon="3.91362">
        <ele>788.3</ele>
        <time>2023-02-07T16:08:16Z</time>
      </trkpt>
      <trkpt lat="45.01535" lon="3.91363">
        <ele>787.4</ele>
        <time>2023-02-07T16:08:16Z</time>
      </trkpt>
      <trkpt lat="45.01516" lon="3.91376">
        <ele>785.7</ele>
        <time>2023-02-07T16:08:16Z</time>
      </trkpt>
      <trkpt lat="45.01496" lon="3.91382">
        <ele>784.5</ele>
        <time>2023-02-07T16:08:16Z</time>
      </trkpt>
      <trkpt lat="45.0145" lon="3.91368">
        <ele>784.3</ele>
        <time>2023-02-07T16:08:16Z</time>
      </trkpt>
      <trkpt lat="45.01423" lon="3.91344">
        <ele>785.1</ele>
        <time>2023-02-07T16:08:16Z</time>
      </trkpt>
      <trkpt lat="45.01414" lon="3.91345">
        <ele>784.8</ele>
        <time>2023-02-07T16:08:16Z</time>
      </trkpt>
      <trkpt lat="45.01399" lon="3.91372">
        <ele>785.3</ele>
        <time>2023-02-07T16:08:16Z</time>
      </trkpt>
      <trkpt lat="45.01384" lon="3.91383">
        <ele>786.8</ele>
        <time>2023-02-07T16:08:16Z</time>
      </trkpt>
      <trkpt lat="45.0136" lon="3.91391">
        <ele>787</ele>
        <time>2023-02-07T16:08:16Z</time>
      </trkpt>
      <trkpt lat="45.01342" lon="3.91408">
        <ele>785.9</ele>
        <time>2023-02-07T16:08:16Z</time>
      </trkpt>
      <trkpt lat="45.013" lon="3.91249">
        <ele>787</ele>
        <time>2023-02-07T16:08:16Z</time>
      </trkpt>
      <trkpt lat="45.01299" lon="3.91237">
        <ele>787.4</ele>
        <time>2023-02-07T16:08:16Z</time>
      </trkpt>
      <trkpt lat="45.01342" lon="3.90991">
        <ele>791.4</ele>
        <time>2023-02-07T16:08:16Z</time>
      </trkpt>
      <trkpt lat="45.0134" lon="3.9094">
        <ele>793.4</ele>
        <time>2023-02-07T16:08:16Z</time>
      </trkpt>
      <trkpt lat="45.01343" lon="3.90917">
        <ele>794.3</ele>
        <time>2023-02-07T16:08:16Z</time>
      </trkpt>
      <trkpt lat="45.0135" lon="3.90899">
        <ele>795.9</ele>
        <time>2023-02-07T16:08:16Z</time>
      </trkpt>
      <trkpt lat="45.01349" lon="3.90882">
        <ele>797.5</ele>
        <time>2023-02-07T16:08:16Z</time>
      </trkpt>
      <trkpt lat="45.01333" lon="3.9086">
        <ele>800.1</ele>
        <time>2023-02-07T16:08:16Z</time>
      </trkpt>
      <trkpt lat="45.01275" lon="3.90748">
        <ele>806</ele>
        <time>2023-02-07T16:08:16Z</time>
      </trkpt>
      <trkpt lat="45.01252" lon="3.90713">
        <ele>807.1</ele>
        <time>2023-02-07T16:08:16Z</time>
      </trkpt>
      <trkpt lat="45.01247" lon="3.907">
        <ele>807.1</ele>
        <time>2023-02-07T16:08:16Z</time>
      </trkpt>
      <trkpt lat="45.01245" lon="3.90688">
        <ele>807.4</ele>
        <time>2023-02-07T16:08:16Z</time>
      </trkpt>
      <trkpt lat="45.01245" lon="3.90688">
        <ele>807.4</ele>
        <time>2023-02-07T16:08:16Z</time>
      </trkpt>
      <trkpt lat="45.01243" lon="3.90676">
        <ele>807.7</ele>
        <time>2023-02-07T16:08:16Z</time>
      </trkpt>
      <trkpt lat="45.01228" lon="3.90678">
        <ele>807.9</ele>
        <time>2023-02-07T16:08:16Z</time>
      </trkpt>
      <trkpt lat="45.0114" lon="3.90784">
        <ele>803.5</ele>
        <time>2023-02-07T16:08:16Z</time>
      </trkpt>
      <trkpt lat="45.01011" lon="3.91082">
        <ele>792.8</ele>
        <time>2023-02-07T16:08:16Z</time>
      </trkpt>
      <trkpt lat="45.00993" lon="3.91104">
        <ele>790.2</ele>
        <time>2023-02-07T16:08:16Z</time>
      </trkpt>
      <trkpt lat="45.0098" lon="3.91109">
        <ele>788.3</ele>
        <time>2023-02-07T16:08:16Z</time>
      </trkpt>
      <trkpt lat="45.00959" lon="3.91103">
        <ele>786.2</ele>
        <time>2023-02-07T16:08:16Z</time>
      </trkpt>
      <trkpt lat="45.00884" lon="3.91066">
        <ele>779.5</ele>
        <time>2023-02-07T16:08:16Z</time>
      </trkpt>
      <trkpt lat="45.00809" lon="3.91061">
        <ele>770.3</ele>
        <time>2023-02-07T16:08:16Z</time>
      </trkpt>
      <trkpt lat="45.0073" lon="3.91074">
        <ele>760.2</ele>
        <time>2023-02-07T16:08:16Z</time>
      </trkpt>
      <trkpt lat="45.00615" lon="3.91182">
        <ele>745.8</ele>
        <time>2023-02-07T16:08:16Z</time>
      </trkpt>
      <trkpt lat="45.00609" lon="3.91195">
        <ele>743.8</ele>
        <time>2023-02-07T16:08:16Z</time>
      </trkpt>
      <trkpt lat="45.0061" lon="3.9122">
        <ele>740.3</ele>
        <time>2023-02-07T16:08:16Z</time>
      </trkpt>
      <trkpt lat="45.00601" lon="3.91233">
        <ele>738.2</ele>
        <time>2023-02-07T16:08:16Z</time>
      </trkpt>
      <trkpt lat="45.00573" lon="3.91239">
        <ele>734.9</ele>
        <time>2023-02-07T16:08:16Z</time>
      </trkpt>
      <trkpt lat="45.00558" lon="3.91236">
        <ele>733.3</ele>
        <time>2023-02-07T16:08:16Z</time>
      </trkpt>
      <trkpt lat="45.00534" lon="3.91247">
        <ele>730</ele>
        <time>2023-02-07T16:08:16Z</time>
      </trkpt>
      <trkpt lat="45.00516" lon="3.9126">
        <ele>727.5</ele>
        <time>2023-02-07T16:08:16Z</time>
      </trkpt>
      <trkpt lat="45.00522" lon="3.9127">
        <ele>726.7</ele>
        <time>2023-02-07T16:08:16Z</time>
      </trkpt>
      <trkpt lat="45.00522" lon="3.9127">
        <ele>726.7</ele>
        <time>2023-02-07T16:08:16Z</time>
      </trkpt>
      <trkpt lat="45.00516" lon="3.9126">
        <ele>727.5</ele>
        <time>2023-02-07T16:08:16Z</time>
      </trkpt>
      <trkpt lat="45.0047" lon="3.91306">
        <ele>722.6</ele>
        <time>2023-02-07T16:08:16Z</time>
      </trkpt>
      <trkpt lat="45.0046" lon="3.91305">
        <ele>721.3</ele>
        <time>2023-02-07T16:08:16Z</time>
      </trkpt>
      <trkpt lat="45.00457" lon="3.91318">
        <ele>721.4</ele>
        <time>2023-02-07T16:08:16Z</time>
      </trkpt>
      <trkpt lat="45.0043" lon="3.91345">
        <ele>721.1</ele>
        <time>2023-02-07T16:08:16Z</time>
      </trkpt>
      <trkpt lat="45.0043" lon="3.91345">
        <ele>721.1</ele>
        <time>2023-02-07T16:08:16Z</time>
      </trkpt>
      <trkpt lat="45.00423" lon="3.91349">
        <ele>720.4</ele>
        <time>2023-02-07T16:08:16Z</time>
      </trkpt>
      <trkpt lat="45.00349" lon="3.91304">
        <ele>713.8</ele>
        <time>2023-02-07T16:08:16Z</time>
      </trkpt>
      <trkpt lat="45.00332" lon="3.91298">
        <ele>712.1</ele>
        <time>2023-02-07T16:08:16Z</time>
      </trkpt>
      <trkpt lat="45.00332" lon="3.91298">
        <ele>712.1</ele>
        <time>2023-02-07T16:08:16Z</time>
      </trkpt>
      <trkpt lat="45.0032" lon="3.91296">
        <ele>710.4</ele>
        <time>2023-02-07T16:08:16Z</time>
      </trkpt>
      <trkpt lat="45.0031" lon="3.91301">
        <ele>708.8</ele>
        <time>2023-02-07T16:08:16Z</time>
      </trkpt>
      <trkpt lat="45.00306" lon="3.91312">
        <ele>707.4</ele>
        <time>2023-02-07T16:08:16Z</time>
      </trkpt>
      <trkpt lat="45.00313" lon="3.91416">
        <ele>695.7</ele>
        <time>2023-02-07T16:08:16Z</time>
      </trkpt>
      <trkpt lat="45.00308" lon="3.91426">
        <ele>693.7</ele>
        <time>2023-02-07T16:08:16Z</time>
      </trkpt>
      <trkpt lat="45.00308" lon="3.91426">
        <ele>693.7</ele>
        <time>2023-02-07T16:08:16Z</time>
      </trkpt>
      <trkpt lat="45.00265" lon="3.91466">
        <ele>687.2</ele>
        <time>2023-02-07T16:08:16Z</time>
      </trkpt>
      <trkpt lat="45.00077" lon="3.91577">
        <ele>673.2</ele>
        <time>2023-02-07T16:08:16Z</time>
      </trkpt>
      <trkpt lat="45.00078" lon="3.91591">
        <ele>670.3</ele>
        <time>2023-02-07T16:08:16Z</time>
      </trkpt>
      <trkpt lat="45.00094" lon="3.91607">
        <ele>668.2</ele>
        <time>2023-02-07T16:08:16Z</time>
      </trkpt>
      <trkpt lat="45.00094" lon="3.91607">
        <ele>668.2</ele>
        <time>2023-02-07T16:08:16Z</time>
      </trkpt>
      <trkpt lat="45.00107" lon="3.91627">
        <ele>665.9</ele>
        <time>2023-02-07T16:08:16Z</time>
      </trkpt>
      <trkpt lat="45.00108" lon="3.91649">
        <ele>663</ele>
        <time>2023-02-07T16:08:16Z</time>
      </trkpt>
      <trkpt lat="45.00104" lon="3.91693">
        <ele>660.5</ele>
        <time>2023-02-07T16:08:16Z</time>
      </trkpt>
      <trkpt lat="45.00095" lon="3.91716">
        <ele>659.4</ele>
        <time>2023-02-07T16:08:16Z</time>
      </trkpt>
      <trkpt lat="45.00095" lon="3.91716">
        <ele>659.4</ele>
        <time>2023-02-07T16:08:16Z</time>
      </trkpt>
      <trkpt lat="45.00101" lon="3.917">
        <ele>660.2</ele>
        <time>2023-02-07T16:08:16Z</time>
      </trkpt>
      <trkpt lat="44.99967" lon="3.91704">
        <ele>646.5</ele>
        <time>2023-02-07T16:08:16Z</time>
      </trkpt>
      <trkpt lat="44.99955" lon="3.917">
        <ele>644.5</ele>
        <time>2023-02-07T16:08:16Z</time>
      </trkpt>
      <trkpt lat="44.99932" lon="3.91704">
        <ele>640.8</ele>
        <time>2023-02-07T16:08:16Z</time>
      </trkpt>
      <trkpt lat="44.99917" lon="3.91715">
        <ele>638.4</ele>
        <time>2023-02-07T16:08:16Z</time>
      </trkpt>
      <trkpt lat="44.99895" lon="3.9174">
        <ele>634.9</ele>
        <time>2023-02-07T16:08:16Z</time>
      </trkpt>
      <trkpt lat="44.99886" lon="3.91748">
        <ele>633.3</ele>
        <time>2023-02-07T16:08:16Z</time>
      </trkpt>
      <trkpt lat="44.99874" lon="3.91697">
        <ele>633.3</ele>
        <time>2023-02-07T16:08:16Z</time>
      </trkpt>
      <trkpt lat="44.99746" lon="3.91738">
        <ele>630.4</ele>
        <time>2023-02-07T16:08:16Z</time>
      </trkpt>
      <trkpt lat="44.9974" lon="3.91745">
        <ele>630.5</ele>
        <time>2023-02-07T16:08:16Z</time>
      </trkpt>
      <trkpt lat="44.9973" lon="3.91739">
        <ele>629.9</ele>
        <time>2023-02-07T16:08:16Z</time>
      </trkpt>
      <trkpt lat="44.99722" lon="3.9173">
        <ele>629.3</ele>
        <time>2023-02-07T16:08:16Z</time>
      </trkpt>
      <trkpt lat="44.99736" lon="3.91716">
        <ele>629.4</ele>
        <time>2023-02-07T16:08:16Z</time>
      </trkpt>
      <trkpt lat="44.99762" lon="3.91704">
        <ele>627.6</ele>
        <time>2023-02-07T16:08:16Z</time>
      </trkpt>
      <trkpt lat="44.99768" lon="3.91697">
        <ele>626.8</ele>
        <time>2023-02-07T16:08:16Z</time>
      </trkpt>
      <trkpt lat="44.99777" lon="3.91715">
        <ele>626.8</ele>
        <time>2023-02-07T16:08:16Z</time>
      </trkpt>
      <trkpt lat="44.99786" lon="3.9175">
        <ele>626.6</ele>
        <time>2023-02-07T16:08:16Z</time>
      </trkpt>
      <trkpt lat="44.99786" lon="3.9175">
        <ele>626.6</ele>
        <time>2023-02-07T16:08:16Z</time>
      </trkpt>
      <trkpt lat="44.99788" lon="3.91773">
        <ele>626.2</ele>
        <time>2023-02-07T16:08:16Z</time>
      </trkpt>
      <trkpt lat="44.99785" lon="3.91792">
        <ele>627.1</ele>
        <time>2023-02-07T16:08:16Z</time>
      </trkpt>
      <trkpt lat="44.99768" lon="3.91813">
        <ele>628.1</ele>
        <time>2023-02-07T16:08:16Z</time>
      </trkpt>
      <trkpt lat="44.9976" lon="3.91819">
        <ele>628.3</ele>
        <time>2023-02-07T16:08:16Z</time>
      </trkpt>
      <trkpt lat="44.99703" lon="3.91836">
        <ele>630.4</ele>
        <time>2023-02-07T16:08:16Z</time>
      </trkpt>
      <trkpt lat="44.99697" lon="3.91821">
        <ele>630.4</ele>
        <time>2023-02-07T16:08:16Z</time>
      </trkpt>
      <trkpt lat="44.99679" lon="3.91832">
        <ele>631</ele>
        <time>2023-02-07T16:08:16Z</time>
      </trkpt>
      <trkpt lat="44.99649" lon="3.9184">
        <ele>631.6</ele>
        <time>2023-02-07T16:08:16Z</time>
      </trkpt>
      <trkpt lat="44.99608" lon="3.91834">
        <ele>633.1</ele>
        <time>2023-02-07T16:08:16Z</time>
      </trkpt>
      <trkpt lat="44.99491" lon="3.9178">
        <ele>644.9</ele>
        <time>2023-02-07T16:08:16Z</time>
      </trkpt>
      <trkpt lat="44.99491" lon="3.9178">
        <ele>644.9</ele>
        <time>2023-02-07T16:08:16Z</time>
      </trkpt>
      <trkpt lat="44.99479" lon="3.91776">
        <ele>646.6</ele>
        <time>2023-02-07T16:08:16Z</time>
      </trkpt>
      <trkpt lat="44.99466" lon="3.91782">
        <ele>649.1</ele>
        <time>2023-02-07T16:08:16Z</time>
      </trkpt>
      <trkpt lat="44.99363" lon="3.91901">
        <ele>663.2</ele>
        <time>2023-02-07T16:08:16Z</time>
      </trkpt>
      <trkpt lat="44.99277" lon="3.92068">
        <ele>678</ele>
        <time>2023-02-07T16:08:16Z</time>
      </trkpt>
      <trkpt lat="44.99277" lon="3.92068">
        <ele>678</ele>
        <time>2023-02-07T16:08:16Z</time>
      </trkpt>
      <trkpt lat="44.99273" lon="3.92076">
        <ele>678.4</ele>
        <time>2023-02-07T16:08:16Z</time>
      </trkpt>
      <trkpt lat="44.99175" lon="3.9205">
        <ele>688.5</ele>
        <time>2023-02-07T16:08:16Z</time>
      </trkpt>
      <trkpt lat="44.99168" lon="3.92044">
        <ele>689.7</ele>
        <time>2023-02-07T16:08:16Z</time>
      </trkpt>
      <trkpt lat="44.99156" lon="3.92024">
        <ele>692.8</ele>
        <time>2023-02-07T16:08:16Z</time>
      </trkpt>
      <trkpt lat="44.99132" lon="3.91955">
        <ele>702.2</ele>
        <time>2023-02-07T16:08:16Z</time>
      </trkpt>
      <trkpt lat="44.99067" lon="3.91874">
        <ele>714.4</ele>
        <time>2023-02-07T16:08:16Z</time>
      </trkpt>
      <trkpt lat="44.99062" lon="3.91862">
        <ele>715.9</ele>
        <time>2023-02-07T16:08:16Z</time>
      </trkpt>
      <trkpt lat="44.99057" lon="3.91834">
        <ele>718.7</ele>
        <time>2023-02-07T16:08:16Z</time>
      </trkpt>
      <trkpt lat="44.99064" lon="3.91769">
        <ele>722.8</ele>
        <time>2023-02-07T16:08:16Z</time>
      </trkpt>
      <trkpt lat="44.99077" lon="3.91709">
        <ele>730.2</ele>
        <time>2023-02-07T16:08:16Z</time>
      </trkpt>
      <trkpt lat="44.99076" lon="3.91697">
        <ele>732.1</ele>
        <time>2023-02-07T16:08:16Z</time>
      </trkpt>
      <trkpt lat="44.99034" lon="3.91674">
        <ele>738.5</ele>
        <time>2023-02-07T16:08:16Z</time>
      </trkpt>
      <trkpt lat="44.99027" lon="3.91664">
        <ele>740.3</ele>
        <time>2023-02-07T16:08:16Z</time>
      </trkpt>
      <trkpt lat="44.99092" lon="3.91577">
        <ele>748.1</ele>
        <time>2023-02-07T16:08:16Z</time>
      </trkpt>
      <trkpt lat="44.99092" lon="3.91564">
        <ele>749.8</ele>
        <time>2023-02-07T16:08:16Z</time>
      </trkpt>
      <trkpt lat="44.98984" lon="3.91523">
        <ele>765</ele>
        <time>2023-02-07T16:08:16Z</time>
      </trkpt>
      <trkpt lat="44.98974" lon="3.91513">
        <ele>766.1</ele>
        <time>2023-02-07T16:08:16Z</time>
      </trkpt>
      <trkpt lat="44.989" lon="3.91383">
        <ele>772.6</ele>
        <time>2023-02-07T16:08:16Z</time>
      </trkpt>
      <trkpt lat="44.98874" lon="3.91357">
        <ele>775.1</ele>
        <time>2023-02-07T16:08:16Z</time>
      </trkpt>
      <trkpt lat="44.9886" lon="3.91349">
        <ele>776.3</ele>
        <time>2023-02-07T16:08:16Z</time>
      </trkpt>
      <trkpt lat="44.98842" lon="3.91345">
        <ele>776.1</ele>
        <time>2023-02-07T16:08:16Z</time>
      </trkpt>
      <trkpt lat="44.98842" lon="3.91345">
        <ele>776.1</ele>
        <time>2023-02-07T16:08:16Z</time>
      </trkpt>
      <trkpt lat="44.98809" lon="3.9134">
        <ele>775.7</ele>
        <time>2023-02-07T16:08:16Z</time>
      </trkpt>
      <trkpt lat="44.98684" lon="3.91382">
        <ele>786.6</ele>
        <time>2023-02-07T16:08:16Z</time>
      </trkpt>
      <trkpt lat="44.98652" lon="3.9138">
        <ele>790.9</ele>
        <time>2023-02-07T16:08:16Z</time>
      </trkpt>
      <trkpt lat="44.98633" lon="3.91383">
        <ele>793.5</ele>
        <time>2023-02-07T16:08:16Z</time>
      </trkpt>
      <trkpt lat="44.98612" lon="3.91383">
        <ele>796.7</ele>
        <time>2023-02-07T16:08:16Z</time>
      </trkpt>
      <trkpt lat="44.98604" lon="3.91385">
        <ele>797.9</ele>
        <time>2023-02-07T16:08:16Z</time>
      </trkpt>
      <trkpt lat="44.98515" lon="3.91447">
        <ele>808.7</ele>
        <time>2023-02-07T16:08:16Z</time>
      </trkpt>
      <trkpt lat="44.98507" lon="3.91443">
        <ele>809.4</ele>
        <time>2023-02-07T16:08:16Z</time>
      </trkpt>
      <trkpt lat="44.98503" lon="3.91433">
        <ele>809.5</ele>
        <time>2023-02-07T16:08:16Z</time>
      </trkpt>
      <trkpt lat="44.98427" lon="3.91347">
        <ele>808.5</ele>
        <time>2023-02-07T16:08:16Z</time>
      </trkpt>
      <trkpt lat="44.98427" lon="3.91347">
        <ele>808.5</ele>
        <time>2023-02-07T16:08:16Z</time>
      </trkpt>
      <trkpt lat="44.98409" lon="3.91375">
        <ele>809.5</ele>
        <time>2023-02-07T16:08:16Z</time>
      </trkpt>
      <trkpt lat="44.98405" lon="3.91399">
        <ele>810</ele>
        <time>2023-02-07T16:08:16Z</time>
      </trkpt>
      <trkpt lat="44.98406" lon="3.91491">
        <ele>812.1</ele>
        <time>2023-02-07T16:08:16Z</time>
      </trkpt>
      <trkpt lat="44.98396" lon="3.91525">
        <ele>813.6</ele>
        <time>2023-02-07T16:08:16Z</time>
      </trkpt>
      <trkpt lat="44.98361" lon="3.91583">
        <ele>817</ele>
        <time>2023-02-07T16:08:16Z</time>
      </trkpt>
      <trkpt lat="44.98273" lon="3.9169">
        <ele>821.3</ele>
        <time>2023-02-07T16:08:16Z</time>
      </trkpt>
      <trkpt lat="44.98248" lon="3.91701">
        <ele>823.8</ele>
        <time>2023-02-07T16:08:16Z</time>
      </trkpt>
      <trkpt lat="44.98213" lon="3.91684">
        <ele>828.2</ele>
        <time>2023-02-07T16:08:16Z</time>
      </trkpt>
      <trkpt lat="44.98199" lon="3.91682">
        <ele>829.3</ele>
        <time>2023-02-07T16:08:16Z</time>
      </trkpt>
      <trkpt lat="44.98179" lon="3.91688">
        <ele>831.5</ele>
        <time>2023-02-07T16:08:16Z</time>
      </trkpt>
      <trkpt lat="44.98171" lon="3.91693">
        <ele>832.6</ele>
        <time>2023-02-07T16:08:16Z</time>
      </trkpt>
      <trkpt lat="44.98163" lon="3.91704">
        <ele>834.2</ele>
        <time>2023-02-07T16:08:16Z</time>
      </trkpt>
      <trkpt lat="44.98147" lon="3.91744">
        <ele>838.4</ele>
        <time>2023-02-07T16:08:16Z</time>
      </trkpt>
      <trkpt lat="44.98141" lon="3.91787">
        <ele>841.6</ele>
        <time>2023-02-07T16:08:16Z</time>
      </trkpt>
      <trkpt lat="44.98145" lon="3.91834">
        <ele>842.6</ele>
        <time>2023-02-07T16:08:16Z</time>
      </trkpt>
      <trkpt lat="44.98142" lon="3.91852">
        <ele>842.8</ele>
        <time>2023-02-07T16:08:16Z</time>
      </trkpt>
      <trkpt lat="44.97958" lon="3.92141">
        <ele>856.5</ele>
        <time>2023-02-07T16:08:16Z</time>
      </trkpt>
      <trkpt lat="44.97958" lon="3.92141">
        <ele>856.5</ele>
        <time>2023-02-07T16:08:16Z</time>
      </trkpt>
      <trkpt lat="44.97754" lon="3.92514">
        <ele>883.7</ele>
        <time>2023-02-07T16:08:16Z</time>
      </trkpt>
      <trkpt lat="44.97705" lon="3.92562">
        <ele>887.8</ele>
        <time>2023-02-07T16:08:16Z</time>
      </trkpt>
      <trkpt lat="44.97584" lon="3.92742">
        <ele>887.2</ele>
        <time>2023-02-07T16:08:16Z</time>
      </trkpt>
      <trkpt lat="44.97505" lon="3.92787">
        <ele>884.4</ele>
        <time>2023-02-07T16:08:16Z</time>
      </trkpt>
      <trkpt lat="44.97406" lon="3.9283">
        <ele>883.1</ele>
        <time>2023-02-07T16:08:16Z</time>
      </trkpt>
      <trkpt lat="44.97347" lon="3.92913">
        <ele>878.6</ele>
        <time>2023-02-07T16:08:16Z</time>
      </trkpt>
      <trkpt lat="44.97347" lon="3.92913">
        <ele>878.6</ele>
        <time>2023-02-07T16:08:16Z</time>
      </trkpt>
      <trkpt lat="44.97328" lon="3.92958">
        <ele>877.5</ele>
        <time>2023-02-07T16:08:16Z</time>
      </trkpt>
      <trkpt lat="44.97323" lon="3.92976">
        <ele>876.8</ele>
        <time>2023-02-07T16:08:16Z</time>
      </trkpt>
      <trkpt lat="44.97281" lon="3.93065">
        <ele>877.7</ele>
        <time>2023-02-07T16:08:16Z</time>
      </trkpt>
      <trkpt lat="44.97135" lon="3.93449">
        <ele>888.3</ele>
        <time>2023-02-07T16:08:16Z</time>
      </trkpt>
      <trkpt lat="44.97069" lon="3.93546">
        <ele>889.6</ele>
        <time>2023-02-07T16:08:16Z</time>
      </trkpt>
      <trkpt lat="44.97056" lon="3.93583">
        <ele>892</ele>
        <time>2023-02-07T16:08:16Z</time>
      </trkpt>
      <trkpt lat="44.96821" lon="3.94007">
        <ele>887.4</ele>
        <time>2023-02-07T16:08:16Z</time>
      </trkpt>
      <trkpt lat="44.96797" lon="3.94029">
        <ele>888</ele>
        <time>2023-02-07T16:08:16Z</time>
      </trkpt>
      <trkpt lat="44.96797" lon="3.94029">
        <ele>888</ele>
        <time>2023-02-07T16:08:16Z</time>
      </trkpt>
      <trkpt lat="44.96538" lon="3.94301">
        <ele>888.4</ele>
        <time>2023-02-07T16:08:16Z</time>
      </trkpt>
      <trkpt lat="44.96249" lon="3.94741">
        <ele>890.3</ele>
        <time>2023-02-07T16:08:16Z</time>
      </trkpt>
      <trkpt lat="44.96244" lon="3.94755">
        <ele>890.7</ele>
        <time>2023-02-07T16:08:16Z</time>
      </trkpt>
      <trkpt lat="44.96201" lon="3.94825">
        <ele>891.1</ele>
        <time>2023-02-07T16:08:16Z</time>
      </trkpt>
      <trkpt lat="44.96191" lon="3.94855">
        <ele>891.7</ele>
        <time>2023-02-07T16:08:16Z</time>
      </trkpt>
      <trkpt lat="44.96191" lon="3.94855">
        <ele>891.7</ele>
        <time>2023-02-07T16:08:16Z</time>
      </trkpt>
      <trkpt lat="44.96189" lon="3.94918">
        <ele>894.3</ele>
        <time>2023-02-07T16:08:16Z</time>
      </trkpt>
      <trkpt lat="44.96257" lon="3.95855">
        <ele>897.6</ele>
        <time>2023-02-07T16:08:16Z</time>
      </trkpt>
      <trkpt lat="44.96257" lon="3.95855">
        <ele>897.6</ele>
        <time>2023-02-07T16:08:16Z</time>
      </trkpt>
      <trkpt lat="44.96251" lon="3.95877">
        <ele>895.5</ele>
        <time>2023-02-07T16:08:16Z</time>
      </trkpt>
      <trkpt lat="44.96157" lon="3.96076">
        <ele>886.6</ele>
        <time>2023-02-07T16:08:16Z</time>
      </trkpt>
      <trkpt lat="44.96128" lon="3.96147">
        <ele>883.2</ele>
        <time>2023-02-07T16:08:16Z</time>
      </trkpt>
      <trkpt lat="44.96087" lon="3.96181">
        <ele>883.5</ele>
        <time>2023-02-07T16:08:16Z</time>
      </trkpt>
      <trkpt lat="44.96079" lon="3.96183">
        <ele>884</ele>
        <time>2023-02-07T16:08:16Z</time>
      </trkpt>
      <trkpt lat="44.9605" lon="3.96182">
        <ele>886.7</ele>
        <time>2023-02-07T16:08:16Z</time>
      </trkpt>
      <trkpt lat="44.96031" lon="3.96189">
        <ele>887.4</ele>
        <time>2023-02-07T16:08:16Z</time>
      </trkpt>
      <trkpt lat="44.96014" lon="3.96205">
        <ele>887.8</ele>
        <time>2023-02-07T16:08:16Z</time>
      </trkpt>
      <trkpt lat="44.95998" lon="3.96243">
        <ele>886.1</ele>
        <time>2023-02-07T16:08:16Z</time>
      </trkpt>
      <trkpt lat="44.95986" lon="3.9628">
        <ele>888.5</ele>
        <time>2023-02-07T16:08:16Z</time>
      </trkpt>
      <trkpt lat="44.9598" lon="3.96289">
        <ele>889.8</ele>
        <time>2023-02-07T16:08:16Z</time>
      </trkpt>
      <trkpt lat="44.95926" lon="3.96344">
        <ele>893.5</ele>
        <time>2023-02-07T16:08:16Z</time>
      </trkpt>
      <trkpt lat="44.95908" lon="3.96385">
        <ele>894.8</ele>
        <time>2023-02-07T16:08:16Z</time>
      </trkpt>
      <trkpt lat="44.95891" lon="3.96462">
        <ele>896.8</ele>
        <time>2023-02-07T16:08:16Z</time>
      </trkpt>
      <trkpt lat="44.95879" lon="3.96492">
        <ele>897</ele>
        <time>2023-02-07T16:08:16Z</time>
      </trkpt>
      <trkpt lat="44.95879" lon="3.96492">
        <ele>897</ele>
        <time>2023-02-07T16:08:16Z</time>
      </trkpt>
      <trkpt lat="44.95828" lon="3.96582">
        <ele>894.6</ele>
        <time>2023-02-07T16:08:16Z</time>
      </trkpt>
      <trkpt lat="44.95564" lon="3.96919">
        <ele>892.3</ele>
        <time>2023-02-07T16:08:16Z</time>
      </trkpt>
      <trkpt lat="44.95553" lon="3.96944">
        <ele>891.4</ele>
        <time>2023-02-07T16:08:16Z</time>
      </trkpt>
      <trkpt lat="44.95542" lon="3.97013">
        <ele>891</ele>
        <time>2023-02-07T16:08:16Z</time>
      </trkpt>
      <trkpt lat="44.95537" lon="3.97026">
        <ele>891.3</ele>
        <time>2023-02-07T16:08:16Z</time>
      </trkpt>
      <trkpt lat="44.95535" lon="3.97045">
        <ele>891.5</ele>
        <time>2023-02-07T16:08:16Z</time>
      </trkpt>
      <trkpt lat="44.9554" lon="3.97076">
        <ele>891.2</ele>
        <time>2023-02-07T16:08:16Z</time>
      </trkpt>
      <trkpt lat="44.9554" lon="3.97076">
        <ele>891.2</ele>
        <time>2023-02-07T16:08:16Z</time>
      </trkpt>
      <trkpt lat="44.95537" lon="3.97064">
        <ele>891.4</ele>
        <time>2023-02-07T16:08:16Z</time>
      </trkpt>
      <trkpt lat="44.95495" lon="3.97058">
        <ele>893.5</ele>
        <time>2023-02-07T16:08:16Z</time>
      </trkpt>
      <trkpt lat="44.95479" lon="3.97072">
        <ele>895.1</ele>
        <time>2023-02-07T16:08:16Z</time>
      </trkpt>
      <trkpt lat="44.95465" lon="3.97075">
        <ele>896.8</ele>
        <time>2023-02-07T16:08:16Z</time>
      </trkpt>
      <trkpt lat="44.95453" lon="3.971">
        <ele>899</ele>
        <time>2023-02-07T16:08:16Z</time>
      </trkpt>
      <trkpt lat="44.95386" lon="3.97106">
        <ele>908.8</ele>
        <time>2023-02-07T16:08:16Z</time>
      </trkpt>
      <trkpt lat="44.95347" lon="3.97117">
        <ele>915.6</ele>
        <time>2023-02-07T16:08:16Z</time>
      </trkpt>
      <trkpt lat="44.95338" lon="3.97123">
        <ele>917.2</ele>
        <time>2023-02-07T16:08:16Z</time>
      </trkpt>
      <trkpt lat="44.95339" lon="3.97103">
        <ele>918.3</ele>
        <time>2023-02-07T16:08:16Z</time>
      </trkpt>
      <trkpt lat="44.95334" lon="3.97094">
        <ele>920.1</ele>
        <time>2023-02-07T16:08:16Z</time>
      </trkpt>
      <trkpt lat="44.95287" lon="3.97082">
        <ele>932.9</ele>
        <time>2023-02-07T16:08:16Z</time>
      </trkpt>
      <trkpt lat="44.95208" lon="3.9704">
        <ele>951.4</ele>
        <time>2023-02-07T16:08:16Z</time>
      </trkpt>
      <trkpt lat="44.95122" lon="3.97022">
        <ele>971.5</ele>
        <time>2023-02-07T16:08:16Z</time>
      </trkpt>
      <trkpt lat="44.9503" lon="3.97038">
        <ele>978.9</ele>
        <time>2023-02-07T16:08:16Z</time>
      </trkpt>
      <trkpt lat="44.94954" lon="3.9703">
        <ele>979.1</ele>
        <time>2023-02-07T16:08:16Z</time>
      </trkpt>
      <trkpt lat="44.94945" lon="3.97032">
        <ele>979.2</ele>
        <time>2023-02-07T16:08:16Z</time>
      </trkpt>
      <trkpt lat="44.94875" lon="3.97002">
        <ele>979</ele>
        <time>2023-02-07T16:08:16Z</time>
      </trkpt>
      <trkpt lat="44.94866" lon="3.97002">
        <ele>979</ele>
        <time>2023-02-07T16:08:16Z</time>
      </trkpt>
      <trkpt lat="44.94829" lon="3.97022">
        <ele>978.8</ele>
        <time>2023-02-07T16:08:16Z</time>
      </trkpt>
      <trkpt lat="44.94782" lon="3.97068">
        <ele>980</ele>
        <time>2023-02-07T16:08:16Z</time>
      </trkpt>
      <trkpt lat="44.94773" lon="3.97073">
        <ele>979.9</ele>
        <time>2023-02-07T16:08:16Z</time>
      </trkpt>
      <trkpt lat="44.94779" lon="3.97093">
        <ele>980.4</ele>
        <time>2023-02-07T16:08:16Z</time>
      </trkpt>
      <trkpt lat="44.94779" lon="3.97093">
        <ele>980.4</ele>
        <time>2023-02-07T16:08:16Z</time>
      </trkpt>
      <trkpt lat="44.94784" lon="3.97112">
        <ele>981</ele>
        <time>2023-02-07T16:08:16Z</time>
      </trkpt>
      <trkpt lat="44.94782" lon="3.97132">
        <ele>981.6</ele>
        <time>2023-02-07T16:08:16Z</time>
      </trkpt>
      <trkpt lat="44.94768" lon="3.97151">
        <ele>982.1</ele>
        <time>2023-02-07T16:08:16Z</time>
      </trkpt>
      <trkpt lat="44.94749" lon="3.97166">
        <ele>982.9</ele>
        <time>2023-02-07T16:08:16Z</time>
      </trkpt>
      <trkpt lat="44.94737" lon="3.9717">
        <ele>982.6</ele>
        <time>2023-02-07T16:08:16Z</time>
      </trkpt>
      <trkpt lat="44.94714" lon="3.97167">
        <ele>982.3</ele>
        <time>2023-02-07T16:08:16Z</time>
      </trkpt>
      <trkpt lat="44.94667" lon="3.97179">
        <ele>983</ele>
        <time>2023-02-07T16:08:16Z</time>
      </trkpt>
      <trkpt lat="44.94621" lon="3.97216">
        <ele>983.8</ele>
        <time>2023-02-07T16:08:16Z</time>
      </trkpt>
      <trkpt lat="44.94608" lon="3.97236">
        <ele>983.2</ele>
        <time>2023-02-07T16:08:16Z</time>
      </trkpt>
      <trkpt lat="44.94603" lon="3.97248">
        <ele>981.9</ele>
        <time>2023-02-07T16:08:16Z</time>
      </trkpt>
      <trkpt lat="44.94586" lon="3.9733">
        <ele>983</ele>
        <time>2023-02-07T16:08:16Z</time>
      </trkpt>
      <trkpt lat="44.94586" lon="3.97341">
        <ele>983.8</ele>
        <time>2023-02-07T16:08:16Z</time>
      </trkpt>
      <trkpt lat="44.94594" lon="3.97382">
        <ele>986.5</ele>
        <time>2023-02-07T16:08:16Z</time>
      </trkpt>
      <trkpt lat="44.9461" lon="3.97553">
        <ele>989.9</ele>
        <time>2023-02-07T16:08:16Z</time>
      </trkpt>
      <trkpt lat="44.94605" lon="3.97575">
        <ele>989.8</ele>
        <time>2023-02-07T16:08:16Z</time>
      </trkpt>
      <trkpt lat="44.94604" lon="3.97586">
        <ele>989.7</ele>
        <time>2023-02-07T16:08:16Z</time>
      </trkpt>
      <trkpt lat="44.94605" lon="3.97599">
        <ele>989.8</ele>
        <time>2023-02-07T16:08:16Z</time>
      </trkpt>
      <trkpt lat="44.94618" lon="3.97638">
        <ele>991</ele>
        <time>2023-02-07T16:08:16Z</time>
      </trkpt>
      <trkpt lat="44.94635" lon="3.97763">
        <ele>992</ele>
        <time>2023-02-07T16:08:16Z</time>
      </trkpt>
      <trkpt lat="44.94614" lon="3.98082">
        <ele>997</ele>
        <time>2023-02-07T16:08:16Z</time>
      </trkpt>
      <trkpt lat="44.94614" lon="3.98082">
        <ele>997</ele>
        <time>2023-02-07T16:08:16Z</time>
      </trkpt>
      <trkpt lat="44.94622" lon="3.98197">
        <ele>994.5</ele>
        <time>2023-02-07T16:08:16Z</time>
      </trkpt>
      <trkpt lat="44.94634" lon="3.98236">
        <ele>989</ele>
        <time>2023-02-07T16:08:16Z</time>
      </trkpt>
      <trkpt lat="44.94652" lon="3.9827">
        <ele>980.7</ele>
        <time>2023-02-07T16:08:16Z</time>
      </trkpt>
      <trkpt lat="44.94662" lon="3.98279">
        <ele>976.8</ele>
        <time>2023-02-07T16:08:16Z</time>
      </trkpt>
      <trkpt lat="44.94667" lon="3.98314">
        <ele>971.7</ele>
        <time>2023-02-07T16:08:16Z</time>
      </trkpt>
      <trkpt lat="44.94668" lon="3.9843">
        <ele>953.2</ele>
        <time>2023-02-07T16:08:16Z</time>
      </trkpt>
      <trkpt lat="44.9468" lon="3.98477">
        <ele>947.1</ele>
        <time>2023-02-07T16:08:16Z</time>
      </trkpt>
      <trkpt lat="44.94666" lon="3.98596">
        <ele>935.5</ele>
        <time>2023-02-07T16:08:16Z</time>
      </trkpt>
      <trkpt lat="44.9469" lon="3.98758">
        <ele>931.8</ele>
        <time>2023-02-07T16:08:16Z</time>
      </trkpt>
      <trkpt lat="44.94673" lon="3.98846">
        <ele>930.4</ele>
        <time>2023-02-07T16:08:16Z</time>
      </trkpt>
      <trkpt lat="44.94673" lon="3.98846">
        <ele>930.4</ele>
        <time>2023-02-07T16:08:16Z</time>
      </trkpt>
      <trkpt lat="44.94663" lon="3.98887">
        <ele>929.7</ele>
        <time>2023-02-07T16:08:16Z</time>
      </trkpt>
      <trkpt lat="44.94676" lon="3.98902">
        <ele>930.8</ele>
        <time>2023-02-07T16:08:16Z</time>
      </trkpt>
      <trkpt lat="44.94659" lon="3.98932">
        <ele>931.1</ele>
        <time>2023-02-07T16:08:16Z</time>
      </trkpt>
      <trkpt lat="44.94495" lon="3.9905">
        <ele>935.7</ele>
        <time>2023-02-07T16:08:16Z</time>
      </trkpt>
      <trkpt lat="44.944" lon="3.99108">
        <ele>936.9</ele>
        <time>2023-02-07T16:08:16Z</time>
      </trkpt>
      <trkpt lat="44.94354" lon="3.99155">
        <ele>934.7</ele>
        <time>2023-02-07T16:08:16Z</time>
      </trkpt>
      <trkpt lat="44.94354" lon="3.99155">
        <ele>934.7</ele>
        <time>2023-02-07T16:08:16Z</time>
      </trkpt>
      <trkpt lat="44.94311" lon="3.99213">
        <ele>931.9</ele>
        <time>2023-02-07T16:08:16Z</time>
      </trkpt>
      <trkpt lat="44.94304" lon="3.99219">
        <ele>931.5</ele>
        <time>2023-02-07T16:08:16Z</time>
      </trkpt>
      <trkpt lat="44.94296" lon="3.99222">
        <ele>930.6</ele>
        <time>2023-02-07T16:08:16Z</time>
      </trkpt>
      <trkpt lat="44.94154" lon="3.99314">
        <ele>929.7</ele>
        <time>2023-02-07T16:08:16Z</time>
      </trkpt>
      <trkpt lat="44.9413" lon="3.99323">
        <ele>930</ele>
        <time>2023-02-07T16:08:16Z</time>
      </trkpt>
      <trkpt lat="44.94103" lon="3.99326">
        <ele>930.3</ele>
        <time>2023-02-07T16:08:16Z</time>
      </trkpt>
      <trkpt lat="44.94059" lon="3.99357">
        <ele>931.1</ele>
        <time>2023-02-07T16:08:16Z</time>
      </trkpt>
      <trkpt lat="44.94035" lon="3.99381">
        <ele>929.6</ele>
        <time>2023-02-07T16:08:16Z</time>
      </trkpt>
      <trkpt lat="44.94035" lon="3.99381">
        <ele>929.6</ele>
        <time>2023-02-07T16:08:16Z</time>
      </trkpt>
      <trkpt lat="44.94014" lon="3.994">
        <ele>929.4</ele>
        <time>2023-02-07T16:08:16Z</time>
      </trkpt>
      <trkpt lat="44.94005" lon="3.99405">
        <ele>929.2</ele>
        <time>2023-02-07T16:08:16Z</time>
      </trkpt>
      <trkpt lat="44.93975" lon="3.99406">
        <ele>928.1</ele>
        <time>2023-02-07T16:08:16Z</time>
      </trkpt>
      <trkpt lat="44.93942" lon="3.99421">
        <ele>929.1</ele>
        <time>2023-02-07T16:08:16Z</time>
      </trkpt>
      <trkpt lat="44.93908" lon="3.99471">
        <ele>931.2</ele>
        <time>2023-02-07T16:08:16Z</time>
      </trkpt>
      <trkpt lat="44.93896" lon="3.99497">
        <ele>933.4</ele>
        <time>2023-02-07T16:08:16Z</time>
      </trkpt>
      <trkpt lat="44.93885" lon="3.99542">
        <ele>938.1</ele>
        <time>2023-02-07T16:08:16Z</time>
      </trkpt>
      <trkpt lat="44.93889" lon="3.99561">
        <ele>940.6</ele>
        <time>2023-02-07T16:08:16Z</time>
      </trkpt>
      <trkpt lat="44.93907" lon="3.99593">
        <ele>944.4</ele>
        <time>2023-02-07T16:08:16Z</time>
      </trkpt>
      <trkpt lat="44.93916" lon="3.99602">
        <ele>945.1</ele>
        <time>2023-02-07T16:08:16Z</time>
      </trkpt>
      <trkpt lat="44.93917" lon="3.99626">
        <ele>948.2</ele>
        <time>2023-02-07T16:08:16Z</time>
      </trkpt>
    </trkseg>
  </trk>
</gpx>